     2              OBSERVATION DATA    GPS                 RINEX VERSION / TYPE
ASHTORIN MIT 09 - JUN - 97 08:30                            PGM / RUN BY / DATE
                                                            COMMENT
China Lake 97 #1 Ashtech Z12                                COMMENT
Original Marker Name: GS28                                  COMMENT
Campaign Name: China Lake May 1997                          COMMENT
4-Character Station Name: GS28                              COMMENT
6-Character Antenna Code: ASHGD3                            COMMENT
Vertical Measurement Point: TGP                             COMMENT
Vertical Offset to Rinex Ref. Point: 0.0640                 COMMENT
Radial Measurement Point: OOH                               COMMENT
Radial Offset to Rinex Ref. Point: 0.1737                   COMMENT
Antenna Height from Field Measurement: 1.3660 m             COMMENT
Additional Antenna Identification Info.:                    COMMENT
The Whopper (700718AB)                                      COMMENT
Original XYZ: -2410768.7400 -4582720.7900 3712578.1800      COMMENT
New XYZ position is based on association with SCEC monument COMMENT
E1F4R2L4+0011. Position of that monument is believed to be  COMMENT
valid to within 1 m horizontally; vertical accuracy         COMMENT
should be no worse than 3-times this value.                 COMMENT
                                                            COMMENT
Revised Rinex header created by UCSD GPS archive for        COMMENT
GSAC on 02-Aug-2000 (2000:215) 16:18:17 GMT                 COMMENT
For assistance contact dagnew@ucsd.edu                      COMMENT
or anderson@python.ucsd.edu                                 COMMENT
                                                            COMMENT
P166 1933 USC&GS                                            MARKER NAME
gs28                                                        MARKER NUMBER
JDT US DEFENSE MAPPING AGENCY                               OBSERVER / AGENCY
452 ASHTECH Z-XII3 1G001C7                                  REC # / TYPE / VERS
808 ASHTECH GEODETIC III                                    ANT # / TYPE
 -2387948.3555 -4559779.3870  3756657.8940                  APPROX POSITION XYZ
        1.2909        0.0000        0.0000                  ANTENNA: DELTA H/E/N
     1     1     0                                          WAVELENGTH FACT L1/2
     7    L1    L2    C1    P1    P2    D1    D2            # / TYPES OF OBSERV
    30                                                      INTERVAL
  1997     5    14    15    25   30.000000                  TIME OF FIRST OBS
  1997     5    14    21    29   60.000000                  TIME OF LAST OBS
                                                            END OF HEADER
 97  5 14 15 25 30.0000000  0  6  2 27 19  7 26 15                   0.000597949
    -14978.13019     -5422.61858  19984150.936           0.0005   19984158.5905
       883.551         688.481
      -357.93319       -71.51655  19088702.480           0.0005          0.0005
        39.190          30.538
     17786.72219      3782.20255  21519664.970           0.0005          0.0005
     -2096.348       -1633.518
    -32390.67019     -5601.02055  20404833.673           0.0005          0.0005
      3102.709        2417.695
    -20863.89419     -4346.94755  22077517.615           0.0005          0.0005
      2413.522        1880.666
    -27232.39419    -11346.69252  22732131.101           0.0005          0.0005
      1851.239        1442.524
 97  5 14 15 26  0.0000000  0  7 31  2 27 19  7 26 15                0.000587358
     27225.80319      5576.79852  23897386.300           0.0005          0.0005
     -3117.465       -2429.194
    -41396.046 9    -26008.01848  19979125.908    19979126.1745   19979131.9764
       877.160         683.501
     -1299.655 9      -805.30158  19088523.499    19088524.2165   19088529.5585
        23.360          18.203
     80802.072 9     52885.03857  21531659.360    21531659.5065   21531664.7295
     -2105.018       -1640.274
   -125292.812 9    -77992.15858  20387157.057    20387156.9785   20387163.6725
      3090.294        2408.021
    -93046.621 9    -60593.19457  22063782.003    22063783.4105   22063789.8165
      2398.142        1868.682
    -82544.058 9    -54446.36657  22721601.877           0.0005   22721610.5565
      1835.793        1430.488
 97  5 14 15 26 30.0000000  0  6  2 27 19  7 26 15                   0.000382538
    -67673.208 9    -46483.73348  21173294.865    21173295.5324   21173301.5204
       875.007         681.824
     -1840.299 9     -1226.59348  20287589.993    20287591.2464   20287596.5984
        12.807           9.979
    144008.622 9    102136.84647  22742853.325    22742856.3754   22742862.6644
     -2109.293       -1643.605
   -217870.202 9   -150130.36448  21568708.518    21568710.0944   21568716.6194
      3082.415        2401.882
   -164803.658 9   -116507.75447  23249297.795    23249298.3854   23249304.6964
      2386.501        1859.611
   -137442.098 9    -97224.06447  23910327.568    23910326.7565   23910333.6224
      1824.661        1421.814
 97  5 14 15 27  0.0000000  0  7 31  2 27 19  7 26 15                0.000371981
    214245.034 9    151306.48856  25132147.975           0.0005   25132154.5905
     -3118.558       -2430.045
    -93817.383 9    -66855.81758  21168321.062    21168320.4805   21168326.4955
       868.718         676.923
     -2004.785 9     -1354.77458  20287558.715    20287559.9825   20287565.3015
        -1.030          -0.802
    207418.444 9    151547.08957  22754922.372    22754923.0705   22754929.0035
     -2117.335       -1649.871
   -310161.416 9   -222045.57658  21551146.461    21551147.6785   21551154.2115
      3071.162        2393.113
   -236164.655 9   -172113.72857  23235718.973    23235718.8795   23235725.0865
      2371.929        1848.256
   -191951.420 9   -139698.83757  23899956.226    23899953.8725   23899960.8475
      1810.014        1410.400
 97  5 14 15 27 30.0000000  0  7 31  2 27 19  7 26 15                0.000361235
    307843.808 9    224240.59856  25149959.823    25149959.0995   25149966.3345
     -3120.848       -2431.830
   -119778.758 9    -87085.45848  21163380.293    21163380.2374   21163386.2464
       862.727         672.255
     -1768.186 9     -1170.41948  20287603.994    20287605.0704   20287610.3034
       -14.146         -11.023
    271076.753 9    201150.92447  22767039.262    22767036.9024   22767042.9304
     -2125.833       -1656.493
   -402121.270 9   -293702.58148  21533646.990    21533648.3004   21533654.8544
      3060.079        2384.477
   -307110.486 9   -227396.19047  23222217.609    23222218.3624   23222224.5714
      2358.382        1837.700
   -246027.748 9   -181836.22647  23889665.153    23889663.4794   23889670.4414
      1795.651        1399.208
 97  5 14 15 28  0.0000000  0  6  2 27 19  7 26 15                   0.000350519
   -145576.869 9   -107187.88348  21158470.816    21158471.0474   21158477.0194
       858.041         668.603
     -1155.832 9      -693.26548  20287720.663    20287721.6424   20287726.8854
       -25.962         -20.230
    334967.609 9    250935.96747  22779195.446    22779194.8724   22779200.8894
     -2132.657       -1661.811
   -493762.988 9   -365111.69348  21516208.477    21516209.4534   21516215.9944
      3050.032        2376.648
   -377663.208 9   -282372.33447  23208791.548    23208792.6194   23208798.9184
      2345.844        1827.930
   -299689.425 9   -223650.50847  23879452.750    23879451.9174   23879458.9764
      1782.579        1389.023
 97  5 14 15 28 30.0000000  0  6  2 27 19  7 26 15                   0.000339769
   -171231.857 9   -127178.78348  21153588.758    21153589.1124   21153595.0414
       852.513         664.296
      -175.571 9        70.56748  20287907.236    20287908.1964   20287913.5004
       -39.457         -30.746
    399065.802 9    300882.59447  22791392.467    22791392.4364   22791398.4424
     -2140.453       -1667.885
   -585089.514 9   -436275.20148  21498829.661    21498830.6334   21498837.1504
      3038.536        2367.690
   -447834.487 9   -337051.25247  23195438.196    23195439.4824   23195445.8124
      2332.478        1817.515
   -352950.550 9   -265152.68947  23869317.208    23869316.7314   23869323.7084
      1768.283        1377.883
 97  5 14 15 29  0.0000000  0  6  2 27 19  7 26 15                   0.000328971
   -196740.584 9   -147055.70948  21148734.582    21148734.9744   21148740.9114
       847.454         660.354
      1210.218 9      1150.39048  20288170.974    20288171.9334   20288177.2664
       -53.648         -41.804
    463383.702 9    351000.40147  22803631.514    22803631.7334   22803637.8514
     -2148.111       -1673.853
   -676081.578 9   -507178.09348  21481514.496    21481515.4594   21481521.9964
      3026.810        2358.553
   -517624.939 9   -391433.41647  23182157.640    23182158.8454   23182165.1314
      2319.428        1807.346
   -405792.483 9   -306328.19947  23859261.092    23859261.2524   23859268.2594
      1753.759        1366.565
 97  5 14 15 29 30.0000000  0  6  2 27 19  7 26 15                   0.000318142
   -222118.035 9   -166830.34848  21143905.344    21143905.8254   21143911.7524
       844.164         657.790
      3014.687 9      2556.45448  20288514.560    20288515.3714   20288520.6664
       -66.904         -52.133
    527927.348 9    401294.12447  22815913.617    22815914.0814   22815920.1554
     -2154.878       -1679.126
   -766721.557 9   -577806.63148  21464266.377    21464267.2714   21464273.8484
      3015.738        2349.926
   -587021.600 9   -445508.72947  23168951.930    23168953.1364   23168959.3584
      2306.678        1797.411
   -458202.182 9   -347166.93747  23849288.378    23849288.0544   23849295.0774
      1739.994        1355.839
 97  5 14 15 30  0.0000000  0  6  2 27 19  7 26 15                   0.000307285
   -247371.204 9   -186508.13848  21139099.893    21139100.2854   21139106.2634
       837.897         652.907
      5243.142 9      4292.90548  20288938.650    20288939.4544   20288944.7744
       -83.053         -64.717
    592691.556 9    451759.70947  22828237.707    22828238.2804   22828244.4144
     -2164.062       -1686.282
   -857011.396 9   -648162.33648  21447084.827    21447085.7114   21447092.3044
      3002.095        2339.295
   -656003.865 9   -499261.13447  23155825.026    23155826.3034   23155832.4844
      2290.634        1784.910
   -510174.834 9   -387665.11747  23839398.276    23839397.9834   23839405.0274
      1723.410        1342.917
 97  5 14 15 30 30.0000000  0  6  2 27 19  7 26 15                   0.000296388
   -272515.606 9   -206101.18448  21134314.976    21134315.5024   21134321.4404
       835.284         650.871
      7875.322 9      6343.94648  20289439.530    20289440.3954   20289445.7284
       -95.393         -74.332
    657647.167 9    502374.43047  22840598.167    22840599.0364   22840605.1944
     -2169.316       -1690.376
   -946973.581 9   -718262.72148  21429965.666    21429966.5014   21429973.1184
      2992.378        2331.723
   -724580.034 9   -552697.10147  23142775.542    23142776.6904   23142782.8754
      2278.153        1775.184
   -561730.520 9   -427838.37747  23829587.117    23829587.2244   23829594.3444
      1710.593        1332.930
 97  5 14 15 31  0.0000000  0  6  2 27 19  7 26 15                   0.000285471
   -297516.331 9   -225582.27248  21129557.562    21129558.0384   21129563.9824
       831.309         647.773
     10932.834 9      8726.40948  20290021.448    20290022.3024   20290027.6014
      -108.340         -84.421
    722823.707 9    553161.30247  22853000.877    22853001.7904   22853008.0284
     -2175.776       -1695.410
  -1036578.873 9   -788084.99748  21412914.321    21412915.2024   21412921.8414
      2981.240        2323.044
   -792717.223 9   -605791.00747  23129809.350    23129810.6054   23129816.7964
      2264.204        1764.315
   -612839.731 9   -467663.71847  23819861.471    23819861.5464   23819868.6204
      1696.712        1322.113
 97  5 14 15 31 30.0000000  0  6  2 27 19  7 26 15                   0.000274549
   -322353.879 9   -244936.21248  21124831.134    21124831.6384   21124837.5844
       825.161         642.983
     14407.240 9     11433.72348  20290682.754    20290683.5254   20290688.7574
      -122.514         -95.465
    788227.318 9    604125.12347  22865446.690    22865447.6534   22865453.9004
     -2183.647       -1701.543
  -1125819.745 9   -857623.31948  21395932.296    21395933.2384   21395939.9054
      2969.019        2313.521
   -860394.946 9   -658526.89747  23116930.730    23116931.9984   23116938.1914
      2248.362        1751.970
   -663498.201 9   -507137.85447  23810221.196    23810221.5794   23810228.6264
      1681.221        1310.042
 97  5 14 15 32  0.0000000  0  6  2 27 19  7 26 15                   0.000263611
   -347010.546 9   -264149.19948  21120139.132    21120139.6634   21120145.6354
       818.486         637.781
     18297.371 9     14464.98848  20291423.106    20291423.8534   20291429.0564
      -137.118        -106.845
    853851.662 9    655260.94747  22877934.649    22877935.7074   22877941.9744
     -2191.393       -1707.579
  -1214712.860 9   -926890.65648  21379016.516    21379017.4554   21379024.1534
      2956.831        2304.024
   -927611.768 9   -710903.63347  23104139.811    23104141.0784   23104147.2114
      2232.489        1739.602
   -713708.616 9   -546262.83147  23800666.422    23800666.8054   23800673.9184
      1665.832        1298.051
 97  5 14 15 32 30.0000000  0  6  2 27 19  7 26 15                   0.000252642
   -371506.780 9   -283237.17548  21115477.586    21115478.2184   21115484.2034
       813.617         633.987
     22597.988 9     17816.11448  20292241.460    20292242.2614   20292247.4844
      -150.726        -117.449
    919676.377 9    706552.89547  22890460.623    22890461.7824   22890467.9004
     -2198.043       -1712.761
  -1303270.090 9   -995896.26148  21362164.669    21362165.5664   21362172.2824
      2945.929        2295.529
   -994383.912 9   -762933.87747  23091433.405    23091434.7444   23091440.8624
      2218.016        1728.324
   -763485.434 9   -585049.95147  23791194.266    23791194.6294   23791201.7924
      1651.512        1286.892
 97  5 14 15 33  0.0000000  0  6  2 27 19  7 26 15                   0.000241644
   -395854.044 9   -302209.07448  21110844.541    21110845.1414   21110851.1294
       809.450         630.740
     27313.458 9     21490.49548  20293138.768    20293139.5974   20293144.8494
      -163.869        -127.690
    985710.444 9    758007.97347  22903026.679    22903027.7904   22903033.7874
     -2204.300       -1717.636
  -1391489.948 9  -1064638.98248  21345376.980    21345377.8504   21345384.5644
      2935.184        2287.156
  -1060712.783 9   -814618.71347  23078811.440    23078812.7774   23078818.9244
      2203.738        1717.198
   -812824.939 9   -623496.31547  23781805.442    23781805.6454   23781812.8714
      1637.576        1276.033
 97  5 14 15 33 30.0000000  0  6  2 27 19  7 26 15                   0.000230611
   -420073.652 9   -321081.50448  21106235.758    21106236.3484   21106242.3084
       805.409         627.591
     32443.041 9     25487.56248  20294114.804    20294115.6944   20294120.9554
      -177.910        -138.631
   1051940.164 9    809615.52447  22915630.020    22915630.9924   22915637.0294
     -2210.709       -1722.630
  -1479383.206 9  -1133127.20848  21328651.321    21328652.2884   21328659.0164
      2924.454        2278.795
  -1126603.519 9   -865962.15347  23066272.982    23066274.2094   23066280.3854
      2189.297        1705.946
   -861734.008 9   -661607.28247  23772498.630    23772498.7254   23772505.8624
      1623.178        1264.814
 97  5 14 15 34  0.0000000  0  6  2 27 19  7 26 15                   0.000219539
   -444170.833 9   -339858.53548  21101650.271    21101650.8294   21101656.7894
       801.857         624.824
     38003.192 9     29820.13948  20295172.912    20295173.7854   20295179.0654
      -192.128        -149.710
   1118365.456 9    861375.42947  22928270.259    22928271.2164   22928277.5344
     -2217.071       -1727.588
  -1566935.042 9  -1201349.39748  21311990.749    21311991.6934   21311998.4134
      2912.870        2269.769
  -1192055.362 9   -916963.58747  23053817.911    23053819.1424   23053825.3654
      2174.940        1694.758
   -910202.231 9   -699374.71647  23763274.936    23763275.5494   23763282.6654
      1608.652        1253.495
 97  5 14 15 34 30.0000000  0  6  2 27 19  7 26 15                   0.000208432
   -468169.525 9   -358558.82848  21097083.561    21097084.0844   21097089.9974
       798.596         622.283
     43976.492 9     34474.64548  20296309.628    20296310.5024   20296315.8064
      -205.374        -160.032
   1184977.138 9    913280.64047  22940946.234    22940947.1244   22940953.3284
     -2223.224       -1732.382
  -1654139.326 9  -1269300.76948  21295396.168    21295397.2194   21295403.9184
      2901.367        2260.805
  -1257085.248 9   -967636.23347  23041443.200    23041444.4044   23041450.6244
      2161.101        1683.975
   -958237.489 9   -736804.78447  23754134.217    23754134.7784   23754141.8964
      1594.295        1242.308
 97  5 14 15 35  0.0000000  0  6  2 27 19  7 26 15                   0.000197312
   -492034.883 9   -377155.21948  21092542.190    21092542.7094   21092548.5894
       793.830         618.569
     50370.397 9     39456.90248  20297526.438    20297527.2204   20297532.5714
      -219.553        -171.080
   1251805.870 9    965354.91547  22953663.110    22953664.1674   22953670.6294
     -2230.590       -1738.122
  -1740959.029 9  -1336952.46048  21278874.910    21278875.9454   21278882.6624
      2887.957        2250.356
  -1321671.419 9  -1017963.13047  23029153.004    23029154.1244   23029160.3274
      2146.105        1672.290
  -1005812.520 9   -773876.24247  23745081.071    23745081.5964   23745088.6594
      1578.760        1230.203
 97  5 14 15 35 30.0000000  0  6  2 27 19  7 26 15                   0.000186164
   -515780.462 9   -395658.27448  21088023.525    21088024.0864   21088029.9794
       789.285         615.027
     57171.635 9     44756.55248  20298820.748    20298821.4674   20298826.7854
      -233.633        -182.052
   1318836.225 9   1017586.31847  22966418.713    22966419.6474   22966426.1284
     -2237.831       -1743.764
  -1827397.458 9  -1404307.05748  21262426.216    21262427.2374   21262433.9594
      2874.771        2240.081
  -1385838.712 9  -1067963.62747  23016942.282    23016943.4594   23016949.7124
      2131.843        1661.176
  -1052939.540 9   -810598.57746  23736113.038    23736113.5154   23736120.6814
      1563.195        1218.074
 97  5 14 15 36  0.0000000  0  6  2 27 19  7 26 15                   0.000175018
   -539359.954 9   -414031.91548  21083536.491    21083537.0674   21083542.9404
       784.202         611.066
     64414.546 9     50400.36548  20300199.009    20300199.7794   20300205.0804
      -247.744        -193.047
   1386110.933 9   1070008.15747  22979220.945    22979221.6804   22979228.1514
     -2245.734       -1749.923
  -1913408.184 9  -1471328.38048  21246058.929    21246059.9524   21246066.6674
      2860.934        2229.299
  -1449547.576 9  -1117606.90847  23004818.747    23004820.0714   23004826.2874
      2116.875        1649.513
  -1099571.550 9   -846935.20447  23727239.173    23727239.6754   23727246.9204
      1547.039        1205.485
 97  5 14 15 36 30.0000000  0  6  2 27 19  7 26 15                   0.000163859
   -562802.593 9   -432298.91248  21079075.522    21079076.0774   21079081.9534
       778.305         606.471
     72052.850 9     56352.27948  20301652.608    20301653.3314   20301658.6704
      -261.911        -204.086
   1453601.085 9   1122597.83047  22992063.416    22992064.6074   22992071.1434
     -2253.806       -1756.212
  -1999034.816 9  -1538050.41248  21229764.810    21229765.7434   21229772.4674
      2847.225        2218.617
  -1512822.252 9  -1166911.86947  22992778.014    22992779.3244   22992785.5354
      2101.185        1637.287
  -1145738.816 9   -882909.68446  23718453.678    23718454.3874   23718461.5864
      1530.436        1192.548
 97  5 14 15 37  0.0000000  0  6  2 27 19  7 26 15                   0.000152688
   -586090.275 9   -450445.16648  21074644.067    21074644.5724   21074650.4784
       774.669         603.638
     80114.043 9     62633.72148  20303186.632    20303187.3624   20303192.7144
      -275.205        -214.445
   1521311.140 9   1175358.87147  23004948.579    23004949.5364   23004956.1004
     -2259.637       -1760.756
  -2084270.631 9  -1604467.90948  21213544.927    21213545.9064   21213552.6394
      2835.702        2209.638
  -1575647.036 9  -1215866.25647  22980822.932    22980824.1624   22980830.3464
      2087.560        1626.670
  -1191425.138 9   -918509.42247  23709759.861    23709760.5894   23709767.7084
      1515.662        1181.035
 97  5 14 15 37 30.0000000  0  6  2 27 19  7 26 15                   0.000141481
   -609250.009 9   -468491.72048  21070236.892    21070237.4404   21070243.3664
       769.825         599.864
     88595.773 9     69242.84748  20304800.683    20304801.4114   20304806.7404
      -289.726        -225.761
   1589212.887 9   1228269.29547  23017870.142    23017870.9224   23017877.3414
     -2266.674       -1766.239
  -2169155.862 9  -1670612.22848  21197391.820    21197392.8274   21197399.5424
      2823.935        2200.469
  -1638037.818 9  -1264482.45447  22968950.500    22968951.6794   22968957.8344
      2072.262        1614.750
  -1236645.424 9   -953745.99847  23701155.075    23701155.5424   23701162.4884
      1499.509        1168.448
 97  5 14 15 38  0.0000000  0  6  2 27 19  7 26 15                   0.000130252
   -632265.159 9   -486425.60648  21065857.322    21065857.8194   21065863.7624
       765.773         596.706
     97503.615 9     76184.01148  20306495.806    20306496.5334   20306501.8754
      -302.941        -236.058
   1657324.204 9   1281342.99247  23030831.012    23030832.1064   23030838.6384
     -2272.952       -1771.131
  -2253695.734 9  -1736487.43148  21181304.464    21181305.3864   21181312.1134
      2813.303        2192.184
  -1699966.127 9  -1312738.27947  22957165.954    22957167.1964   22957173.3624
      2057.519        1603.262
  -1281384.391 9   -988607.52746  23692641.516    23692641.9754   23692648.9224
      1484.349        1156.636
 97  5 14 15 38 30.0000000  0  6  2 27 19  7 26 15                   0.000118993
   -655143.458 9   -504252.86148  21061503.720    21061504.2194   21061510.1704
       761.266         593.194
    106825.999 9     83448.18548  20308269.814    20308270.5594   20308275.9134
      -316.953        -246.976
   1725633.130 9   1334570.69747  23043829.919    23043830.9124   23043837.5084
     -2279.269       -1776.054
  -2337903.663 9  -1802103.98648  21165280.213    21165281.1244   21165287.8534
      2802.150        2183.494
  -1761444.306 9  -1360643.36647  22945467.117    22945468.3084   22945474.4804
      2042.838        1591.822
  -1325659.149 9  -1023107.31947  23684216.171    23684216.8134   23684223.7424
      1469.021        1144.692
 97  5 14 15 39  0.0000000  0  6  2 27 19  7 26 15                   0.000107667
   -677929.531 9   -522008.24648  21057167.715    21057168.1934   21057174.1534
       756.738         589.666
    116541.049 9     91018.33948  20310118.531    20310119.2954   20310124.6854
      -331.624        -258.408
   1794100.910 9   1387922.16047  23056858.651    23056859.8274   23056866.6414
     -2286.285       -1781.521
  -2421813.729 9  -1867488.43448  21149312.667    21149313.5674   21149320.2864
      2790.671        2174.549
  -1822518.259 9  -1408233.46947  22933845.314    22933846.3834   22933852.5234
      2027.504        1579.873
  -1369510.198 9  -1057276.97946  23675871.650    23675872.2834   23675879.1344
      1453.295        1132.438
 97  5 14 15 39 30.0000000  0  6  2 27 19  7 26 15                   0.000096320
   -700589.342 9   -539665.24248  21052855.715    21052856.2234   21052862.1674
       753.122         586.848
    126670.419 9     98911.33648  20312046.034    20312046.8504   20312052.2554
      -344.416        -268.376
   1862768.903 9   1441429.65147  23069925.886    23069927.0084   23069933.8564
     -2292.311       -1786.216
  -2505383.032 9  -1932607.35348  21133409.972    21133410.8904   21133417.6214
      2779.741        2166.032
  -1883130.457 9  -1455463.74747  22922311.287    22922312.2894   22922318.4794
      2012.720        1568.353
  -1412899.070 9  -1091086.49246  23667615.032    23667615.5614   23667622.4764
      1438.626        1121.007
 97  5 14 15 40  0.0000000  0  6  2 27 19  7 26 15                   0.000084950
   -723106.035 9   -557210.72648  21048571.017    21048571.5064   21048577.4364
       748.054         582.899
    137215.840 9    107128.52748  20314052.807    20314053.6214   20314058.9764
      -358.609        -279.435
   1931642.695 9   1495097.51247  23083031.903    23083033.3124   23083040.1014
     -2299.090       -1791.499
  -2588584.905 9  -1997439.96748  21117577.190    21117578.1354   21117584.8874
      2766.948        2156.063
  -1943280.554 9  -1502333.96147  22910865.090    22910866.1204   22910872.2924
      1997.297        1556.335
  -1455821.835 9  -1124532.79346  23659446.708    23659447.5174   23659454.5134
      1422.947        1108.790
 97  5 14 15 40 30.0000000  0  6  2 27 19  7 26 15                   0.000073572
   -745442.071 9   -574615.43948  21044320.515    21044321.1114   21044327.0704
       742.569         578.625
    148227.098 9    115708.70748  20316148.189    20316149.0214   20316154.3464
      -373.870        -291.327
   2000740.868 9   1548940.15747  23096180.758    23096182.1404   23096189.1024
     -2305.905       -1796.809
  -2671365.373 9  -2061944.20448  21101824.549    21101825.5494   21101832.2914
      2753.323        2145.446
  -2002934.422 9  -1548817.49447  22899513.205    22899514.3994   22899520.5524
      1981.124        1543.733
  -1498241.370 9  -1157586.97846  23651374.648    23651375.3714   23651382.3554
      1406.523        1095.992
 97  5 14 15 41  0.0000000  0  6  2 27 19  7 26 15                   0.000062175
   -767627.272 9   -591902.61248  21040098.719    21040099.4164   21040105.4174
       736.647         574.011
    159673.664 9    124628.09048  20318326.453    20318327.2654   20318332.5694
      -389.037        -303.146
   2070032.729 9   1602933.80347  23109366.762    23109368.0924   23109374.7824
     -2313.352       -1802.612
  -2753756.052 9  -2126144.71248  21086146.182    21086147.1844   21086153.8714
      2739.439        2134.628
  -2062110.175 9  -1594928.49147  22888252.453    22888253.6754   22888259.7524
      1964.003        1530.392
  -1540177.866 9  -1190264.77846  23643394.454    23643395.1734   23643402.0604
      1389.390        1082.641
 97  5 14 15 41 30.0000000  0  6  2 27 19  7 26 15                   0.000050777
   -789641.025 9   -609056.18948  21035909.602    21035910.3564   21035916.3334
       730.736         569.405
    171562.731 9    133892.27848  20320588.829    20320589.7394   20320594.9934
      -403.840        -314.680
   2139539.418 9   1657094.75647  23122593.041    23122594.7734   23122601.6654
     -2320.629       -1808.282
  -2835728.608 9  -2190019.40748  21070547.399    21070548.3744   21070555.0264
      2725.350        2123.649
  -2120785.438 9  -1640649.47047  22877086.896    22877088.1704   22877094.2284
      1947.665        1517.661
  -1581609.540 9  -1222549.21446  23635510.718    23635510.9424   23635517.8894
      1372.571        1069.536
 97  5 14 15 42  0.0000000  0  6  2 27 19  7 26 15                   0.000039370
   -811473.855 9   -626068.78348  21031755.054    21031755.7044   21031761.6984
       725.145         565.048
    183904.402 9    143509.14648  20322937.413    20322938.3334   20322943.5534
      -418.674        -326.239
   2209269.621 9   1711429.95247  23135862.598    23135864.1144   23135870.8224
     -2327.880       -1813.932
  -2917282.297 9  -2253567.71548  21055028.237    21055029.2724   21055035.8994
      2711.708        2113.019
  -2178971.482 9  -1685989.24847  22866014.581    22866015.7384   22866021.7594
      1931.370        1504.964
  -1622531.149 9  -1254436.18546  23627723.635    23627723.9124   23627730.8034
      1355.673        1056.369
 97  5 14 15 42 30.0000000  0  6  2 27 19  7 26 15                   0.000027965
   -833153.122 9   -642961.72148  21027629.631    21027630.2924   21027636.2584
       720.190         561.187
    196682.243 9    153465.88548  20325368.986    20325369.8894   20325375.1414
      -433.202        -337.560
   2279222.183 9   1765938.37547  23149174.270    23149175.7584   23149182.4134
     -2335.523       -1819.888
  -2998432.184 9  -2316801.37248  21039586.035    21039587.0074   21039593.5904
      2698.370        2102.626
  -2236663.672 9  -1730944.20047  22855036.064    22855037.3314   22855043.2794
      1914.913        1492.140
  -1662946.834 9  -1285928.92446  23620033.166    23620033.0124   23620039.9294
      1338.712        1043.152
 97  5 14 15 43  0.0000000  0  6  2 27 19  7 26 15                   0.000016569
   -854677.416 9   -659733.89448  21023533.625    21023534.3634   21023540.3054
       715.141         557.253
    209907.220 9    163771.03848  20327885.513    20327886.4984   20327891.8404
      -448.382        -349.389
   2349416.607 9   1820635.28546  23162531.722    23162533.2404   23162539.9024
     -2343.686       -1826.249
  -3079172.956 9  -2379716.23948  21024221.581    21024222.5954   21024229.1104
      2684.523        2091.836
  -2293862.493 9  -1775514.70947  22844151.631    22844152.7764   22844158.7334
      1898.774        1479.564
  -1702844.587 9  -1317018.08146  23612440.733    23612440.7094   23612447.7514
      1321.446        1029.698
 97  5 14 15 43 30.0000000  0  6  2 27 19  7 26 15                   0.000005164
   -876050.737 9   -676388.43148  21019466.393    21019467.1284   21019473.1164
       709.688         553.004
    223594.150 9    174436.15248  20330489.976    20330491.0624   20330496.4064
      -464.073        -361.615
   2419847.717 9   1875516.62547  23175934.813    23175936.1614   23175942.7244
     -2351.540       -1832.369
  -3159490.649 9  -2442301.43348  21008937.575    21008938.6534   21008945.1414
      2670.226        2080.696
  -2350586.209 9  -1819715.00847  22833357.324    22833358.5314   22833364.5674
      1882.983        1467.259
  -1742226.356 9  -1347705.17146  23604946.081    23604946.6684   23604953.7274
      1304.093        1016.176
 97  5 14 15 44  0.0000000  0  6  2 27 19  7 26 15                  -0.000006263
   -897254.301 9   -692910.69448  21015431.438    21015432.1614   21015438.2094
       704.066         548.623
    237762.329 9    185476.26248  20333186.149    20333187.1984   20333192.5554
      -480.271        -374.237
   2490509.706 9   1930577.83546  23189381.343    23189382.6344   23189389.3214
     -2359.118       -1838.274
  -3239383.325 9  -2504555.45548  20993734.562    20993735.5984   20993742.0244
      2656.044        2069.645
  -2406835.090 9  -1863545.29947  22822653.375    22822654.7274   22822660.8394
      1867.002        1454.807
  -1781083.413 9  -1377983.41346  23597551.752    23597552.4694   23597559.4784
      1286.409        1002.397
 97  5 14 15 44 29.9990000  0  6  2 27 19  7 26 15                  -0.000017705
   -918283.367 9   -709296.98648  21011429.694    21011430.5004   21011436.5444
       697.801         543.741
    252420.540 9    196898.21848  20335975.506    20335976.5354   20335981.9404
      -497.102        -387.352
   2561404.385 9   1985820.43447  23202872.277    23202873.5884   23202880.0454
     -2367.235       -1844.599
  -3318837.411 9  -2566467.71748  20978614.943    20978615.9604   20978622.3474
      2641.075        2057.981
  -2462598.833 9  -1906997.57347  22812041.927    22812043.1814   22812049.3384
      1850.724        1442.123
  -1819404.383 9  -1407843.91346  23590259.318    23590260.2484   23590267.2534
      1268.355         988.329
 97  5 14 15 44 59.9990000  0  6  2 27 19  7 26 15                  -0.000029173
   -939121.578 9   -725534.55648  21007464.392    21007465.1794   21007471.2124
       692.102         539.300
    267580.072 9    208710.81348  20338860.398    20338861.3654   20338866.7684
      -512.823        -399.602
   2632538.018 9   2041249.15747  23216408.484    23216409.8604   23216416.5134
     -2374.473       -1850.239
  -3397849.017 9  -2628035.18448  20963579.457    20963580.5084   20963586.8894
      2627.002        2047.014
  -2517879.936 9  -1950073.75947  22801522.328    22801523.5344   22801529.7214
      1835.248        1430.063
  -1857189.272 9  -1437286.68146  23583069.084    23583070.0884   23583076.9674
      1251.224         974.980
 97  5 14 15 45 29.9990000  0  6  2 27 19  7 26 15                  -0.000040651
   -959760.462 9   -741616.81148  21003536.946    21003537.7474   21003543.7664
       684.412         533.308
    283231.184 9    220906.45748  20341838.734    20341839.7074   20341845.1354
      -530.049        -413.025
   2703914.259 9   2096866.97447  23229990.984    23229992.3144   23229998.9414
     -2383.489       -1857.264
  -3476416.408 9  -2689256.51248  20948628.368    20948629.5664   20948635.9804
      2611.489        2034.926
  -2572661.798 9  -1992760.93347  22791097.760    22791098.9074   22791105.1374
      1817.259        1416.046
  -1894432.204 9  -1466307.15346  23575982.076    23575983.0714   23575989.8884
      1232.127         960.099
 97  5 14 15 45 59.9990000  0  6  2 27 19  7 26 15                  -0.000052121
   -980199.764 9   -757543.54148  20999647.403    20999648.2924   20999654.2794
       678.616         528.792
    299374.230 9    233485.42948  20344910.655    20344911.6324   20344917.0834
      -545.760        -425.268
   2775541.765 9   2152680.54747  23243621.281    23243622.7404   23243629.3434
     -2391.421       -1863.445
  -3554549.439 9  -2750139.37848  20933760.121    20933761.3294   20933767.7604
      2597.614        2024.115
  -2626914.834 9  -2035036.03247  22780773.772    22780774.8884   22780781.1304
      1799.682        1402.350
  -1931122.102 9  -1494896.67546  23569000.592    23569001.1784   23569008.0714
      1214.068         946.027
 97  5 14 15 46 29.9990000  0  6  2 27 19  7 26 15                  -0.000063566
  -1000470.206 9   -773338.69448  20995790.079    20995790.9744   20995796.9654
       672.285         523.858
    315981.892 9    246426.43948  20348071.012    20348071.9954   20348077.4544
      -561.957        -437.889
   2847412.322 9   2208683.54446  23257297.918    23257299.2874   23257305.8474
     -2400.144       -1870.242
  -3632260.308 9  -2810693.28648  20918972.129    20918973.3974   20918979.8984
      2582.653        2012.457
  -2680628.755 9  -2076891.05047  22770552.372    22770553.4874   22770559.6884
      1780.943        1387.748
  -1967270.772 9  -1523064.47146  23562121.529    23562122.2514   23562129.2584
      1195.441         931.512
 97  5 14 15 46 59.9990000  0  6  2 27 19  7 26 15                  -0.000074979
  -1020552.066 9   -788986.89948  20991968.567    20991969.5494   20991975.5414
       666.417         519.286
    333078.840 9    259748.71148  20351324.500    20351325.4584   20351330.9264
      -577.817        -450.247
   2919534.478 9   2264882.53947  23271022.290    23271023.7124   23271030.4124
     -2407.947       -1876.322
  -3709526.978 9  -2870901.06148  20904268.664    20904269.9974   20904276.5464
      2568.310        2001.281
  -2733783.683 9  -2118310.48147  22760437.168    22760438.4474   22760444.6524
      1762.772        1373.589
  -2002858.468 9  -1550795.14846  23555349.084    23555350.1764   23555357.2424
      1176.980         917.127
 97  5 14 15 47 29.9990000  0  6  2 27 19  7 26 15                  -0.000086372
  -1040461.605 9   -804500.82948  20988179.934    20988180.8834   20988186.8634
       660.215         514.453
    350647.241 9    273438.35148  20354667.616    20354668.6104   20354674.1294
      -593.980        -462.841
   2991885.280 9   2321259.72247  23284790.438    23284791.6344   23284798.4894
     -2415.910       -1882.527
  -3786363.562 9  -2930773.70348  20889647.136    20889648.4454   20889655.0254
      2553.411        1989.671
  -2786398.839 9  -2159309.32047  22750424.711    22750426.0954   22750432.3174
      1744.270        1359.171
  -2037896.312 9  -1578097.37046  23548681.417    23548682.6314   23548689.7694
      1158.257         902.538
 97  5 14 15 47 59.9990000  0  6  2 27 19  7 26 15                  -0.000097732
  -1060166.206 9   -819855.06848  20984430.236    20984431.2204   20984437.2104
       653.639         509.329
    368704.115 9    287508.61248  20358103.647    20358104.7474   20358110.2864
      -609.570        -474.990
   3064479.801 9   2377826.85147  23298604.641    23298605.9964   23298612.8484
     -2423.612       -1888.529
  -3862735.069 9  -2990283.94548  20875114.055    20875115.4084   20875122.0304
      2538.124        1977.759
  -2838447.181 9  -2199866.48147  22740520.251    22740521.6664   22740527.8664
      1725.913        1344.867
  -2072360.843 9  -1604952.85446  23542123.020    23542124.1724   23542131.5054
      1139.601         888.001
 97  5 14 15 48 29.9990000  0  6  2 27 19  7 26 15                  -0.000109070
  -1079666.733 9   -835050.28948  20980719.429    20980720.4104   20980726.4024
       645.947         503.335
    387232.691 9    301946.43448  20361629.594    20361630.6484   20361636.2264
      -626.251        -487.988
   3137317.260 9   2434583.19047  23312464.901    23312466.3854   23312473.5274
     -2432.593       -1895.527
  -3938637.592 9  -3049428.74548  20860670.327    20860671.6694   20860678.2514
      2521.634        1964.910
  -2889953.669 9  -2240001.42447  22730719.044    22730720.3584   22730726.5714
      1707.496        1330.516
  -2106263.376 9  -1631370.41746  23535671.711    23535672.7644   23535680.0874
      1120.109         872.812
 97  5 14 15 48 59.9990000  0  6  2 27 19  7 26 15                  -0.000120396
  -1098952.407 9   -850078.08648  20977049.424    20977050.4514   20977056.4744
       638.929         497.867
    406248.023 9    316763.55148  20365248.045    20365249.1424   20365254.7824
      -642.251        -500.455
   3210405.922 9   2491535.39347  23326373.116    23326374.8844   23326381.7454
     -2440.920       -1902.016
  -4014071.281 9  -3108208.21848  20846315.835    20846317.1024   20846323.6964
      2506.334        1952.988
  -2940924.406 9  -2279718.89547  22721019.619    22721020.9324   22721027.2234
      1689.618        1316.585
  -2139597.564 9  -1657345.12146  23529328.528    23529329.5114   23529336.8614
      1101.234         858.104
 97  5 14 15 49 29.9990000  0  6  2 27 19  7 26 15                  -0.000131699
  -1118022.900 9   -864938.21748  20973420.405    20973421.4364   20973427.4884
       633.063         493.296
    425741.445 9    331953.20448  20368957.494    20368958.6324   20368964.3324
      -656.935        -511.897
   3283754.593 9   2548690.10046  23340330.840    23340332.4894   23340339.6664
     -2448.337       -1907.795
  -4089042.862 9  -3166627.60748  20832049.160    20832050.4544   20832057.0914
      2492.336        1942.080
  -2991351.135 9  -2319012.46448  22711423.800    22711425.0504   22711431.3744
      1672.652        1303.365
  -2172362.026 9  -1682875.89646  23523093.702    23523094.6934   23523101.9504
      1083.599         844.363
 97  5 14 15 49 59.9990000  0  6  2 27 19  7 26 15                  -0.000143001
  -1136912.907 9   -879657.71148  20969825.764    20969826.7924   20969832.8784
       626.216         487.961
    445694.310 9    347500.86248  20372754.328    20372755.5744   20372761.3074
      -673.673        -524.940
   3357329.805 9   2606021.40646  23354332.041    23354333.4534   23354340.4184
     -2456.971       -1914.523
  -4163588.646 9  -3224715.20048  20817863.476    20817864.8404   20817871.5224
      2477.156        1930.251
  -3041257.001 9  -2357900.17047  22701926.744    22701928.2734   22701934.6164
      1654.261        1289.034
  -2204587.112 9  -1707986.37046  23516961.615    23516962.4334   23516969.7764
      1064.481         829.466
 97  5 14 15 50 29.9990000  0  6  2 27 19  7 26 15                  -0.000154282
  -1155604.699 9   -894222.74848  20966268.832    20966269.8804   20966275.9964
       618.913         482.270
    466161.748 9    363449.49448  20376649.044    20376650.3714   20376656.1954
      -691.692        -538.981
   3431163.454 9   2663554.02747  23368382.155    23368383.5514   23368390.6104
     -2466.156       -1921.680
  -4237678.583 9  -3282447.60148  20803764.678    20803765.9664   20803772.6634
      2461.197        1917.816
  -3090610.132 9  -2396357.16647  22692535.087    22692536.6834   22692543.0404
      1635.052        1274.066
  -2236237.166 9  -1732648.77646  23510938.921    23510939.6824   23510947.0484
      1044.497         813.894
 97  5 14 15 50 59.9990000  0  6  2 27 19  7 26 15                  -0.000165546
  -1174095.769 9   -908631.38048  20962750.040    20962751.1464   20962757.2624
       613.275         477.877
    487144.472 9    379799.64448  20380641.882    20380643.2654   20380649.1244
      -707.657        -551.421
   3505241.466 9   2721277.10746  23382478.932    23382480.2444   23382487.2684
     -2472.854       -1926.899
  -4311310.146 9  -3339822.83148  20789752.965    20789754.3124   20789761.0324
      2446.867        1906.650
  -3139408.108 9  -2434381.58147  22683249.066    22683250.7504   22683257.1134
      1617.668        1260.521
  -2267306.929 9  -1756858.98846  23505026.446    23505027.3684   23505034.6464
      1026.245         799.671
 97  5 14 15 51 29.9990000  0  6  2 27 19  7 26 15                  -0.000176817
  -1192399.929 9   -922894.36848  20959266.934    20959267.9894   20959274.1084
       606.999         472.986
    508622.805 9    396535.98248  20384729.194    20384730.5034   20384736.3504
      -724.253        -564.353
   3579530.153 9   2779164.30547  23396615.552    23396616.8394   23396623.8994
     -2479.767       -1932.286
  -4384484.910 9  -3396842.11248  20775828.182    20775829.5594   20775836.2854
      2431.379        1894.581
  -3187678.324 9  -2471994.74647  22674063.628    22674065.2234   22674071.6534
      1600.316        1246.999
  -2297814.090 9  -1780630.81447  23499221.179    23499222.1284   23499229.2964
      1007.515         785.077
 97  5 14 15 51 59.9990000  0  6  2 27 19  7 26 15                  -0.000188094
  -1210520.837 9   -937014.56448  20955818.630    20955819.7074   20955825.7894
       601.089         468.381
    530595.471 9    413657.51948  20388910.475    20388911.7704   20388917.6334
      -740.383        -576.922
   3654026.840 9   2837213.60046  23410792.004    23410793.2394   23410800.3114
     -2486.794       -1937.762
  -4457183.800 9  -3453490.58348  20761994.122    20761995.4214   20762002.0994
      2415.241        1882.006
  -3235426.958 9  -2509201.50347  22664977.440    22664978.9704   22664985.4274
      1582.902        1233.430
  -2327756.502 9  -1803962.57546  23493523.472    23493524.3034   23493531.4374
       988.679         770.399
 97  5 14 15 52 29.9990000  0  6  2 27 19  7 26 15                  -0.000199362
  -1228447.685 9   -950983.54248  20952407.239    20952408.3464   20952414.4484
       594.711         463.411
    553055.204 9    431158.59548  20393184.520    20393185.7494   20393191.5974
      -756.118        -589.183
   3728752.364 9   2895441.22046  23425011.475    23425013.1344   23425019.9204
     -2494.234       -1943.559
  -4529385.627 9  -3509751.72848  20748254.489    20748255.8704   20748262.5534
      2398.919        1869.288
  -3282642.692 9  -2545993.00747  22655992.328    22655994.0574   22656000.5264
      1565.601        1219.949
  -2357119.644 9  -1826842.95846  23487935.964    23487936.6754   23487943.8434
       969.500         755.455
 97  5 14 15 52 59.9990000  0  6  2 27 19  7 26 15                  -0.000210617
  -1246170.835 9   -964793.79648  20949034.696    20949035.7444   20949041.8594
       587.072         457.459
    575997.757 9    449035.89348  20397550.512    20397551.6774   20397557.4464
      -773.232        -602.518
   3803714.982 9   2953853.55046  23439276.545    23439278.0334   23439284.9304
     -2503.045       -1950.425
  -4601084.375 9  -3565620.86348  20734610.609    20734612.0384   20734618.7234
      2381.220        1855.496
  -3329328.081 9  -2582371.24047  22647108.438    22647110.1274   22647116.5964
      1546.822        1205.316
  -2385895.709 9  -1849265.87346  23482460.163    23482460.7734   23482467.9134
       949.070         739.535
 97  5 14 15 53 29.9990000  0  6  2 27 19  7 26 15                  -0.000221854
  -1263705.386 9   -978457.09348  20945698.015    20945699.0434   20945705.1424
       581.691         453.266
    599420.513 9    467287.37648  20402007.647    20402008.8924   20402014.6614
      -788.547        -614.452
   3878916.138 9   3012451.78746  23453587.054    23453588.4614   23453595.1784
     -2510.682       -1956.376
  -4672284.883 9  -3621101.76548  20721061.701    20721063.0694   20721069.7174
      2365.360        1843.138
  -3375478.959 9  -2618332.99047  22638326.384    22638327.9404   22638334.4194
      1529.591        1191.889
  -2414089.954 9  -1871235.43446  23477094.852    23477095.5694   23477102.6374
       930.256         724.875
 97  5 14 15 53 59.9990000  0  6  2 27 19  7 26 15                  -0.000233068
  -1281075.695 9   -991992.40448  20942392.650    20942393.6074   20942399.6884
       575.122         448.147
    623310.728 9    485903.11748  20406553.816    20406555.0674   20406560.8644
      -805.453        -627.626
   3954360.547 9   3071239.61246  23467943.472    23467945.0404   23467951.5854
     -2519.993       -1963.631
  -4743008.735 9  -3676211.24248  20707603.357    20707604.7674   20707611.4094
      2348.523        1830.018
  -3421099.757 9  -2653881.68347  22629645.060    22629646.6194   22629653.0414
      1510.558        1177.058
  -2441710.328 9  -1892757.80946  23471838.875    23471839.6314   23471846.7304
       909.971         709.068
 97  5 14 15 54 29.9990000  0  6  2 27 19  7 26 15                  -0.000244248
  -1298262.886 9  -1005385.02748  20939121.972    20939123.0344   20939129.0934
       569.953         444.119
    647700.907 9    504908.43848  20411195.139    20411196.4074   20411202.2124
      -821.405        -640.056
   4030062.271 9   3130227.87746  23482349.397    23482350.7784   23482357.3844
     -2527.449       -1969.441
  -4813259.124 9  -3730951.79148  20694235.203    20694236.6044   20694243.2194
      2334.015        1818.713
  -3466165.046 9  -2688997.51347  22621069.386    22621070.9644   22621077.4244
      1493.201        1163.533
  -2468738.188 9  -1913818.49646  23466695.583    23466696.4224   23466703.4874
       891.194         694.437
 97  5 14 15 54 59.9990000  0  6  2 27 19  7 26 15                  -0.000255411
  -1315265.954 9  -1018634.18148  20935886.380    20935887.4364   20935893.4674
       564.012         439.490
    672599.819 9    524310.17648  20415933.294    20415934.5214   20415940.3244
      -838.040        -653.018
   4106007.950 9   3189406.29246  23496801.348    23496802.8574   23496809.4354
     -2535.083       -1975.389
  -4883049.777 9  -3785334.10648  20680954.533    20680955.9084   20680962.5134
      2319.140        1807.122
  -3510685.562 9  -2723688.84548  22612597.658    22612599.0544   22612605.5214
      1475.179        1149.490
  -2495181.526 9  -1934423.73146  23461663.517    23461664.4424   23461671.4714
       872.185         679.625
 97  5 14 15 55 29.9990000  0  6  2 27 19  7 26 15                  -0.000266569
  -1332104.761 9  -1031755.33748  20932682.035    20932683.1354   20932689.1484
       558.329         435.062
    697989.810 9    544094.57148  20420764.869    20420766.0784   20420771.8984
      -854.779        -666.062
   4182175.402 9   3248757.48247  23511295.410    23511297.1094   23511303.7714
     -2542.785       -1981.391
  -4952409.954 9  -3839380.98448  20667755.644    20667757.1214   20667763.6924
      2304.840        1795.979
  -3554671.297 9  -2757963.45348  22604227.468    22604228.8864   22604235.3524
      1457.079        1135.386
  -2521065.644 9  -1954593.17546  23456737.914    23456738.8104   23456745.9074
       853.332         664.934
 97  5 14 15 55 59.9990000  0  6  2 27 19  7 26 15                  -0.000277701
  -1348728.495 9  -1044708.90048  20929518.666    20929519.7464   20929525.7264
       551.744         429.930
    723916.792 9    564297.39548  20425698.637    20425699.8434   20425705.6574
      -871.834        -679.351
   4258598.372 9   3308307.78346  23525838.359    23525839.8474   23525846.5004
     -2550.089       -1987.082
  -5021318.033 9  -3893075.57348  20654642.919    20654644.3634   20654650.9194
      2290.848        1785.076
  -3598078.155 9  -2791787.00348  22595967.207    22595968.8864   22595975.2544
      1438.606        1120.992
  -2546350.942 9  -1974296.01146  23451926.363    23451927.2244   23451934.2284
       834.267         650.078
 97  5 14 15 56 29.9990000  0  6  2 27 19  7 26 15                  -0.000288838
  -1365156.995 9  -1057510.33348  20926392.454    20926393.5204   20926399.4724
       544.399         424.207
    750347.524 9    584892.75448  20430728.112    20430729.4224   20430735.2674
      -889.316        -692.974
   4335226.025 9   3368017.63347  23540420.120    23540421.7764   23540428.3024
     -2557.702       -1993.014
  -5089806.432 9  -3946443.14348  20641609.967    20641611.4534   20641618.0464
      2275.662        1773.243
  -3640934.596 9  -2825181.64648  22587811.872    22587813.6244   22587820.0154
      1419.430        1106.049
  -2571073.526 9  -1993560.38046  23447221.646    23447222.6524   23447229.6114
       814.633         634.779
 97  5 14 15 56 59.9990000  0  6  2 27 19  7 26 15                  -0.000299954
  -1381365.044 9  -1070139.98248  20923308.211    20923309.2544   20923315.2014
       537.494         418.826
    777295.293 9    605891.00548  20435856.072    20435857.3994   20435863.2714
      -905.962        -705.944
   4412084.823 9   3427907.49946  23555046.241    23555047.6124   23555054.3904
     -2565.075       -1998.760
  -5157831.071 9  -3999449.33648  20628665.322    20628666.7694   20628673.4144
      2260.323        1761.291
  -3683211.070 9  -2858124.35348  22579766.908    22579768.6844   22579775.1324
      1400.013        1090.919
  -2595202.805 9  -2012362.43046  23442629.732    23442631.0394   23442638.0114
       795.075         619.539
 97  5 14 15 57 29.9990000  0  6  2 27 19  7 26 15                  -0.000311055
  -1397403.803 9  -1082637.71848  20920256.154    20920257.1974   20920263.1304
       531.197         413.920
    804708.922 9    627252.25848  20441072.807    20441074.0774   20441079.9284
      -922.052        -718.482
   4489132.818 9   3487944.83646  23569707.996    23569709.3194   23569716.1434
     -2571.787       -2003.990
  -5225411.509 9  -4052109.39848  20615805.146    20615806.6244   20615813.2534
      2244.568        1749.014
  -3724929.936 9  -2890632.58548  22571828.246    22571829.8714   22571836.3244
      1380.878        1076.009
  -2618770.950 9  -2030727.21046  23438145.138    23438146.2094   23438153.1894
       775.630         604.387
 97  5 14 15 57 59.9990000  0  6  2 27 19  7 26 15                  -0.000322135
  -1413241.626 9  -1094978.88348  20917242.326    20917243.3854   20917249.3424
       524.143         408.423
    832605.650 9    648989.95648  20446381.368    20446382.6644   20446388.5474
      -938.346        -731.179
   4566382.832 9   3548139.62946  23584408.251    23584409.4944   23584416.3914
     -2578.881       -2009.518
  -5292502.104 9  -4104387.76448  20603038.242    20603039.6834   20603046.3824
      2227.336        1735.586
  -3766071.996 9  -2922691.33548  22563999.077    22564000.7784   22564007.2744
      1361.417        1060.844
  -2641745.796 9  -2048629.68847  23433773.159    23433774.3154   23433781.2244
       755.414         588.634
 97  5 14 15 58 29.9990000  0  6  2 27 19  7 26 15                  -0.000333193
  -1428888.442 9  -1107171.21548  20914264.917    20914265.9084   20914271.8914
       519.227         404.592
    860971.569 9    671093.25548  20451779.262    20451780.5274   20451786.4214
      -952.398        -742.128
   4643835.640 9   3608492.36546  23599146.776    23599148.2524   23599155.4424
     -2584.502       -2013.898
  -5359075.323 9  -4156262.98448  20590369.727    20590371.2284   20590377.9264
      2211.278        1723.074
  -3806648.581 9  -2954309.47048  22556277.505    22556279.3284   22556285.8354
      1343.937        1047.224
  -2664127.761 9  -2066070.19546  23429513.766    23429515.0904   23429522.0834
       736.934         574.234
 97  5 14 15 58 59.9990000  0  6  2 27 19  7 26 15                  -0.000344243
  -1444375.145 9  -1119238.77848  20911317.817    20911318.8904   20911324.9134
       513.456         400.096
    889765.514 9    693530.08548  20457258.554    20457259.8524   20457265.7514
      -966.993        -753.501
   4721469.093 9   3668985.93346  23613920.261    23613921.6354   23613928.5784
     -2590.821       -2018.822
  -5425168.656 9  -4207764.25948  20577792.663    20577794.0784   20577800.7794
      2195.267        1710.598
  -3846695.368 9  -2985514.76648  22548656.916    22548658.6784   22548665.2594
      1326.111        1033.333
  -2685948.817 9  -2083073.62046  23425361.364    23425362.6404   23425369.6784
       718.061         559.528
 97  5 14 15 59 29.9990000  0  6  2 27 19  7 26 15                  -0.000355304
  -1459687.934 9  -1131170.82848  20908403.813    20908404.9564   20908411.0184
       506.811         394.918
    918996.183 9    716307.21348  20462820.946    20462822.2614   20462828.1984
      -982.127        -765.294
   4799289.678 9   3729625.24546  23628728.864    23628730.4174   23628737.4194
     -2597.608       -2024.110
  -5490790.037 9  -4258897.78648  20565305.256    20565306.7254   20565313.4434
      2179.352        1698.196
  -3886224.299 9  -3016316.53648  22541134.853    22541136.5994   22541143.1874
      1308.845        1019.879
  -2707210.203 9  -2099640.92847  23421315.551    23421316.7214   23421323.8714
       698.921         544.614
 97  5 14 15 59 59.9990000  0  6  2 27 19  7 26 15                  -0.000366378
  -1474797.526 9  -1142944.54948  20905528.601    20905529.7074   20905535.7554
       500.201         389.767
    948678.752 9    739436.47348  20468469.334    20468470.6554   20468476.6364
      -997.095        -776.957
   4877318.133 9   3790426.58946  23643577.309    23643578.7624   23643585.7854
     -2604.799       -2029.714
  -5555948.666 9  -4309670.72448  20552905.975    20552907.4614   20552914.2104
      2164.179        1686.373
  -3925237.192 9  -3046716.20648  22533710.821    22533712.7104   22533719.2514
      1291.653        1006.483
  -2727900.163 9  -2115762.98446  23417378.496    23417379.6454   23417386.8014
       680.026         529.890
 97  5 14 16  0 29.9990000  0  6  2 27 19  7 26 15                  -0.000377445
  -1489687.650 9  -1154547.25248  20902695.064    20902696.2254   20902702.2854
       492.882         384.064
    978829.269 9    762930.36348  20474206.819    20474208.1464   20474214.1234
     -1012.708        -789.123
   4955587.662 9   3851415.79746  23658471.386    23658472.9434   23658480.0134
     -2612.856       -2035.992
  -5620642.338 9  -4360081.36048  20540595.194    20540596.6574   20540603.4124
      2149.161        1674.671
  -3963713.697 9  -3076697.90448  22526389.071    22526390.8944   22526397.4154
      1273.694         992.489
  -2748002.629 9  -2131427.25446  23413553.395    23413554.2794   23413561.3774
       660.484         514.663
 97  5 14 16  0 59.9990000  0  6  2 27 19  7 26 15                  -0.000388503
  -1504356.694 9  -1165977.68048  20899903.652    20899904.7684   20899910.8514
       485.056         377.966
   1009461.870 9    786799.90448  20480036.042    20480037.3604   20480043.3434
     -1029.707        -802.369
   5034106.645 8   3912599.35446  23673413.495    23673414.7764   23673421.9344
     -2621.825       -2042.981
  -5684881.950 9  -4410138.18448  20528370.809    20528372.2564   20528378.9794
      2133.165        1662.206
  -4001647.797 9  -3106256.94348  22519170.438    22519172.2714   22519178.8274
      1255.114         978.011
  -2767513.789 9  -2146630.75046  23409840.577    23409841.4584   23409848.5944
       640.036         498.729
 97  5 14 16  1 29.9990000  0  6  2 27 19  7 26 15                  -0.000399561
  -1518834.467 9  -1177259.06348  20897148.633    20897149.7424   20897155.8054
       479.333         373.506
   1040573.707 9    811042.87548  20485956.342    20485957.7484   20485963.7434
     -1045.266        -814.493
   5112855.839 9   3973962.23246  23688398.214    23688400.1074   23688407.5184
     -2628.760       -2048.384
  -5748663.663 9  -4459838.19848  20516233.540    20516234.9904   20516241.6964
      2118.121        1650.484
  -4039057.038 9  -3135406.98148  22512051.653    22512053.5264   22512060.1044
      1237.904         964.601
  -2786442.879 9  -2161380.70846  23406238.646    23406239.4634   23406246.5454
       621.027         483.917
 97  5 14 16  1 59.9990000  0  6  2 27 19  7 26 15                  -0.000410610
  -1533142.058 9  -1188407.84248  20894426.019    20894427.0964   20894433.1364
       474.163         369.478
   1072167.684 9    835661.54048  20491968.587    20491969.9414   20491975.8994
     -1061.541        -827.175
   5191811.505 9   4035486.14146  23703423.551    23703425.1704   23703432.1124
     -2635.451       -2053.598
  -5811980.072 9  -4509175.64348  20504184.811    20504186.2964   20504193.0094
      2102.340        1638.187
  -4075930.249 9  -3164139.35148  22505034.922    22505036.8334   22505043.3754
      1219.834         950.520
  -2804792.865 9  -2175679.42946  23402747.007    23402747.5764   23402754.5714
       601.819         468.950
 97  5 14 16  2 29.9990000  0  6  2 27 19  7 26 15                  -0.000421632
  -1547281.018 9  -1199425.22148  20891735.415    20891736.5694   20891742.5634
       468.545         365.100
   1104277.142 9    860681.87348  20498078.797    20498080.1904   20498086.1274
     -1079.075        -840.838
   5270992.760 8   4097185.73446  23718491.341    23718492.8344   23718499.9724
     -2642.989       -2059.472
  -5874792.121 9  -4558120.08148  20492232.066    20492233.5844   20492240.2824
      2085.237        1624.860
  -4112237.158 9  -3192430.43348  22498126.080    22498127.8934   22498134.4604
      1200.704         935.614
  -2822543.640 9  -2189511.19547  23399368.846    23399369.7714   23399376.8244
       581.611         453.203
 97  5 14 16  2 59.9990000  0  6  2 27 19  7 26 15                  -0.000432642
  -1561277.837 9  -1210331.84048  20889071.970    20889073.1134   20889079.0484
       464.848         362.219
   1136893.396 9    886097.11048  20504285.463    20504286.8644   20504292.8184
     -1094.937        -853.198
   5350362.715 9   4159032.36746  23733594.851    23733596.5354   23733603.6894
     -2647.911       -2063.307
  -5937113.106 9  -4606681.87048  20480372.790    20480374.2814   20480380.9794
      2069.873        1612.888
  -4147996.863 9  -3220295.15048  22491321.344    22491323.0804   22491329.6614
      1183.583         922.272
  -2839712.798 9  -2202889.76746  23396101.489    23396102.5874   23396109.7564
       563.238         438.887
 97  5 14 16  3 29.9990000  0  6  2 27 19  7 26 15                  -0.000443645
  -1575136.370 9  -1221130.70148  20886434.710    20886435.9414   20886441.8694
       459.638         358.159
   1170002.068 9    911896.04648  20510585.897    20510587.2554   20510593.1684
     -1111.493        -866.098
   5429901.096 9   4221010.26246  23748730.772    23748732.3204   23748739.5104
     -2653.895       -2067.970
  -5998957.366 9  -4654872.18648  20468604.184    20468605.6944   20468612.3894
      2053.865        1600.414
  -4183208.986 9  -3247733.22648  22484620.663    22484622.4464   22484629.0104
      1164.602         907.482
  -2856306.297 9  -2215819.77046  23392943.621    23392944.8654   23392952.1494
       543.658         423.630
 97  5 14 16  3 59.9990000  0  6  2 27 19  7 26 15                  -0.000454619
  -1588823.894 9  -1231796.31648  20883830.087    20883831.3024   20883837.2214
       453.521         353.393
   1203611.397 9    938085.10348  20516981.501    20516982.9144   20516988.8114
     -1128.435        -879.300
   5509635.728 8   4283141.13946  23763903.602    23763905.2784   23763912.3784
     -2661.351       -2073.780
  -6060318.808 9  -4702686.28148  20456927.394    20456928.9434   20456935.6624
      2037.525        1587.682
  -4217840.271 9  -3274718.68048  22478030.494    22478032.3344   22478038.9194
      1144.776         892.033
  -2872304.590 9  -2228285.98447  23389899.492    23389900.4194   23389907.7114
       523.450         407.883
 97  5 14 16  4 29.9990000  0  6  2 27 19  7 26 15                  -0.000465572
  -1602361.690 9  -1242345.25248  20881253.906    20881255.1694   20881261.0954
       448.774         349.694
   1237676.254 9    964629.12548  20523463.674    20523465.2414   20523471.1934
     -1142.562        -890.308
   5589559.896 9   4345419.65046  23779112.540    23779114.3544   23779121.5944
     -2666.770       -2078.003
  -6121235.378 9  -4750153.72348  20445335.333    20445336.8994   20445343.6024
      2023.591        1576.824
  -4251916.162 9  -3301271.34148  22471546.026    22471547.9144   22471554.5014
      1127.015         878.194
  -2887735.796 9  -2240310.29347  23386962.660    23386963.9804   23386971.2714
       505.194         393.658
 97  5 14 16  4 59.9990000  0  6  2 27 19  7 26 15                  -0.000476512
  -1615720.332 9  -1252754.59648  20878711.817    20878713.1224   20878719.0854
       441.835         344.287
   1272186.945 9    991520.54448  20530030.774    20530032.4144   20530038.3754
     -1158.126        -902.436
   5669664.859 9   4407839.06946  23794355.972    23794357.9354   23794364.9654
     -2673.565       -2083.297
  -6181713.155 9  -4797279.24748  20433826.624    20433828.3454   20433835.0364
      2008.172        1564.809
  -4285434.685 9  -3327389.69748  22465167.534    22465169.5544   22465176.1294
      1107.642         863.098
  -2902591.670 9  -2251886.31447  23384135.663    23384136.9874   23384144.2834
       485.226         378.098
 97  5 14 16  5 29.9990000  0  6  2 27 19  7 26 15                  -0.000487425
  -1628871.690 9  -1263002.41548  20876209.155    20876210.5004   20876216.4784
       435.787         339.574
   1307152.745 9   1018766.59048  20536684.626    20536686.2074   20536692.1654
     -1172.116        -913.337
   5749974.467 9   4470417.90246  23809638.579    23809640.4284   23809647.6754
     -2679.405       -2087.848
  -6241725.371 9  -4844041.99448  20422406.595    20422408.3824   20422415.0984
      1993.374        1553.278
  -4318374.026 9  -3353056.73548  22458899.307    22458901.3884   22458907.9954
      1089.338         848.835
  -2916852.430 9  -2262998.59547  23381422.126    23381423.3824   23381430.5954
       466.305         363.355
 97  5 14 16  5 59.9990000  0  6  2 27 19  7 26 15                  -0.000498345
  -1641845.895 9  -1273112.19348  20873740.325    20873741.5844   20873747.6114
       429.725         334.851
   1342541.055 9   1046341.86748  20543418.887    20543420.3434   20543426.3744
     -1186.603        -924.626
   5830452.218 8   4533127.78346  23824952.923    23824954.7994   23824962.0224
     -2685.229       -2092.386
  -6301289.559 9  -4890455.63748  20411071.874    20411073.6674   20411080.3544
      1978.090        1541.369
  -4350781.154 9  -3378309.05348  22452732.548    22452734.5364   22452741.1334
      1071.813         835.179
  -2930550.107 9  -2273672.10847  23378815.375    23378816.7384   23378823.8974
       447.415         348.635
 97  5 14 16  6 29.9990000  0  6  2 27 19  7 26 15                  -0.000509279
  -1654623.636 9  -1283068.87848  20871308.752    20871310.0254   20871316.1544
       422.427         329.164
   1378374.699 9   1074264.16348  20550237.815    20550239.2694   20550245.3414
     -1202.025        -936.643
   5911105.216 9   4595974.19746  23840300.533    23840302.4704   23840309.7504
     -2691.199       -2097.038
  -6360385.912 9  -4936504.72448  20399826.228    20399827.9974   20399834.6534
      1961.964        1528.803
  -4382660.344 9  -3403149.97148  22446666.195    22446668.1584   22446674.7284
      1053.951         821.261
  -2943668.286 9  -2283894.06447  23376318.990    23376320.4684   23376327.7104
       427.489         333.108
 97  5 14 16  6 59.9990000  0  6  2 27 19  7 26 15                  -0.000520240
  -1667192.938 9  -1292863.14748  20868916.751    20868918.1494   20868924.3144
       415.452         323.729
   1414667.485 9   1102544.22148  20557144.075    20557145.5774   20557151.6534
     -1217.841        -948.967
   5991923.793 9   4658949.76146  23855680.189    23855682.0314   23855689.0614
     -2697.122       -2101.653
  -6419003.777 9  -4982180.97248  20388671.673    20388673.4104   20388680.0464
      1945.524        1515.993
  -4414021.709 9  -3427587.40548  22440698.354    22440700.3284   22440706.8494
      1036.510         807.670
  -2956200.075 9  -2293659.08947  23373934.359    23373935.6454   23373943.0584
       407.720         317.704
 97  5 14 16  7 29.9990000  0  6  2 27 19  7 26 15                  -0.000531235
  -1679588.575 9  -1302522.09048  20866557.981    20866559.3324   20866565.5464
       410.070         319.535
   1451410.172 9   1131174.86348  20564136.005    20564137.4654   20564143.5854
     -1232.678        -960.528
   6072905.132 9   4722052.02246  23871090.521    23871092.3504   23871099.6224
     -2702.531       -2105.868
  -6477149.726 9  -5027489.49148  20377606.940    20377608.6104   20377615.1994
      1930.058        1503.941
  -4444887.861 9  -3451638.97448  22434824.750    22434826.7064   22434833.2244
      1020.288         795.030
  -2968161.800 9  -2302979.91647  23371658.177    23371659.4404   23371666.8744
       388.822         302.978
 97  5 14 16  7 59.9990000  0  6  2 27 19  7 26 15                  -0.000542270
  -1691844.957 9  -1312072.52948  20864225.646    20864227.0174   20864233.2934
       406.107         316.447
   1488592.202 9   1160147.84048  20571211.542    20571212.9894   20571219.1324
     -1247.128        -971.788
   6154036.471 9   4785271.17546  23886528.936    23886531.1314   23886538.4544
     -2707.187       -2109.496
  -6534851.149 9  -5072451.62648  20366626.754    20366628.4244   20366634.9834
      1915.780        1492.816
  -4475283.134 9  -3475323.62648  22429040.714    22429042.7054   22429049.2744
      1004.969         783.093
  -2979573.128 9  -2311871.87147  23369486.415    23369487.9054   23369495.4174
       370.993         289.085
 97  5 14 16  8 29.9990000  0  6  2 27 19  7 26 15                  -0.000553326
  -1703962.762 9  -1321514.98248  20861919.744    20861921.0634   20861927.3864
       401.027         312.488
   1526228.555 9   1189474.83848  20578373.521    20578374.9904   20578381.1384
     -1262.723        -983.940
   6235329.214 9   4848616.19146  23901998.478    23902000.6894   23902008.0564
     -2712.935       -2113.975
  -6592106.829 9  -5117066.43148  20355731.304    20355733.0384   20355739.6264
      1900.504        1480.912
  -4505184.832 9  -3498623.67248  22423350.729    22423352.6484   22423359.1824
       987.674         769.616
  -2990427.283 9  -2320329.64447  23367421.026    23367422.5094   23367429.9464
       351.881         274.193
 97  5 14 16  8 59.9990000  0  6  2 27 19  7 26 15                  -0.000564384
  -1715930.294 9  -1330840.33648  20859642.369    20859643.7374   20859650.0424
       397.314         309.595
   1564339.102 9   1219171.34248  20585625.630    20585627.1754   20585633.4024
     -1277.596        -995.529
   6316791.831 9   4912093.52346  23917500.708    23917502.5954   23917509.9904
     -2717.548       -2117.570
  -6648897.071 9  -5161318.55648  20344924.464    20344926.2324   20344932.8284
      1885.965        1469.583
  -4534560.905 9  -3521514.12148  22417760.715    22417762.5724   22417769.0814
       971.040         756.654
  -3000705.757 9  -2328338.85447  23365465.335    23365466.5374   23365474.0314
       333.795         260.100
 97  5 14 16  9 29.9990000  0  6  2 27 19  7 26 15                  -0.000575430
  -1727753.418 9  -1340053.16948  20857392.490    20857393.8704   20857400.1934
       390.962         304.646
   1602936.830 9   1249247.46948  20592970.510    20592972.0704   20592978.3224
     -1295.345       -1009.360
   6398430.073 9   4975707.67846  23933035.979    23933037.7934   23933045.2774
     -2724.758       -2123.188
  -6705217.714 9  -5205204.75848  20334206.997    20334208.7634   20334215.3804
      1869.011        1456.372
  -4563391.604 9  -3543979.62448  22412274.515    22412276.3504   22412282.8304
       951.159         741.163
  -3010405.277 9  -2335896.92246  23363619.586    23363620.7774   23363628.2504
       313.025         243.916
 97  5 14 16  9 59.9990000  0  6  2 27 19  7 26 15                  -0.000586450
  -1739403.285 9  -1349130.99448  20855175.608    20855177.0054   20855183.3144
       385.500         300.390
   1642043.158 9   1279719.90148  20600412.263    20600413.8164   20600420.0544
     -1311.675       -1022.084
   6480255.773 8   5039468.05546  23948606.940    23948608.8134   23948615.7144
     -2730.356       -2127.550
  -6761055.433 9  -5248714.65648  20323581.392    20323583.1924   20323589.8264
      1853.393        1444.202
  -4591643.838 9  -3565994.36348  22406898.234    22406900.1154   22406906.6754
       932.319         726.482
  -3019508.217 9  -2342990.13847  23361886.944    23361888.5524   23361895.9854
       293.757         228.901
 97  5 14 16 10 29.9990000  0  6  2 27 19  7 26 15                  -0.000597448
  -1750861.826 9  -1358059.73548  20852995.140    20852996.5174   20853002.8204
       378.993         295.319
   1681647.310 9   1310580.25648  20607948.770    20607950.2424   20607956.5564
     -1327.849       -1034.688
   6562265.784 9   5103371.79146  23964212.687    23964214.5944   23964221.8394
     -2736.346       -2132.218
  -6816405.598 9  -5291844.64148  20313048.579    20313050.3874   20313057.0584
      1837.205        1431.588
  -4619317.861 9  -3587558.55748  22401632.123    22401633.8924   22401640.4894
       913.365         711.713
  -3028015.115 9  -2349618.89946  23360268.399    23360269.7474   23360277.1624
       273.957         213.473
 97  5 14 16 10 59.9990000  0  6  2 27 19  7 26 15                  -0.000608433
  -1762123.231 9  -1366834.87448  20850852.229    20850853.5324   20850859.8234
       372.137         289.977
   1721738.748 9   1341820.31048  20615577.862    20615579.3934   20615585.7724
     -1344.525       -1047.682
   6644461.025 9   5167420.03846  23979854.154    23979856.0354   23979863.0954
     -2743.120       -2137.496
  -6871263.393 9  -5334590.96948  20302609.449    20302611.2944   20302617.9414
      1820.355        1418.458
  -4646425.922 9  -3608681.74348  22396473.548    22396475.3874   22396481.9404
       894.091         696.694
  -3035926.217 9  -2355783.40146  23358763.060    23358764.2774   23358771.7094
       253.747         197.725
 97  5 14 16 11 29.9990000  0  6  2 27 19  7 26 15                  -0.000619410
  -1773205.451 9  -1375470.38548  20848743.349    20848744.6784   20848750.9394
       367.058         286.019
   1762295.045 9   1373422.59048  20623295.542    20623297.0664   20623303.4184
     -1358.597       -1058.647
   6726841.629 8   5231612.75345  23995530.352    23995532.3074   23995539.4174
     -2748.224       -2141.473
  -6925647.311 9  -5376968.03648  20292260.575    20292262.3584   20292268.9974
      1805.792        1407.111
  -4672985.182 9  -3629377.29448  22391419.359    22391421.3464   22391427.8544
       877.167         683.507
  -3043256.607 9  -2361495.40747  23357368.089    23357369.3624   23357376.8394
       235.443         183.462
 97  5 14 16 11 59.9990000  0  6  2 27 19  7 26 15                  -0.000630405
  -1784122.182 9  -1383976.93848  20846666.003    20846667.3314   20846673.5784
       359.936         280.470
   1803273.102 9   1405353.52248  20631093.489    20631094.9654   20631101.3314
     -1374.196       -1070.802
   6809379.818 8   5295928.12546  24011236.849    24011238.7754   24011246.0744
     -2754.981       -2146.738
  -6979589.574 9  -5419000.95848  20281995.727    20281997.4294   20282004.0874
      1789.495        1394.412
  -4699039.080 9  -3649679.05248  22386461.536    22386463.4794   22386469.9504
       858.971         669.328
  -3050032.966 9  -2366775.70047  23356078.967    23356079.8824   23356087.3244
       215.419         167.859
 97  5 14 16 12 29.9990000  0  6  2 27 19  7 26 15                  -0.000641413
  -1794853.939 9  -1392339.35748  20844623.894    20844625.1464   20844631.4194
       355.278         276.840
   1844697.310 9   1437632.10348  20638976.217    20638977.7454   20638984.1574
     -1387.755       -1081.368
   6892086.934 8   5360375.18746  24026975.308    24026977.4974   24026984.9674
     -2759.104       -2149.951
  -7033068.460 9  -5460672.80948  20271818.951    20271820.6984   20271827.3724
      1775.346        1383.386
  -4724570.848 9  -3669573.94548  22381602.955    22381604.9674   22381611.4474
       842.683         656.636
  -3056231.046 9  -2371605.37447  23354899.271    23354900.3954   23354907.9084
       197.322         153.757
 97  5 14 16 12 59.9990000  0  6  2 27 19  7 26 15                  -0.000652423
  -1805428.176 9  -1400579.03148  20842611.608    20842612.9424   20842619.1844
       349.174         272.084
   1886557.664 9   1470250.53648  20646942.163    20646943.5634   20646949.9604
     -1403.528       -1093.658
   6974942.716 8   5424938.06745  24042741.887    24042744.0934   24042751.9084
     -2765.018       -2154.559
  -7086101.402 9  -5501997.17148  20261727.116    20261728.8384   20261735.4894
      1759.591        1371.110
  -4749574.884 9  -3689057.64448  22376844.843    22376846.9044   22376853.4434
       823.726         641.864
  -3061857.531 9  -2375989.66347  23353828.472    23353829.7574   23353837.1984
       177.293         138.150
 97  5 14 16 13 29.9990000  0  6  2 27 19  7 26 15                  -0.000663433
  -1815854.042 9  -1408703.09348  20840627.601    20840628.9584   20840635.1934
       345.223         269.005
   1928856.837 9   1503210.90648  20654991.440    20654992.8274   20654999.2434
     -1417.229       -1104.334
   7057932.668 9   5489605.58446  24058534.485    24058536.7154   24058544.2234
     -2768.263       -2157.088
  -7138691.979 9  -5542976.83248  20251719.372    20251721.1284   20251727.8024
      1745.610        1360.216
  -4774048.167 9  -3708127.78048  22372187.916    22372189.8454   22372196.4014
       807.138         628.939
  -3066917.550 9  -2379932.53847  23352865.664    23352866.8604   23352874.2464
       159.317         124.143
 97  5 14 16 13 59.9990000  0  6  2 27 19  7 26 15                  -0.000674449
  -1826143.057 9  -1416720.52148  20838669.693    20838671.0284   20838677.2844
       340.500         265.325
   1971600.262 9   1536517.45148  20663125.045    20663126.5904   20663133.0334
     -1432.548       -1116.271
   7141042.894 8   5554366.70246  24074350.047    24074352.0934   24074359.9104
     -2772.692       -2160.539
  -7190826.087 9  -5583600.80448  20241798.516    20241800.3234   20241807.0104
      1729.665        1347.791
  -4797987.179 9  -3726781.58148  22367632.255    22367634.4594   22367640.9754
       788.426         614.358
  -3071412.093 9  -2383434.80847  23352010.085    23352011.6064   23352019.0064
       139.992         109.085
 97  5 14 16 14 29.9990000  0  6  2 27 19  7 26 15                  -0.000685447
  -1836305.890 9  -1424639.62348  20836735.761    20836737.1314   20836743.3864
       336.559         262.254
   2014786.487 9   1570169.03148  20671343.103    20671344.6934   20671351.0834
     -1446.892       -1127.448
   7224286.594 9   5619231.77846  24090190.901    24090192.8274   24090200.6084
     -2777.374       -2164.188
  -7242479.880 9  -5623850.50348  20231969.176    20231970.9514   20231977.6354
      1713.517        1335.208
  -4821366.451 9  -3744999.20948  22363183.485    22363185.5504   22363192.0554
       769.927         599.943
  -3075332.734 9  -2386489.86746  23351264.213    23351265.5904   23351272.8134
       120.942          94.241
 97  5 14 16 14 59.9990000  0  6  2 27 19  7 26 15                  -0.000696425
  -1846332.615 9  -1432452.66848  20834827.705    20834829.1144   20834835.3514
       331.466         258.285
   2058417.019 9   1604166.82948  20679645.704    20679647.2944   20679653.6814
     -1462.220       -1139.392
   7307687.809 8   5684219.81946  24106062.039    24106063.7284   24106071.1054
     -2782.992       -2168.565
  -7293633.912 9  -5663710.77848  20222234.854    20222236.6464   20222243.3644
      1696.446        1321.906
  -4844186.493 9  -3762781.08848  22358840.901    22358843.0184   22358849.5584
       751.324         585.447
  -3078670.439 9  -2389090.70146  23350629.356    23350630.4744   23350637.6524
       101.220          78.873
 97  5 14 16 15 29.9990000  0  6  2 27 19  7 26 15                  -0.000707398
  -1856197.556 9  -1440139.64648  20832950.508    20832951.8904   20832958.1694
       326.756         254.615
   2102504.294 9   1638520.53248  20688035.131    20688036.8094   20688043.2264
     -1476.209       -1150.293
   7391261.401 8   5749342.04346  24121965.290    24121967.1124   24121974.9994
     -2787.929       -2172.412
  -7344273.304 9  -5703170.03648  20212598.464    20212600.3284   20212607.0524
      1680.288        1309.315
  -4866462.188 9  -3780138.80548  22354601.942    22354604.1034   22354610.6734
       734.318         572.196
  -3081413.587 9  -2391228.25146  23350107.036    23350108.4304   23350115.6604
        82.222          64.069
 97  5 14 16 15 59.9990000  0  6  2 27 19  7 26 15                  -0.000718389
  -1865922.924 9  -1447717.87048  20831099.839    20831101.2234   20831107.5334
       321.836         250.781
   2146992.381 9   1673186.55148  20696501.025    20696502.6564   20696509.0364
     -1489.263       -1160.465
   7474973.194 9   5814571.89046  24137894.663    24137897.0374   24137905.0864
     -2792.515       -2175.986
  -7394450.984 9  -5742269.52248  20203049.913    20203051.8264   20203058.5744
      1665.408        1297.721
  -4888233.661 9  -3797103.60848  22350459.045    22350461.1214   22350467.7534
       717.553         559.132
  -3083596.203 9  -2392929.00547  23349691.473    23349693.1264   23349700.2694
        63.632          49.583
 97  5 14 16 16 29.9990000  0  6  2 27 19  7 26 15                  -0.000729405
  -1875490.253 9  -1455172.94048  20829279.189    20829280.6264   20829286.9904
       315.594         245.917
   2191873.340 9   1708158.71448  20705041.543    20705043.2444   20705049.6374
     -1503.255       -1171.368
   7558818.525 9   5879905.86746  24153850.429    24153852.5154   24153860.3974
     -2797.440       -2179.823
  -7444194.570 9  -5781030.74848  20193583.950    20193585.9294   20193592.6764
      1650.576        1286.163
  -4909512.338 9  -3813684.41448  22346409.958    22346411.9514   22346418.5834
       700.738         546.030
  -3085220.123 9  -2394194.40946  23349382.156    23349384.0814   23349391.2374
        44.269          34.495
 97  5 14 16 16 59.9990000  0  6  2 27 19  7 26 15                  -0.000740457
  -1884873.002 9  -1462484.18448  20827493.668    20827495.1514   20827501.5704
       309.475         241.149
   2237167.439 9   1743452.79248  20713660.642    20713662.3874   20713668.8354
     -1516.966       -1182.051
   7642787.599 8   5945336.29145  24169829.272    24169831.2304   24169839.0844
     -2801.047       -2182.634
  -7493516.095 9  -5819463.10148  20184198.322    20184200.3474   20184207.1014
      1636.978        1275.567
  -4930302.043 9  -3829884.20448  22342453.867    22342455.8404   22342462.5594
       684.556         533.420
  -3086277.763 9  -2395018.56746  23349180.802    23349182.8574   23349189.9444
        25.587          19.938
 97  5 14 16 17 29.9990000  0  6  2 27 19  7 26 15                  -0.000751534
  -1894066.658 9  -1469648.08648  20825744.110    20825745.6344   20825752.0754
       303.098         236.180
   2282883.021 9   1779075.30348  20722360.072    20722361.7894   20722368.2684
     -1531.177       -1193.125
   7726866.378 9   6010852.14346  24185829.140    24185831.1154   24185838.6434
     -2804.728       -2185.502
  -7542422.635 9  -5857572.08948  20174891.693    20174893.7354   20174900.4864
      1622.824        1264.538
  -4950586.042 9  -3845689.94448  22338593.911    22338595.9794   22338602.7254
       667.130         519.841
  -3086766.342 9  -2395399.30246  23349088.039    23349089.7954   23349097.0274
         6.511           5.074
 97  5 14 16 17 59.9990000  0  6  2 27 19  7 26 15                  -0.000762623
  -1903079.920 9  -1476671.42148  20824028.950    20824030.4734   20824036.9204
       297.930         232.153
   2329027.769 9   1815032.22448  20731141.151    20731142.8364   20731149.3464
     -1545.208       -1204.058
   7811052.693 9   6076451.79846  24201849.195    24201851.3794   24201858.9934
     -2807.798       -2187.894
  -7590903.485 9  -5895349.36848  20165666.197    20165668.1384   20165674.8674
      1609.190        1253.914
  -4970340.587 9  -3861083.11348  22334834.749    22334836.8344   22334843.5754
       650.012         506.503
  -3086687.871 9  -2395338.17146  23349103.066    23349104.7614   23349111.8894
       -11.690          -9.109
 97  5 14 16 18 29.9990000  0  6  2 27 19  7 26 15                  -0.000773721
  -1911922.850 9  -1483562.02948  20822346.230    20822347.7514   20822354.2224
       292.050         227.571
   2375623.504 9   1851340.57348  20740008.057    20740009.7224   20740016.2404
     -1560.748       -1216.167
   7895358.515 8   6142144.57545  24217891.927    24217894.3234   24217901.9694
     -2812.199       -2191.324
  -7638944.097 9  -5932783.60448  20156524.393    20156526.3514   20156533.0624
      1593.742        1241.877
  -4989569.054 9  -3876066.36248  22331175.723    22331177.8034   22331184.5074
       632.247         492.660
  -3086045.165 9  -2394837.38046  23349225.394    23349227.0114   23349234.1594
       -30.810         -24.008
 97  5 14 16 18 59.9990000  0  6  2 27 19  7 26 15                  -0.000784817
  -1920584.936 9  -1490311.72248  20820698.020    20820699.4804   20820705.9074
       286.179         222.997
   2422694.853 9   1888019.52848  20748965.551    20748967.1574   20748973.6284
     -1576.702       -1228.599
   7979805.883 8   6207947.65545  24233961.849    24233964.0684   24233971.6474
     -2817.110       -2195.151
  -7686503.372 9  -5969842.77148  20147474.185    20147476.1334   20147482.8024
      1577.441        1229.175
  -5008253.941 9  -3890626.05848  22327620.112    22327622.2204   22327628.8674
       614.083         478.506
  -3084819.251 9  -2393882.12446  23349458.669    23349460.2494   23349467.4814
       -50.320         -39.210
 97  5 14 16 19 29.9990000  0  6  2 27 19  7 26 15                  -0.000795916
  -1929098.556 9  -1496945.72848  20819077.993    20819079.4474   20819085.8224
       281.430         219.296
   2470225.595 9   1925056.44848  20758010.282    20758011.9814   20758018.4174
     -1591.775       -1240.344
   8064388.600 9   6273856.19446  24250057.445    24250059.8454   24250067.3794
     -2821.805       -2198.809
  -7733587.209 9  -6006531.47548  20138514.466    20138516.3654   20138522.9964
      1561.498        1216.752
  -5026411.678 9  -3904774.98448  22324164.880    22324167.0034   22324173.5594
       596.588         464.874
  -3083027.805 9  -2392486.21447  23349799.745    23349801.1614   23349808.4164
       -69.046         -53.802
 97  5 14 16 19 59.9990000  0  6  2 27 19  7 26 15                  -0.000807025
  -1937478.466 9  -1503475.54148  20817483.428    20817484.8644   20817491.1814
       277.310         216.086
   2518190.562 9   1962431.73048  20767137.759    20767139.4244   20767145.8744
     -1605.642       -1251.150
   8149111.706 8   6339874.10446  24266180.009    24266182.1864   24266189.7414
     -2826.277       -2202.294
  -7780201.255 9  -6042854.10448  20129644.104    20129646.0074   20129652.6684
      1546.383        1204.974
  -5044060.163 9  -3918527.07648  22320806.492    22320808.6144   22320815.1804
       580.248         452.141
  -3080682.654 9  -2390658.84347  23350245.977    23350247.4074   23350254.7304
       -87.144         -67.904
 97  5 14 16 20 29.9990000  0  6  2 27 19  7 26 15                  -0.000818148
  -1945719.901 9  -1509897.45448  20815915.187    20815916.6104   20815922.9024
       272.539         212.368
   2566578.479 9   2000136.58248  20776345.770    20776347.3714   20776353.8494
     -1619.782       -1262.168
   8233975.064 8   6406001.28545  24282329.290    24282331.1084   24282338.4654
     -2830.768       -2205.793
  -7826350.480 9  -6078814.53148  20120862.193    20120864.1234   20120870.7904
      1530.575        1192.656
  -5061207.730 9  -3931888.86048  22317543.414    22317545.5704   22317552.1454
       563.211         438.866
  -3077781.632 9  -2388398.30147  23350798.108    23350799.5524   23350806.7784
      -105.941         -82.551
 97  5 14 16 20 59.9990000  0  6  2 27 19  7 26 15                  -0.000829280
  -1953831.489 9  -1516218.18848  20814371.642    20814373.0744   20814379.3154
       267.286         208.275
   2615374.942 9   2038159.77948  20785631.428    20785633.0784   20785639.5374
     -1634.229       -1273.425
   8318960.881 8   6472224.04645  24298501.177    24298503.4034   24298510.2744
     -2835.853       -2209.756
  -7872034.492 9  -6114412.45848  20112168.844    20112170.7524   20112177.3914
      1514.185        1179.884
  -5077840.070 9  -3944849.18148  22314378.569    22314380.5514   22314387.1434
       544.670         424.418
  -3074322.332 9  -2385702.75246  23351456.561    23351457.9644   23351465.0864
      -125.522         -97.809
 97  5 14 16 21 29.9990000  0  6  2 27 19  7 26 15                  -0.000840404
  -1961784.011 9  -1522414.97448  20812858.376    20812859.7884   20812866.0334
       262.509         204.552
   2664594.201 9   2076512.43048  20794997.561    20794999.2264   20795005.6524
     -1647.369       -1283.664
   8404096.557 8   6538563.49145  24314701.835    24314704.2294   24314711.2704
     -2840.096       -2213.062
  -7917233.489 9  -6149632.45348  20103567.752    20103569.6584   20103576.2964
      1498.768        1167.871
  -5093909.906 9  -3957371.17248  22311320.441    22311322.5714   22311329.2214
       526.411         410.190
  -3070280.544 9  -2382553.32146  23352225.726    23352227.0474   23352234.2224
      -144.234        -112.390
 97  5 14 16 21 59.9990000  0  6  2 27 19  7 26 15                  -0.000851502
  -1969573.002 9  -1528484.32848  20811376.146    20811377.5724   20811383.8504
       257.674         200.785
   2714227.713 9   2115187.87348  20804442.561    20804444.2334   20804450.6324
     -1660.774       -1294.110
   8489375.946 8   6605014.79746  24330929.799    24330932.2454   24330939.8254
     -2844.113       -2216.192
  -7961952.547 9  -6184478.46948  20095057.949    20095059.8664   20095066.5444
      1483.513        1155.984
  -5109415.861 9  -3969453.76648  22308369.710    22308371.9054   22308378.5874
       508.323         396.096
  -3065656.766 9  -2378950.38246  23353105.666    23353106.9134   23353114.1134
      -163.049        -127.051
 97  5 14 16 22 29.9990000  0  6  2 27 19  7 26 15                  -0.000862604
  -1977226.190 9  -1534447.86348  20809919.846    20809921.2374   20809927.5154
       252.028         196.385
   2764261.200 9   2154174.99548  20813963.600    20813965.3374   20813971.7454
     -1675.390       -1305.499
   8574754.539 8   6671543.44046  24347177.172    24347179.4054   24347187.0064
     -2848.444       -2219.567
  -8006230.401 9  -6218980.69048  20086632.176    20086634.1034   20086640.7684
      1467.687        1143.652
  -5124393.543 9  -3981124.72348  22305519.532    22305521.7774   22305528.4994
       489.661         381.554
  -3060483.925 9  -2374919.61846  23354089.894    23354091.2734   23354098.5144
      -182.397        -142.127
 97  5 14 16 22 59.9990000  0  6  2 27 19  7 26 15                  -0.000873699
  -1984723.807 9  -1540290.17748  20808493.026    20808494.4784   20808500.7594
       246.904         192.393
   2814718.582 9   2193492.41948  20823565.285    20823567.0524   20823573.4374
     -1689.180       -1316.244
   8660251.376 8   6738164.24145  24363447.088    24363448.9704   24363456.6384
     -2851.967       -2222.312
  -8050052.123 9  -6253127.48548  20078293.218    20078295.1514   20078301.7964
      1453.040        1132.239
  -5138830.173 9  -3992374.08148  22302772.488    22302774.6444   22302781.3844
       472.181         367.933
  -3054749.956 9  -2370451.60446  23355181.171    23355182.5084   23355189.5804
      -200.638        -156.341
 97  5 14 16 23 29.9990000  0  7  9  2 27 19  7 26 15               -0.000884799
  -2656628.66619  -1769306.38555  24873870.975    24873873.5855   24873882.1325
      3946.478        3075.178
  -1992033.012 9  -1545985.67248  20807102.114    20807103.5874   20807109.8584
       240.702         187.560
   2865618.694 9   2233154.83148  20833251.336    20833253.0454   20833259.3334
     -1703.977       -1327.774
   8745885.340 8   6804892.17645  24379742.153    24379744.2124   24379750.3894
     -2856.531       -2225.868
  -8093415.089 9  -6286916.80748  20070041.588    20070043.4824   20070050.1214
      1438.020        1120.535
  -5152733.584 9  -4003207.93948  22300126.790    22300128.9184   22300135.6754
       455.144         354.658
  -3048439.899 9  -2365534.69846  23356381.756    23356383.2264   23356390.2754
      -219.787        -171.263
 97  5 14 16 23 59.9990000  0  7  9  2 27 19  7 26 15               -0.000895908
  -2775001.957 8  -1861545.33845  24851345.582    24851347.6564   24851356.3094
      3945.841        3074.681
  -1999149.615 9  -1551531.08648  20805747.861    20805749.3404   20805755.6284
       234.357         182.616
   2916975.246 9   2273172.91148  20843024.195    20843025.9284   20843032.1454
     -1719.068       -1339.534
   8831662.287 8   6871731.17645  24396065.050    24396066.8014   24396074.5784
     -2861.108       -2229.435
  -8136317.661 9  -6320347.37848  20061877.547    20061879.4174   20061886.0454
      1422.894        1108.749
  -5166125.995 9  -4013643.62448  22297578.326    22297580.4814   22297587.1844
       438.371         341.588
  -3041550.345 9  -2360166.24646  23357692.843    23357694.3054   23357701.4184
      -238.790        -186.070
 97  5 14 16 24 29.9990000  0  7  9  2 27 19  7 26 15               -0.000907042
  -2893367.324 8  -1953778.13345  24828821.721    24828823.6014   24828832.2044
      3945.340        3074.291
  -2006077.343 9  -1556929.32948  20804429.630    20804431.0404   20804437.3524
       227.812         177.516
   2968772.192 9   2313534.15648  20852880.922    20852882.5404   20852888.8244
     -1733.742       -1350.968
   8917562.564 9   6938666.28846  24412411.963    24412413.5244   24412421.0714
     -2865.362       -2232.750
  -8178775.384 9  -6353431.31148  20053798.161    20053799.9844   20053806.6254
      1407.620        1096.847
  -5179021.537 9  -4023692.13748  22295124.528    22295126.5554   22295133.2574
       421.527         328.463
  -3034100.331 9  -2354361.05846  23359110.597    23359112.0454   23359119.0364
      -257.724        -200.824
 97  5 14 16 24 59.9990000  0  7  9  2 27 19  7 26 15               -0.000918195
  -3011713.052 8  -2045995.52945  24806301.628    24806303.1634   24806311.7814
      3944.743        3073.826
  -2012805.301 9  -1562171.90748  20803149.400    20803150.8194   20803157.0594
       221.054         172.250
   3021007.556 9   2354237.01948  20862820.953    20862822.6284   20862828.8854
     -1748.221       -1362.250
   9003595.211 8   7005704.70145  24428783.576    24428785.1484   24428792.3554
     -2869.676       -2236.111
  -8220762.188 9  -6386148.29748  20045808.369    20045810.1534   20045816.8324
      1391.892        1084.591
  -5191400.321 9  -4033337.98148  22292769.021    22292770.9524   22292777.6424
       404.055         314.848
  -3026073.530 9  -2348106.44246  23360638.175    23360639.5314   23360646.5074
      -277.168        -215.975
 97  5 14 16 25 29.9990000  0  8  9  2 27 19  4  7 26 15            -0.000929375
  -3130060.825 8  -2138214.54445  24783781.019    24783782.2664   24783791.1684
      3944.604        3073.717
  -2019358.394 9  -1567278.22448  20801902.430    20801903.8234   20801910.0654
       215.375         167.825
   3073653.123 9   2395259.51348  20872839.167    20872840.7774   20872847.0164
     -1762.105       -1373.069
   9089732.914 8   7072824.94645  24445174.910    24445176.5944   24445183.7634
     -2873.405       -2239.017
   -269158.28018   -194410.86755  24746740.004           0.0005   24746753.1365
      4009.815        3124.531
  -8262301.620 9  -6418516.67848  20037903.684    20037905.5254   20037912.1244
      1376.690        1072.745
  -5203280.180 9  -4042595.05348  22290508.347    22290510.2684   22290517.0444
       387.133         301.662
  -3017484.057 9  -2341413.37846  23362272.734    23362274.0954   23362281.1024
      -296.077        -230.709
 97  5 14 16 25 59.9990000  0  8  9  2 27 19  4  7 26 15            -0.000940557
  -3248406.739 8  -2230432.13245  24761260.212    24761261.8714   24761270.7594
      3944.873        3073.927
  -2025751.968 9  -1572260.23848  20800685.725    20800687.2004   20800693.4314
       210.509         164.033
   3126711.609 9   2436603.76248  20882935.834    20882937.4924   20882943.7554
     -1775.464       -1383.478
   9175974.761 9   7140026.25946  24461586.194    24461588.1584   24461595.3264
     -2876.347       -2241.309
   -389529.405 8   -288206.38945  24723839.305    24723838.1335   24723846.2024
      4014.344        3128.060
  -8303376.138 9  -6450522.78748  20030087.501    20030089.3264   20030095.8784
      1361.336        1060.781
  -5214634.450 9  -4051442.56748  22288347.707    22288349.6484   22288356.4864
       369.502         287.924
  -3008329.022 9  -2334279.62347  23364015.035    23364016.2664   23364023.2324
      -314.670        -245.197
 97  5 14 16 26 29.9990000  0  8  9  2 27 19  4  7 26 15            -0.000951737
  -3366766.953 8  -2322660.88446  24738737.039    24738738.7114   24738747.5524
      3945.474        3074.395
  -2032011.866 9  -1577138.09548  20799494.627    20799495.9964   20799502.2404
       206.575         160.968
   3180169.692 9   2478259.38548  20893108.664    20893110.2604   20893116.5324
     -1788.754       -1393.834
   9262299.671 9   7207292.33446  24478013.355    24478015.5174   24478022.6874
     -2879.070       -2243.431
   -510023.242 8   -382097.68055  24700908.723    24700909.5894   24700917.0145
      4018.096        3130.984
  -8343996.010 9  -6482174.62848  20022357.821    20022359.6084   20022366.1314
      1346.233        1049.013
  -5225466.257 9  -4059882.96748  22286286.490    22286288.5024   22286295.2734
       352.406         274.602
  -2998615.868 9  -2326710.95747  23365863.547    23365864.6824   23365871.6344
      -333.279        -259.698
 97  5 14 16 26 59.9990000  0  8  9  2 27 19  4  7 26 15            -0.000962902
  -3485137.541 8  -2414897.67345  24716212.339    24716213.5834   24716222.4474
      3945.827        3074.670
  -2038151.512 9  -1581922.24348  20798326.334    20798327.6554   20798333.8944
       202.502         157.794
   3234038.683 9   2520235.19548  20903359.646    20903361.2374   20903367.5214
     -1802.510       -1404.553
   9348717.936 9   7274631.20846  24494458.213    24494460.4934   24494467.7514
     -2882.201       -2245.871
   -630623.187 9   -476071.65445  24677958.893    24677960.5275   24677967.7964
      4021.683        3133.779
  -8384157.291 9  -6513469.12148  20014715.367    20014717.1804   20014723.6924
      1331.321        1037.393
  -5235779.291 9  -4067919.10948  22284323.865    22284325.9964   22284332.7924
       335.208         261.201
  -2988335.855 9  -2318700.60747  23367819.835    23367820.9814   23367827.9934
      -352.109        -274.371
 97  5 14 16 27 29.9990000  0  8  9  2 27 19  4  7 26 15            -0.000974067
  -3603530.840 9  -2507152.18646  24693681.991    24693683.9774   24693692.8714
      3946.212        3074.970
  -2044184.296 9  -1586623.12948  20797178.285    20797179.6504   20797185.8894
       198.626         154.774
   3288309.726 9   2562524.28648  20913686.983    20913688.6914   20913694.9854
     -1816.529       -1415.477
   9435219.525 9   7342035.01746  24510919.022    24510921.4084   24510928.6984
     -2885.486       -2248.431
   -751344.785 9   -570140.45646  24654986.316    24654988.1494   24654995.5114
      4025.522        3136.770
  -8423891.475 9  -6544430.81748  20007154.222    20007156.0284   20007162.5244
      1316.470        1025.821
  -5245607.306 9  -4075577.32848  22282453.686    22282455.8524   22282462.6214
       318.841         248.448
  -2977510.550 9  -2310265.34746  23369879.893    23369880.9524   23369888.0094
      -370.522        -288.718
 97  5 14 16 27 59.9990000  0  8  9  2 27 19  4  7 26 15            -0.000985226
  -3721938.087 8  -2599417.57445  24671149.522    24671151.8334   24671160.7414
      3947.594        3076.047
  -2050087.701 9  -1591223.19448  20796054.935    20796056.2904   20796062.5464
       194.725         151.734
   3343007.946 9   2605146.24948  20924095.693    20924097.4044   20924103.7294
     -1829.913       -1425.906
   9521826.849 8   7409521.15346  24527399.880    24527402.2274   24527409.9184
     -2888.258       -2250.591
   -872184.468 8   -664301.08645  24631990.895    24631993.0664   24632000.1224
      4030.216        3140.428
  -8463165.947 9  -6575034.29448  19999680.514    19999682.2944   19999688.7814
      1301.812        1014.399
  -5254930.573 9  -4082842.22648  22280679.651    22280681.7494   22280688.4864
       302.918         236.040
  -2966126.660 9  -2301394.82446  23372046.387    23372047.2164   23372054.2904
      -388.492        -302.721
 97  5 14 16 28 29.9990000  0  8  9  2 27 19  4  7 26 15            -0.000996406
  -3840374.464 9  -2691705.60946  24648611.989    24648614.0314   24648623.0614
      3947.725        3076.149
  -2055847.925 9  -1595711.69748  20794958.738    20794960.1324   20794966.3994
       188.936         147.223
   3398118.941 9   2648089.85448  20934582.996    20934584.7004   20934591.0534
     -1844.374       -1437.175
   9608529.574 8   7477081.60346  24543898.627    24543901.0724   24543909.0964
     -2892.197       -2253.660
   -993149.690 8   -758559.83545  24608971.714    24608974.0404   24608981.3624
      4033.876        3143.280
  -8501993.248 9  -6605289.32148  19992291.860    19992293.6934   19992300.1734
      1286.292        1002.305
  -5263772.471 9  -4089732.03148  22278997.025    22278999.1814   22279005.8874
       286.213         223.023
  -2954191.202 9  -2292094.51047  23374317.380    23374318.5074   23374325.6314
      -407.511        -317.541
 97  5 14 16 28 59.9990000  0  8  9  2 27 19  4  7 26 15            -0.001007600
  -3958804.659 8  -2783988.87346  24626075.670    24626077.6034   24626086.6824
      3947.615        3076.064
  -2061424.898 9  -1600057.40248  20793897.465    20793898.8914   20793905.1414
       182.825         142.461
   3453662.446 9   2691370.47748  20945152.582    20945154.3204   20945160.7004
     -1858.483       -1448.168
   9695346.800 8   7544731.29146  24560419.493    24560421.8884   24560430.0044
     -2895.557       -2256.278
  -1114226.722 9   -852905.32145  24585931.564    24585933.6364   24585941.0214
      4037.846        3146.374
  -8540347.907 9  -6635176.06248  19984993.308    19984995.0804   19985001.5114
      1270.739         990.186
  -5272107.658 9  -4096227.00948  22277410.774    22277413.0554   22277419.7514
       269.393         209.917
  -2941685.928 9  -2282350.18346  23376696.902    23376698.1604   23376705.3984
      -426.142        -332.059
 97  5 14 16 29 29.9980000  0  8  9  2 27 19  4  7 26 15            -0.001018814
  -4077218.723 8  -2876259.50545  24603542.118    24603544.1014   24603553.2244
      3947.664        3076.102
  -2066814.745 9  -1604257.29948  20792871.777    20792873.2844   20792879.4694
       177.272         138.134
   3509624.183 9   2734976.99148  20955801.773    20955803.5164   20955809.8974
     -1871.779       -1458.529
   9782259.933 8   7612455.73646  24576958.751    24576961.0064   24576969.1294
     -2898.044       -2258.216
  -1235415.850 8   -947338.43445  24562869.858    24562871.9354   24562879.9514
      4042.421        3149.938
  -8578226.274 9  -6664691.66748  19977785.273    19977787.0714   19977793.5284
      1255.117         978.013
  -5279932.179 9  -4102324.04948  22275921.912    22275924.0854   22275930.7964
       252.646         196.867
  -2928618.303 9  -2272167.64946  23379183.912    23379184.8854   23379192.1324
      -444.377        -346.268
 97  5 14 16 29 59.9980000  0  8  9  2 27 19  4  7 26 15            -0.001030059
  -4195649.115 8  -2968542.85545  24581005.003    24581007.4954   24581016.7544
      3946.443        3075.150
  -2072050.323 9  -1608336.98748  20791875.487    20791876.9724   20791883.1324
       170.617         132.948
   3565969.339 9   2778882.27248  20966523.971    20966525.6864   20966532.0504
     -1885.632       -1469.324
   9869234.614 8   7680228.11545  24593509.686    24593511.7334   24593519.9854
     -2901.297       -2260.751
  -1356761.826 8  -1041893.60545  24539777.441    24539780.3164   24539788.1284
      4046.147        3152.842
  -8615649.002 9  -6693852.22448  19970663.964    19970665.7514   19970672.2564
      1238.762         965.269
  -5287250.285 9  -4108026.47148  22274529.265    22274531.5014   22274538.2154
       234.413         182.659
  -2915009.101 9  -2261563.10646  23381773.529    23381774.6564   23381782.0034
      -464.014        -361.569
 97  5 14 16 30 29.9980000  0  8  9  2 27 19  4  7 26 15            -0.001041310
  -4314039.690 9  -3060795.20545  24558476.015    24558478.4334   24558487.6594
      3946.007        3074.811
  -2077096.872 9  -1612269.38248  20790915.088    20790916.6534   20790922.8244
       165.663         129.088
   3622722.800 9   2823105.71648  20977323.833    20977325.5194   20977331.8924
     -1898.412       -1479.282
   9956291.667 8   7748064.76445  24610076.126    24610078.1444   24610086.2364
     -2902.981       -2262.063
  -1478223.319 8  -1136539.05645  24516664.228    24516667.2214   24516674.8794
      4050.972        3156.602
  -8652597.696 9  -6722643.41248  19963632.824    19963634.6394   19963641.1934
      1224.089         953.836
  -5294039.696 9  -4113316.92648  22273237.428    22273239.5324   22273246.2884
       217.868         169.767
  -2900824.553 9  -2250510.24546  23384472.669    23384473.8744   23384481.2204
      -481.985        -375.573
 97  5 14 16 30 59.9980000  0  8  9  2 27 19  4  7 26 15            -0.001052571
  -4432402.610 8  -3153026.03445  24535952.443    24535954.7294   24535963.9534
      3945.370        3074.314
  -2081982.501 9  -1616076.38648  20789985.499    20789986.9654   20789993.1354
       160.358         124.954
   3679880.251 9   2867643.95048  20988200.637    20988202.2574   20988208.6324
     -1911.741       -1489.668
  10043418.630 8   7815955.90245  24626655.210    24626657.7144   24626666.0504
     -2905.001       -2263.637
  -1599810.434 8  -1231282.11045  24493526.989    24493529.5774   24493537.5554
      4055.194        3159.891
  -8689086.755 9  -6751076.44048  19956689.128    19956690.9634   19956697.5564
      1208.865         941.973
  -5300316.804 9  -4118208.19548  22272042.884    22272045.0484   22272051.8204
       201.049         156.662
  -2886085.874 9  -2239025.58446  23387277.472    23387278.6834   23387285.9084
      -500.319        -389.859
 97  5 14 16 31 29.9980000  0  8  9  2 27 19  4  7 26 15            -0.001063858
  -4550768.045 8  -3245258.80346  24513428.742    24513430.4974   24513439.7534
      3945.121        3074.120
  -2086717.800 9  -1619766.24048  20789084.401    20789085.9014   20789092.0694
       154.908         120.708
   3737420.088 9   2912480.15248  20999150.048    20999151.7754   20999158.1544
     -1924.788       -1499.835
  10130604.47617   7883892.78055  24643246.271    24643248.3385   24643257.5025
     -2907.508       -2265.591
  -1721540.390 8  -1326136.55545  24470362.454    24470365.1714   24470373.2374
      4059.691        3163.396
  -8725134.077 9  -6779165.25748  19949829.467    19949831.3364   19949837.9494
      1193.844         930.268
  -5306105.402 9  -4122718.81148  22270941.335    22270943.5394   22270950.3214
       184.414         143.699
  -2870806.234 9  -2227119.40446  23390185.070    23390186.3034   23390193.5724
      -518.752        -404.222
 97  5 14 16 31 59.9980000  0  8  9  2 27 19  4  7 26 15            -0.001075155
  -4669113.822 8  -3337476.22045  24490908.256    24490910.0014   24490919.2484
      3944.592        3073.708
  -2091273.336 9  -1623316.02148  20788217.626    20788219.0794   20788225.2384
       148.943         116.059
   3795369.866 9   2957635.78248  21010177.661    21010179.2964   21010185.6814
     -1938.369       -1510.417
  10217888.08218   7951905.75955  24659855.584    24659857.8885   24659867.3105
     -2911.146       -2268.425
  -1843390.836 8  -1421084.98045  24447175.414    24447177.9014   24447185.3834
      4063.718        3166.534
  -8760724.363 9  -6806897.94248  19943056.850    19943058.7114   19943065.2884
      1178.956         918.667
  -5311389.390 9  -4126836.22448  22269935.795    22269938.0214   22269944.8214
       168.162         131.035
  -2854962.553 9  -2214773.72046  23393200.192    23393201.2724   23393208.5604
      -537.307        -418.681
 97  5 14 16 32 29.9980000  0  8  9  2 27 19  4  7 26 15            -0.001086470
  -4787446.997 8  -3429683.84045  24468390.837    24468391.8194   24468400.8394
      3944.381        3073.544
  -2095656.372 9  -1626731.38848  20787383.602    20787385.0664   20787391.2154
       143.410         111.748
   3853732.487 9   3003113.10648  21021283.634    21021285.3724   21021291.7764
     -1952.478       -1521.411
  10305282.602 8   8020005.33645  24676487.096    24676488.8214   24676497.5444
     -2915.109       -2271.514
  -1965357.512 8  -1516123.79545  24423966.129    24423968.1144   24423976.1084
      4067.430        3169.426
  -8795866.158 9  -6834281.15448  19936369.655    19936371.4404   19936377.9974
      1163.847         906.894
  -5316189.355 9  -4130576.46548  22269022.477    22269024.6804   22269031.5104
       151.715         118.219
  -2838570.386 9  -2202000.64946  23396319.570    23396320.6254   23396327.9784
      -555.478        -432.840
 97  5 14 16 32 59.9980000  0  8  9  2 27 19  4  7 26 15            -0.001097785
  -4905760.079 9  -3521875.78346  24445876.213    24445877.6474   24445886.6164
      3943.470        3072.834
  -2099860.286 9  -1630007.17848  20786583.638    20786585.1024   20786591.2984
       137.325         107.006
   3912523.055 9   3048923.89348  21032471.070    21032472.8294   21032479.3024
     -1966.370       -1532.236
  10392808.829 8   8088207.51445  24693142.516    24693144.5874   24693153.2574
     -2919.463       -2274.906
  -2087427.478 8  -1611243.27345  24400736.549    24400738.9654   24400746.9814
      4071.088        3172.276
  -8830542.377 9  -6861301.58048  19929770.991    19929772.7744   19929779.3564
      1148.333         894.805
  -5320478.431 9  -4133918.61348  22268206.272    22268208.5064   22268215.3814
       134.683         104.948
  -2821620.754 9  -2188793.17446  23399545.082    23399546.1154   23399553.3994
      -574.111        -447.359
 97  5 14 16 33 29.9980000  0  8  9  2 27 19  4  7 26 15            -0.001109100
  -5024036.041 9  -3614038.82646  24423369.357    24423370.4654   24423379.4064
      3941.323        3071.161
  -2103889.936 9  -1633147.17848  20785816.720    20785818.2894   20785824.4914
       131.278         102.294
   3971721.019 9   3095052.13448  21043736.001    21043737.8444   21043744.3654
     -1980.357       -1543.135
  10480467.779 8   8156513.27845  24709823.447    24709825.3854   24709833.6494
     -2924.534       -2278.858
  -2209605.078 8  -1706446.48845  24377487.466    24377489.3574   24377497.2714
      4073.836        3174.418
  -8864760.780 9  -6887965.26248  19923259.460    19923261.2484   19923267.8424
      1132.750         882.662
  -5324251.793 9  -4136858.89948  22267488.209    22267490.4494   22267497.2924
       116.705          90.939
  -2804112.444 9  -2175150.37446  23402876.636    23402877.8104   23402885.0124
      -593.237        -462.263
 97  5 14 16 33 59.9980000  0  8  9  2 27 19  4  7 26 15            -0.001120408
  -5142277.127 9  -3706174.70946  24400869.029    24400869.9104   24400878.8354
      3940.221        3070.302
  -2107780.689 9  -1636178.94448  20785076.291    20785077.9174   20785084.1304
       126.827          98.826
   4031305.708 9   3141481.71548  21055074.581    21055076.4324   21055083.0274
     -1993.122       -1553.082
  10568241.740 8   8224908.63545  24726526.405    24726528.5514   24726535.9424
     -2928.044       -2281.593
  -2331894.030 8  -1801736.51245  24354216.544    24354218.3854   24354226.5554
      4077.382        3177.181
  -8898546.778 9  -6914292.01348  19916830.170    19916831.9654   19916838.5994
      1118.343         871.436
  -5327510.715 9  -4139398.35248  22266868.116    22266870.3224   22266877.1374
        99.421          77.471
  -2786068.546 9  -2161090.24646  23406310.129    23406311.4114   23406318.7894
      -610.943        -476.059
 97  5 14 16 34 29.9980000  0  8  9  2 27 19  4  7 26 15            -0.001131709
  -5260485.088 8  -3798284.74246  24378374.390    24378375.7694   24378384.5154
      3939.493        3069.735
  -2111534.109 9  -1639103.70048  20784362.101    20784363.6864   20784369.9094
       122.513          95.465
   4091273.822 9   3188210.07548  21066485.944    21066487.9894   21066494.6054
     -2005.570       -1562.782
  10656107.570 8   8293375.43445  24743246.579    24743248.9934   24743256.7174
     -2930.387       -2283.418
  -2454275.006 8  -1897098.26645  24330928.346    24330930.3014   24330938.4384
      4080.411        3179.541
  -8931890.809 9  -6940274.37148  19910484.949    19910486.8114   19910493.4364
      1103.801         860.105
  -5330246.842 9  -4141530.41248  22266347.448    22266349.6744   22266356.4814
        82.209          64.059
  -2767486.755 9  -2146610.97346  23409846.011    23409847.4844   23409854.7664
      -628.775        -489.954
 97  5 14 16 34 59.9980000  0  7  9  2 27  4  7 26 15               -0.001143011
  -5378661.480 9  -3890370.18846  24355885.700    24355887.5354   24355896.1414
      3939.280        3069.569
  -2115144.298 9  -1641916.84548  20783675.042    20783676.6984   20783682.9594
       118.251          92.144
   4151611.457 9   3235226.37148  21077967.883    21077969.8984   21077976.5264
     -2016.789       -1571.524
  -2576733.378 8  -1992520.33045  24307625.442    24307627.4924   24307635.0914
      4083.589        3182.017
  -8964792.048 9  -6965911.69648  19904224.025    19904225.9344   19904232.5234
      1089.803         849.197
  -5332467.096 9  -4143260.48248  22265924.954    22265927.2114   22265933.9984
        66.053          51.470
  -2748360.760 9  -2131707.64946  23413485.579    23413487.0394   23413494.4154
      -646.155        -503.497
 97  5 14 16 35 29.9980000  0  7  9  2 27  4  7 26 15               -0.001154330
  -5496819.032 9  -3982440.92846  24333400.248    24333402.8034   24333411.5144
      3938.100        3068.649
  -2118603.050 9  -1644611.98848  20783016.868    20783018.5164   20783024.8394
       112.286          87.496
   4212306.181 9   3282520.92748  21089517.673    21089519.7334   21089526.3824
     -2029.621       -1581.523
  -2699251.856 9  -2087989.18846  24284310.161    24284312.9294   24284320.6794
      4084.368        3182.624
  -8997251.347 9  -6991204.65148  19898047.167    19898049.1344   19898055.7414
      1074.121         836.977
  -5334184.799 9  -4144598.95048  22265598.000    22265600.2914   22265607.1574
        48.573          37.849
  -2728691.465 9  -2116380.98646  23417228.342    23417230.0024   23417237.4244
      -665.062        -518.230
 97  5 14 16 35 59.9980000  0  7  9  2 27  4  7 26 15               -0.001165673
  -5614983.937 9  -4074517.40746  24310914.394    24310916.8184   24310925.6094
      3938.942        3069.305
  -2121901.845 9  -1647182.48748  20782389.029    20782390.7804   20782397.1684
       106.988          83.367
   4273365.720 9   3330099.74748  21101137.062    21101139.0294   21101145.6854
     -2041.718       -1590.949
  -2821825.746 8  -2183501.29946  24260985.818    24260988.0234   24260995.7194
      4086.742        3184.474
  -9029265.258 9  -7016150.54748  19891955.076    19891957.0914   19891963.6844
      1059.378         825.489
  -5335412.313 9  -4145555.41648  22265364.372    22265366.6844   22265373.6114
        32.863          25.608
  -2708484.733 9  -2100635.52446  23421073.489    23421075.2204   23421082.6034
      -682.682        -531.960
 97  5 14 16 36 29.9980000  0  7  9  2 27  4  7 26 15               -0.001177048
  -5733153.615 9  -4166597.59046  24288427.550    24288429.8934   24288438.6724
      3938.983        3069.337
  -2125023.714 9  -1649615.12648  20781794.939    20781796.7024   20781803.1304
       101.213          78.867
   4334809.571 9   3377978.03448  21112829.580    21112831.4434   21112838.1184
     -2054.548       -1600.946
  -2944458.510 8  -2279059.24845  24237649.229    24237651.5564   24237659.4394
      4088.882        3186.142
  -9060816.643 9  -7040736.03648  19885951.051    19885953.0754   19885959.6434
      1044.159         813.630
  -5336160.492 9  -4146138.40048  22265221.974    22265224.3054   22265231.3224
        17.016          13.259
  -2687732.427 9  -2084464.96046  23425022.463    23425024.1924   23425031.6274
      -700.775        -546.058
 97  5 14 16 36 59.9980000  0  7  9  2 27  4  7 26 15               -0.001188404
  -5851321.550 9  -4258676.44046  24265940.895    24265943.2354   24265951.9784
      3938.300        3068.805
  -2127973.455 9  -1651913.64048  20781233.596    20781235.3834   20781241.8584
        94.929          73.971
   4396637.847 9   3426155.87448  21124595.093    21124597.0334   21124603.6664
     -2067.918       -1611.365
  -3067172.308 9  -2374680.30946  24214297.416    24214299.6344   24214307.6314
      4091.556        3188.225
  -9091918.860 9  -7064971.52248  19880032.457    19880034.5104   19880041.0754
      1028.740         801.615
  -5336432.038 9  -4146349.97548  22265170.358    22265172.6294   22265179.7374
         0.471           0.367
  -2666442.708 9  -2067875.61746  23429074.071    23429075.5954   23429082.8984
      -719.058        -560.305
 97  5 14 16 37 29.9980000  0  7  9  2 27  4  7 26 15               -0.001199803
  -5969465.512 8  -4350736.58246  24243458.735    24243461.0704   24243469.9434
      3937.765        3068.388
  -2130743.811 9  -1654072.37548  20780706.397    20780708.2294   20780714.6974
        89.844          70.008
   4458869.267 9   3474647.85748  21136437.430    21136439.2944   21136445.9414
     -2080.968       -1621.534
  -3189974.182 9  -2470370.08946  24190929.092    24190931.1914   24190939.2864
      4095.211        3191.073
  -9122563.411 9  -7088850.38948  19874200.903    19874203.0094   19874209.5814
      1014.202         790.287
  -5336204.793 9  -4146172.91648  22265213.619    22265215.8854   22265222.9684
       -15.616         -12.168
  -2644610.728 9  -2050863.75246  23433228.966    23433230.2084   23433237.4704
      -736.459        -573.864
 97  5 14 16 37 59.9980000  0  7  9  2 27  4  7 26 15               -0.001211209
  -6087563.781 9  -4442761.11546  24220985.445    24220987.6974   24220996.4794
      3935.606        3066.706
  -2133352.151 9  -1656104.86348  20780210.117    20780211.8864   20780218.3644
        84.349          65.726
   4521516.146 9   3523463.56748  21148358.857    21148360.6224   21148367.2874
     -2095.128       -1632.567
  -3312875.836 8  -2566137.54445  24167541.066    24167543.5754   24167551.8574
      4098.323        3193.498
  -9152756.342 9  -7112377.34648  19868455.349    19868457.4704   19868464.0224
       998.996         778.438
  -5335478.228 9  -4145606.78648  22265351.892    22265354.1534   22265361.2014
       -32.565         -25.375
  -2622239.774 9  -2033431.88746  23437485.763    23437487.3934   23437494.4594
      -754.731        -588.102
 97  5 14 16 38 29.9980000  0  7  9  2 27  4  7 26 15               -0.001222613
  -6205594.438 9  -4534732.97446  24198525.145    24198527.2354   24198535.8734
      3933.159        3064.799
  -2135811.303 9  -1658021.09848  20779742.168    20779743.9354   20779750.3764
        79.441          61.902
   4584572.360 9   3572598.24948  21160357.938    21160359.8274   21160366.4874
     -2108.551       -1643.027
  -3435863.657 8  -2661972.22146  24144137.127    24144139.7744   24144148.2074
      4100.728        3195.372
  -9182505.165 9  -7135558.23648  19862794.469    19862796.4924   19862802.9814
       984.272         766.965
  -5334249.463 9  -4144649.33748  22265585.722    22265587.9904   22265594.9714
       -49.495         -38.568
  -2599329.432 9  -2015579.72846  23441845.215    23441847.1834   23441854.1704
      -772.766        -602.155
 97  5 14 16 38 59.9980000  0  7  9  2 27  4  7 26 15               -0.001234012
  -6323564.400 9  -4626657.52046  24176076.316    24176078.3294   24176086.9264
      3931.703        3063.665
  -2138125.247 9  -1659824.18648  20779301.883    20779303.6524   20779310.0404
        74.974          58.421
   4648019.670 9   3622037.67248  21172431.471    21172433.4824   21172440.1464
     -2121.038       -1652.757
  -3558920.680 8  -2757860.81145  24120720.211    24120722.7494   24120731.0274
      4103.258        3197.344
  -9211820.019 9  -7158400.97748  19857216.051    19857218.1164   19857224.5724
       970.245         756.035
  -5332519.959 9  -4143301.70348  22265914.814    22265917.1234   22265924.0594
       -65.468         -51.014
  -2575881.627 9  -1997308.78346  23446307.116    23446309.1024   23446316.2904
      -790.274        -615.798
 97  5 14 16 39 29.9980000  0  7  9  2 27  4  7 26 15               -0.001245419
  -6441492.550 9  -4718549.53146  24153634.800    24153637.2994   24153645.8484
      3930.080        3062.400
  -2140313.430 9  -1661529.27648  20778885.520    20778887.3054   20778893.6574
        70.785          55.157
   4711832.770 9   3671762.14248  21184574.693    21184576.7184   21184583.4004
     -2133.223       -1662.252
  -3682047.226 8  -2853803.41845  24097289.926    24097292.3734   24097300.7164
      4105.003        3198.704
  -9240727.385 9  -7180926.19048  19851715.141    19851717.2374   19851723.6924
       956.806         745.563
  -5330328.853 9  -4141594.37948  22266331.836    22266334.1004   22266341.0314
       -80.634         -62.832
  -2551913.494 9  -1978632.36546  23450868.052    23450870.0684   23450877.3194
      -807.692        -629.370
 97  5 14 16 39 59.9980000  0  7  9  2 27  4  7 26 15               -0.001256820
  -6559363.367 9  -4810396.87646  24131204.993    24131207.1894   24131215.7644
      3928.537        3061.198
  -2142357.482 9  -1663122.06248  20778496.566    20778498.3554   20778504.6664
        65.852          51.313
   4776021.098 9   3721778.98648  21196789.281    21196791.3444   21196798.0654
     -2145.456       -1671.784
  -3805205.730 9  -2949771.10045  24073853.574    24073856.1474   24073864.4864
      4105.997        3199.478
  -9269216.807 9  -7203125.73248  19846293.784    19846295.8814   19846302.3484
       942.969         734.781
  -5327670.633 9  -4139523.08448  22266837.758    22266839.9984   22266846.8574
       -96.073         -74.862
  -2527407.520 9  -1959536.86246  23455531.422    23455533.4254   23455540.6774
      -825.560        -643.293
 97  5 14 16 40 29.9980000  0  7  9  2 27  4  7 26 15               -0.001268223
  -6677190.870 9  -4902210.45646  24108783.735    24108785.3014   24108793.8224
      3927.359        3060.280
  -2144239.186 9  -1664588.33648  20778138.504    20778140.2904   20778146.6124
        60.173          46.888
   4840575.065 9   3772080.74048  21209073.500    21209075.5504   21209082.2964
     -2157.587       -1681.237
  -3928393.686 8  -3045761.69645  24050411.204    24050414.0354   24050422.0954
      4107.406        3200.576
  -9297286.102 9  -7224997.90648  19840952.456    19840954.4694   19840960.9444
       928.880         723.803
  -5324548.656 9  -4137090.38348  22267431.813    22267434.1234   22267440.9144
      -111.438         -86.835
  -2502364.752 9  -1940023.08946  23460297.031    23460299.0444   23460306.2334
      -843.359        -657.163
 97  5 14 16 40 59.9980000  0  7  9  2 27  4  7 26 15               -0.001279635
  -6794981.103 9  -4993994.98046  24086368.839    24086370.5294   24086379.0174
      3925.539        3058.861
  -2145940.600 9  -1665914.13048  20777814.839    20777816.5594   20777822.8904
        53.749          41.882
   4905499.146 9   3822670.89448  21221428.067    21221430.1794   21221436.9144
     -2170.331       -1691.167
  -4051630.806 8  -3141790.47845  24026959.781    24026962.7894   24026971.0834
      4108.855        3201.705
  -9324929.011 9  -7246537.82748  19835692.106    19835694.1644   19835700.6624
       914.365         712.492
  -5320964.001 9  -4134297.14648  22268113.950    22268116.2784   22268123.0764
      -127.092         -99.033
  -2476787.948 9  -1920093.17246  23465164.122    23465166.1834   23465173.4774
      -861.330        -671.166
 97  5 14 16 41 29.9980000  0  7  9  2 27  4  7 26 15               -0.001291064
  -6912733.558 9  -5085750.06546  24063960.997    24063962.8644   24063971.4364
      3924.204        3057.821
  -2147476.399 9  -1667110.86948  20777522.689    20777524.3464   20777530.6684
        48.105          37.484
   4970780.898 9   3873539.75148  21233850.816    21233852.8984   21233859.6564
     -2182.209       -1700.423
  -4174938.334 8  -3237874.34045  24003495.902    24003498.4114   24003506.4524
      4111.123        3203.472
  -9352161.410 9  -7267757.87648  19830509.925    19830512.0104   19830518.5444
       900.527         701.709
  -5316927.715 9  -4131151.99848  22268881.942    22268884.2944   22268891.1654
      -142.562        -111.087
  -2450697.931 9  -1899763.34246  23470128.756    23470130.9324   23470138.3144
      -878.434        -684.494
 97  5 14 16 41 59.9980000  0  7  9  2 27  4  7 26 15               -0.001302499
  -7030427.544 9  -5177459.61446  24041565.129    24041566.4084   24041574.9194
      3921.493        3055.709
  -2148815.038 9  -1668153.97748  20777267.936    20777269.6274   20777275.9594
        40.515          31.570
   5036443.984 9   3924705.75548  21246346.224    21246348.2104   21246354.9484
     -2196.071       -1711.224
  -4298294.901 9  -3333996.29145  23980021.782    23980024.4704   23980032.1814
      4112.045        3204.191
  -9378938.420 9  -7288623.07748  19825414.434    19825416.5094   19825423.0404
       883.937         688.782
  -5312397.445 9  -4127621.93448  22269744.025    22269746.3384   22269753.2194
      -160.117        -124.766
  -2424070.022 9  -1879014.38746  23475196.225    23475198.0274   23475205.4684
      -897.389        -699.264
 97  5 14 16 42 29.9980000  0  7  9  2 27  4  7 26 15               -0.001313942
  -7148057.265 9  -5269119.04646  24019180.823    24019182.1204   24019190.7024
      3919.876        3054.449
  -2149949.808 9  -1669038.21948  20777051.995    20777053.6934   20777060.0574
        34.786          27.106
   5102500.423 9   3976178.27248  21258916.481    21258918.3554   21258925.1104
     -2208.176       -1720.657
  -4421705.171 9  -3430160.10446  23956537.971    23956540.4434   23956548.2464
      4114.716        3206.272
  -9405237.078 9  -7309115.53848  19820409.963    19820412.1004   19820418.5894
       868.773         676.966
  -5307360.185 9  -4123696.84248  22270702.572    22270704.9114   22270711.8224
      -176.332        -137.401
  -2396896.284 9  -1857840.09746  23480367.616    23480369.0874   23480376.4974
      -914.739        -712.784
 97  5 14 16 42 59.9980000  0  7  9  2 27  4  7 26 15               -0.001325400
  -7265615.995 9  -5360723.17946  23996809.414    23996811.3654   23996819.9654
      3918.041        3053.019
  -2150915.732 9  -1669790.90048  20776868.068    20776869.8734   20776876.2784
        30.411          23.697
   5168928.810 9   4027940.61748  21271557.417    21271559.2754   21271566.0654
     -2219.658       -1729.604
  -4545174.704 9  -3526370.08346  23933042.240    23933044.7354   23933052.6954
      4117.162        3208.178
  -9431067.807 9  -7329243.37848  19815494.683    19815496.7164   19815503.1844
       854.061         665.502
  -5301822.565 9  -4119381.85148  22271756.389    22271758.7124   22271765.6344
      -192.097        -149.686
  -2369189.583 9  -1836250.53946  23485640.127    23485641.5154   23485649.0864
      -931.754        -726.042
 97  5 14 16 43 29.9980000  0  7  9  2 27  4  7 26 15               -0.001336872
  -7383109.710 9  -5452276.63246  23974450.964    23974452.9904   23974461.6264
      3916.060        3051.475
  -2151742.387 9  -1670435.05948  20776710.793    20776712.5894   20776719.0194
        25.822          20.121
   5235711.398 9   4079978.95848  21284265.707    21284267.5864   21284274.4374
     -2231.370       -1738.730
  -4668704.189 9  -3622626.85746  23909535.462    23909537.8924   23909545.7864
      4119.299        3209.843
  -9456446.705 9  -7349019.14448  19810665.202    19810667.2234   19810673.7124
       838.858         653.656
  -5295799.733 9  -4114688.77648  22272902.684    22272904.8514   22272911.8104
      -208.334        -162.338
  -2340960.266 9  -1814253.71246  23491012.153    23491013.3904   23491020.9524
      -949.124        -739.577
 97  5 14 16 43 59.9980000  0  7  9  2 27  4  7 26 15               -0.001348366
  -7500545.368 9  -5543784.85346  23952103.485    23952105.7514   23952114.3744
      3913.961        3049.840
  -2152436.065 9  -1670975.59648  20776578.804    20776580.6034   20776587.0374
        21.561          16.801
   5302847.859 9   4132293.03348  21297041.445    21297043.2724   21297050.1514
     -2243.277       -1748.008
  -4792296.698 9  -3718932.66546  23886016.450    23886019.1684   23886026.8744
      4121.298        3211.401
  -9481367.264 9  -7368437.76048  19805922.968    19805924.9644   19805931.4784
       823.809         641.929
  -5289294.708 9  -4109619.96448  22274140.616    22274142.7614   22274149.7254
      -224.231        -174.725
  -2312208.365 9  -1791849.67646  23496483.665    23496484.8264   23496492.3174
      -966.524        -753.136
 97  5 14 16 44 29.9980000  0  7  9  2 27  4  7 26 15               -0.001359885
  -7617929.215 9  -5635252.70146  23929766.602    23929768.2164   23929776.7654
      3911.802        3048.157
  -2153020.644 9  -1671431.13048  20776467.645    20776469.3824   20776475.7924
        17.646          13.750
   5370317.868 9   4184867.02448  21309880.660    21309882.4284   21309889.3194
     -2254.430       -1756.699
  -4915965.498 9  -3815297.87946  23862483.033    23862485.6604   23862493.5924
      4123.312        3212.970
  -9505868.296 9  -7387529.47548  19801260.527    19801262.5434   19801269.1074
       809.873         631.070
  -5282327.816 9  -4104191.26048  22275466.274    22275468.5554   22275475.5364
      -239.872        -186.913
  -2282955.208 9  -1769055.06846  23502050.410    23502051.6274   23502059.1704
      -983.449        -766.324
 97  5 14 16 44 59.9980000  0  7  9  2 27  4  7 26 15               -0.001371405
  -7735228.721 9  -5726654.83146  23907445.183    23907446.7894   23907455.3834
      3908.576        3045.644
  -2153461.716 9  -1671774.83348  20776383.628    20776385.4574   20776391.8334
        11.826           9.215
   5438146.445 9   4237720.41748  21322787.982    21322789.8664   21322796.6924
     -2267.278       -1766.710
  -5039665.196 9  -3911687.23446  23838943.982    23838946.4334   23838954.2984
      4123.572        3213.173
  -9529929.943 9  -7406278.81148  19796681.728    19796683.7364   19796690.3324
       794.558         619.136
  -5274875.661 9  -4098384.41348  22276884.246    22276886.6594   22276893.6764
      -256.508        -199.876
  -2253171.774 9  -1745847.24547  23507717.807    23507719.3034   23507726.9044
     -1001.786        -780.612
 97  5 14 16 45 29.9980000  0  7  9  2 27  4  7 26 15               -0.001382934
  -7852465.794 9  -5818008.32146  23885135.635    23885137.2044   23885145.7314
      3907.021        3044.432
  -2153739.138 9  -1671991.02348  20776330.850    20776332.6844   20776339.0244
         6.532           5.090
   5506329.727 9   4290850.20748  21335763.072    21335764.7814   21335771.5534
     -2278.537       -1775.483
  -5163396.530 9  -4008101.14746  23815398.521    23815400.9694   23815409.0904
      4124.883        3214.195
  -9553563.346 9  -7424694.45248  19792184.396    19792186.4384   19792193.0874
       780.626         608.280
  -5266954.495 9  -4092212.10348  22278391.582    22278394.0124   22278401.0414
      -271.773        -211.771
  -2222866.013 9  -1722232.42846  23513484.742    23513486.2934   23513494.0184
     -1018.802        -793.872
 97  5 14 16 45 59.9980000  0  7  9  2 27  4  7 26 15               -0.001394463
  -7969629.855 9  -5909304.90846  23862839.578    23862841.5484   23862850.0504
      3905.220        3043.029
  -2153833.501 9  -1672064.56548  20776312.819    20776314.7404   20776321.0724
         1.148           0.895
   5574878.842 9   4344265.03848  21348807.559    21348809.3014   21348816.0354
     -2290.028       -1784.437
  -5287131.890 9  -4104518.29146  23791852.765    23791855.0824   23791862.9564
      4125.533        3214.701
  -9576755.938 9  -7442766.59948  19787770.981    19787773.0234   19787779.6804
       766.923         597.602
  -5258556.207 9  -4085667.99348  22279989.744    22279992.1714   22279999.2034
      -286.743        -223.436
  -2192028.928 9  -1698203.57547  23519352.944    23519354.4904   23519362.2434
     -1035.664        -807.011
 97  5 14 16 46 29.9980000  0  7  9  2 27  4  7 26 15               -0.001405999
  -8086734.919 9  -6000555.53046  23840555.454    23840557.1044   23840565.6654
      3902.535        3040.936
  -2153758.249 9  -1672005.94248  20776327.157    20776329.0634   20776335.3794
        -5.601          -4.364
   5643773.581 9   4397949.19048  21361917.762    21361919.5814   21361926.3294
     -2302.447       -1794.115
  -5410884.146 9  -4200948.51946  23768303.588    23768305.6054   23768313.6494
      4125.191        3214.435
  -9599532.984 9  -7460514.94648  19783436.511    19783438.6034   19783445.3334
       752.012         585.983
  -5249704.775 9  -4078770.78348  22281674.190    22281676.5744   22281683.5704
      -302.699        -235.869
  -2160679.490 9  -1673775.50947  23525318.536    23525320.1174   23525327.9164
     -1053.633        -821.013
 97  5 14 16 46 59.9980000  0  7  9  2 27  4  7 26 15               -0.001417545
  -8203778.377 9  -6091758.12746  23818282.369    23818284.5174   23818292.9964
      3901.195        3039.892
  -2153487.882 9  -1671795.28548  20776378.644    20776380.5324   20776386.8154
       -11.741          -9.149
   5713034.528 9   4451918.70248  21375097.878    21375099.5324   21375106.2804
     -2314.193       -1803.267
  -5534640.887 9  -4297382.31446  23744752.665    23744755.4484   23744763.5044
      4126.124        3215.162
  -9621870.833 9  -7477921.06248  19779185.732    19779187.8244   19779194.5994
       737.914         574.998
  -5240389.647 9  -4071512.26048  22283446.822    22283449.1984   22283456.2024
      -317.540        -247.434
  -2128808.159 9  -1648940.75047  23531383.298    23531385.0664   23531392.8704
     -1070.372        -834.056
 97  5 14 16 47 29.9980000  0  7  9  2 27  4  7 26 15               -0.001429095
  -8320752.543 9  -6182906.74246  23796022.818    23796024.9544   23796033.6054
      3898.089        3037.472
  -2153007.900 9  -1671421.29348  20776470.043    20776471.8864   20776478.1584
       -18.982         -14.791
   5782670.094 9   4506180.13448  21388349.058    21388350.7964   21388357.5714
     -2327.213       -1813.413
  -5658404.636 8  -4393821.50846  23721201.197    23721203.9954   23721211.9874
      4125.894        3214.982
  -9643760.852 9  -7494978.21948  19775020.188    19775022.3234   19775029.0864
       722.309         562.838
  -5230599.573 9  -4063883.65748  22285309.809    22285312.2324   22285319.2854
      -334.075        -260.318
  -2096412.412 9  -1623697.33647  23537547.915    23537549.8264   23537557.6184
     -1088.328        -848.048
 97  5 14 16 47 59.9980000  0  7  9  2 27  4  7 26 15               -0.001440662
  -8437659.179 9  -6274002.74046  23773776.401    23773778.3394   23773786.9174
      3894.592        3034.747
  -2152343.677 9  -1670903.73148  20776596.544    20776598.3044   20776604.5934
       -26.434         -20.598
   5852671.359 9   4560726.51648  21401669.722    21401671.6534   21401678.4504
     -2340.555       -1823.809
  -5782202.004 8  -4490286.94746  23697643.336    23697646.1784   23697654.0194
      4126.245        3215.256
  -9665204.099 9  -7511687.24148  19770939.696    19770941.8344   19770948.5884
       706.239         550.316
  -5220340.683 9  -4055889.73848  22287261.929    22287264.4624   22287271.5794
      -350.840        -273.382
  -2063505.179 9  -1598055.36947  23543809.834    23543811.8924   23543819.7904
     -1106.621        -862.302
 97  5 14 16 48 29.9980000  0  7  9  2 27  4  7 26 15               -0.001452230
  -8554471.105 9  -6365024.94046  23751548.070    23751549.5954   23751558.2814
      3892.398        3033.037
  -2151454.342 9  -1670210.75948  20776765.796    20776767.5614   20776773.8314
       -33.240         -25.901
   5923064.020 9   4615577.88248  21415064.996    21415066.9974   21415073.7364
     -2352.643       -1833.228
  -5906019.501 8  -4586767.99746  23674081.475    23674084.4234   23674092.2874
      4127.714        3216.401
  -9686168.929 9  -7528023.47348  19766950.203    19766952.3644   19766959.1234
       691.072         538.498
  -5209583.498 9  -4047507.53948  22289309.022    22289311.5164   22289318.6384
      -366.607        -285.668
  -2030055.113 9  -1571990.43147  23550174.982    23550177.2404   23550185.2564
     -1123.820        -875.704
 97  5 14 16 48 59.9980000  0  7  9  2 27  4  7 26 15               -0.001463817
  -8671209.891 9  -6455990.15446  23729333.395    23729334.9194   23729343.5254
      3889.620        3030.873
  -2150362.976 9  -1669360.36048  20776973.514    20776975.2494   20776981.5144
       -39.898         -31.089
   5993813.702 9   4670707.45147  21428528.414    21428530.2744   21428537.0064
     -2364.322       -1842.329
  -6029870.395 8  -4683275.07846  23650513.146    23650516.0204   23650524.1824
      4128.422        3216.952
  -9706679.490 9  -7544005.73048  19763047.175    19763049.3354   19763056.0784
       675.890         526.668
  -5198357.083 9  -4038759.72648  22291445.554    22291447.8774   22291454.9954
      -382.246        -297.854
  -1996087.067 9  -1545521.85647  23556638.813    23556641.1664   23556649.2144
     -1141.245        -889.282
 97  5 14 16 49 29.9980000  0  7  9  2 27  4  7 26 15               -0.001475432
  -8787878.383 9  -6546900.57946  23707131.828    23707133.6774   23707142.2384
      3887.976        3029.592
  -2149103.328 9  -1668378.83248  20777213.274    20777215.0044   20777221.2404
       -44.234         -34.468
   6064887.490 9   4726089.57047  21442053.367    21442055.1974   21442061.8894
     -2374.138       -1849.978
  -6153763.553 8  -4779815.07946  23626936.490    23626939.7204   23626948.0184
      4130.667        3218.702
  -9726762.607 9  -7559654.91448  19759225.460    19759227.6034   19759234.3254
       662.803         516.470
  -5186692.616 9  -4029670.58148  22293665.212    22293667.5514   22293674.6404
      -395.713        -308.348
  -1961618.559 9  -1518663.34246  23563198.088    23563200.2434   23563208.4744
     -1156.904        -901.484
 97  5 14 16 49 59.9980000  0  7  9  2 27  4  7 26 15               -0.001487071
  -8904478.091 9  -6637757.41446  23684943.505    23684945.4084   23684953.9464
      3885.230        3027.452
  -2147694.754 9  -1667281.25248  20777481.416    20777483.0734   20777489.2804
       -49.830         -38.829
   6136276.423 9   4781717.25147  21455638.159    21455640.1054   21455646.7924
     -2385.256       -1858.641
  -6277697.204 8  -4876386.66346  23603352.677    23603355.8844   23603364.2394
      4131.211        3219.125
  -9746446.077 9  -7574992.68148  19755479.917    19755481.9814   19755488.6674
       649.406         506.031
  -5174603.199 9  -4020250.29648  22295965.866    22295968.1384   22295975.1774
      -410.449        -319.830
  -1926661.134 9  -1491423.84146  23569850.361    23569852.4634   23569860.6664
     -1173.693        -914.566
 97  5 14 16 50 29.9980000  0  7  9  2 27  4  7 26 15               -0.001498701
  -9020986.606 9  -6728543.19046  23662772.658    23662774.4564   23662782.9664
      3882.083        3025.000
  -2146106.663 9  -1666043.78548  20777783.627    20777785.3074   20777791.4924
       -55.874         -43.538
   6208010.704 9   4837614.05147  21469288.610    21469290.7034   21469297.4414
     -2397.000       -1867.792
  -6401616.739 8  -4972947.26846  23579771.609    23579774.5964   23579782.9144
      4130.021        3218.198
  -9765725.485 9  -7590015.59248  19751811.181    19751813.2484   19751819.8954
       635.815         495.440
  -5162056.013 9  -4010473.27648  22298353.428    22298355.7194   22298362.8344
      -425.952        -331.911
  -1891192.832 9  -1463786.21846  23576600.078    23576601.9174   23576610.1714
     -1190.771        -927.874
 97  5 14 16 50 59.9980000  0  7  9  2 27  4  7 26 15               -0.001510314
  -9137389.136 9  -6819246.37646  23640621.843    23640623.7114   23640632.2824
      3878.011        3021.827
  -2144340.194 9  -1664667.32648  20778119.706    20778121.4744   20778127.6604
       -62.020         -48.327
   6280107.917 9   4893793.64747  21483008.251    21483010.3524   21483017.1324
     -2409.681       -1877.674
  -6525487.794 8  -5069470.08946  23556199.869    23556202.7484   23556210.9874
      4128.199        3216.778
  -9784587.384 9  -7604713.17248  19748221.882    19748223.9464   19748230.5404
       621.505         484.290
  -5149035.537 9  -4000327.46148  22300831.110    22300833.4424   22300840.6344
      -442.120        -344.509
  -1855208.484 9  -1435746.50946  23583447.338    23583449.4854   23583457.7554
     -1208.247        -941.491
 97  5 14 16 51 29.9980000  0  7  9  2 27  4  7 26 15               -0.001521913
  -9253690.500 9  -6909870.73046  23618490.342    23618492.2734   23618500.6744
      3875.313        3019.724
  -2142410.607 9  -1663163.75748  20778486.930    20778488.6474   20778494.8544
       -66.755         -52.017
   6352578.618 9   4950264.28347  21496799.100    21496801.1154   21496807.9034
     -2421.775       -1887.097
  -6649335.952 9  -5165975.04846  23532632.447    23532635.1524   23532643.3184
      4128.189        3216.771
  -9803038.831 9  -7619090.91848  19744710.650    19744712.7764   19744719.3424
       608.380         474.062
  -5135546.741 9  -3989816.74948  22303397.897    22303400.3364   22303407.5254
      -457.309        -356.345
  -1818722.091 9  -1407315.57846  23590390.281    23590392.5234   23590400.8814
     -1224.294        -953.995
 97  5 14 16 51 59.9980000  0  7  9  2 27  4  7 26 15               -0.001533499
  -9369890.075 9  -7000415.77046  23596377.846    23596380.1674   23596388.5174
      3872.657        3017.655
  -2140308.484 9  -1661525.74348  20778886.835    20778888.6254   20778894.8694
       -72.032         -56.129
   6425432.962 9   5007033.85547  21510662.870    21510664.9504   21510671.6354
     -2433.882       -1896.531
  -6773155.706 9  -5262457.89546  23509070.327    23509073.0224   23509080.9964
      4127.753        3216.431
  -9821059.339 9  -7633132.87048  19741281.451    19741283.5884   19741290.1574
       594.099         462.934
  -5121570.259 9  -3978926.03048  22306057.645    22306059.9954   22306067.1794
      -472.967        -368.546
  -1781726.022 9  -1378487.51946  23597430.961    23597432.6954   23597441.1274
     -1240.823        -966.875
 97  5 14 16 52 29.9980000  0  7  9  2 27  4  7 26 15               -0.001545099
  -9486013.090 9  -7090901.15546  23574280.493    23574282.5704   23574290.9544
      3869.370        3015.093
  -2138052.064 9  -1659767.50148  20779316.273    20779318.0274   20779324.2904
       -77.767         -60.598
   6498647.645 9   5064084.21447  21524595.239    21524597.2934   21524603.9624
     -2446.375       -1906.266
  -6896955.941 9  -5358925.50446  23485511.909    23485514.5684   23485522.4854
      4126.312        3215.308
  -9838639.432 9  -7646831.63848  19737936.041    19737938.2044   19737944.8174
       578.440         450.732
  -5107137.942 9  -3967680.10448  22308804.059    22308806.4224   22308813.5654
      -488.395        -380.567
  -1744234.547 8  -1349273.42446  23604565.259    23604567.1184   23604575.5584
     -1258.088        -980.328
 97  5 14 16 52 59.9980000  0  7  9  2 27  4  7 26 15               -0.001556719
  -9602042.692 9  -7181313.74146  23552200.829    23552202.7604   23552211.1254
      3866.644        3012.969
  -2135641.567 9  -1657889.19348  20779775.011    20779776.7524   20779783.0344
       -82.400         -64.208
   6572212.362 9   5121407.33447  21538594.305    21538596.2394   21538602.8814
     -2457.125       -1914.643
  -7020744.953 9  -5455384.39146  23461955.672    23461958.2994   23461966.2054
      4127.021        3215.861
  -9855764.215 9  -7660175.61648  19734677.299    19734679.4604   19734686.0854
       564.046         439.516
  -5092267.512 9  -3956092.78348  22311633.789    22311636.1774   22311643.3334
      -502.199        -391.324
  -1706240.441 9  -1319667.70046  23611795.499    23611797.1634   23611805.6374
     -1274.161        -992.853
 97  5 14 16 53 29.9980000  0  7  9  2 27  4  7 26 15               -0.001568354
  -9717962.241 9  -7271640.60546  23530142.006    23530143.9194   23530152.1444
      3862.041        3009.383
  -2133052.575 9  -1655871.80448  20780267.578    20780269.4514   20780275.7324
       -89.568         -69.793
   6646120.459 9   5178998.01947  21552658.492    21552660.4984   21552667.1594
     -2469.194       -1924.047
  -7144518.090 9  -5551830.89946  23438402.634    23438405.2144   23438412.9474
      4125.029        3214.308
  -9872432.213 9  -7673163.65548  19731505.400    19731507.6234   19731514.2734
       547.819         426.872
  -5076954.325 9  -3944160.47048  22314547.761    22314550.2044   22314557.3554
      -518.022        -403.654
  -1667731.142 9  -1289660.47146  23619123.774    23619125.2974   23619133.6894
     -1292.459       -1007.111
 97  5 14 16 53 59.9980000  0  7  9  2 27  4  7 26 15               -0.001580014
  -9833793.615 9  -7361898.74046  23508100.175    23508101.9334   23508110.0984
      3859.131        3007.115
  -2130287.368 9  -1653717.10648  20780793.909    20780795.6494   20780801.9354
       -95.644         -74.528
   6720330.103 9   5236823.66547  21566779.961    21566782.1604   21566788.8574
     -2479.166       -1931.818
  -7268269.941 9  -5648260.84546  23414853.206    23414855.8454   23414863.4794
      4124.081        3213.570
  -9888663.556 9  -7685811.44748  19728416.629    19728418.8694   19728425.5794
       533.403         415.639
  -5061220.570 9  -3931900.42748  22317541.834    22317544.3074   22317551.4204
      -531.796        -414.386
  -1628721.072 8  -1259263.07646  23626546.987    23626548.6284   23626557.0264
     -1309.142       -1020.111
 97  5 14 16 54 29.9980000  0  7  9  2 27  4  7 26 15               -0.001591688
  -9949519.447 9  -7452074.64746  23486078.190    23486079.9624   23486088.0734
      3855.958        3004.642
  -2127329.950 9  -1651412.62948  20781356.705    20781358.4444   20781364.7214
      -101.466         -79.064
   6794850.176 9   5294891.21247  21580960.736    21580962.8754   21580969.5924
     -2488.688       -1939.237
  -7391983.898 9  -5744661.26146  23391311.121    23391313.8014   23391321.3864
      4123.742        3213.305
  -9904465.603 9  -7698124.72648  19725409.628    19725411.8274   19725418.5664
       520.219         405.365
  -5045068.278 9  -3919314.25548  22320615.526    22320618.0274   22320625.1164
      -544.996        -424.672
  -1589205.725 8  -1228471.96045  23634066.071    23634068.2404   23634076.5574
     -1325.070       -1032.522
 97  5 14 16 54 59.9980000  0  7  9  2 27  4  7 26 15               -0.001603374
 -10065128.286 9  -7542159.39246  23464078.058    23464080.2154   23464088.3924
      3851.248        3000.972
  -2124175.802 9  -1648954.85248  20781956.816    20781958.6644   20781964.9214
      -108.761         -84.749
   6869668.900 9   5353191.48047  21595198.338    21595200.3974   21595207.1314
     -2499.309       -1947.514
  -7515679.446 9  -5841047.33946  23367772.753    23367775.2994   23367782.7174
      4122.473        3212.317
  -9919853.388 9  -7710115.19848  19722481.391    19722483.6134   19722490.3674
       505.680         394.036
  -5028491.698 9  -3906397.47948  22323770.022    22323772.4694   22323779.5724
      -560.221        -436.536
  -1549199.759 8  -1197298.49145  23641679.259    23641681.0184   23641689.3334
     -1341.996       -1045.711
 97  5 14 16 55 29.9980000  0  7  9  2 27  4  7 26 15               -0.001615057
 -10180600.202 9  -7632137.44646  23442104.287    23442106.5744   23442114.6564
      3846.819        2997.521
  -2120816.141 9  -1646336.94448  20782596.161    20782597.9984   20782604.2414
      -115.084         -89.676
   6944808.155 9   5411741.50747  21609496.829    21609498.9284   21609505.7644
     -2510.041       -1955.876
  -7639332.721 9  -5937400.48246  23344242.215    23344244.8024   23344252.2214
      4120.976        3211.150
  -9934808.969 9  -7721768.89548  19719635.529    19719637.6514   19719644.3654
       491.239         382.784
  -5011452.303 9  -3893120.07148  22327012.530    22327014.9574   22327022.1244
      -575.743        -448.631
  -1508695.161 8  -1165736.48545  23649387.623    23649388.9654   23649397.0074
     -1358.364       -1058.465
 97  5 14 16 55 59.9980000  0  7  9  2 27  4  7 26 15               -0.001626743
 -10295939.951 9  -7722012.52846  23420155.619    23420158.0424   23420165.9034
      3841.822        2993.628
  -2117285.492 9  -1643585.79948  20783268.020    20783269.8604   20783276.0834
      -120.846         -94.166
   7020270.252 9   5470543.10147  21623857.066    21623858.8974   21623865.8214
     -2521.412       -1964.737
  -7762949.891 9  -6033725.50446  23320718.714    23320721.2464   23320728.6054
      4119.526        3210.020
  -9949340.534 9  -7733092.18548  19716870.407    19716872.4164   19716879.0604
       476.864         371.582
  -4993957.406 9  -3879487.73147  22330341.672    22330344.1224   22330351.3494
      -591.208        -460.682
  -1467706.282 8  -1133797.16645  23657187.779    23657188.9084   23657196.8724
     -1374.722       -1071.212
 97  5 14 16 56 29.9980000  0  7  9  2 27  4  7 26 15               -0.001638424
 -10411124.418 9  -7811766.59546  23398236.714    23398239.0974   23398246.9374
      3836.181        2989.232
  -2113588.371 9  -1640704.93848  20783971.490    20783973.3954   20783979.6464
      -126.644         -98.684
   7096074.183 9   5529611.04847  21638282.187    21638283.9544   21638290.8754
     -2533.064       -1973.816
  -7886527.088 9  -6130019.36146  23297202.281    23297205.1474   23297212.6324
      4117.991        3208.824
  -9963440.635 9  -7744079.26948  19714187.271    19714189.2724   19714195.8774
       462.095         360.074
  -4975993.979 9  -3865490.27547  22333759.936    22333762.4664   22333769.7064
      -607.279        -473.204
  -1426233.704 8  -1101480.85745  23665079.821    23665080.9354   23665088.8744
     -1391.089       -1083.965
 97  5 14 16 56 59.9980000  0  7  9  2 27  4  7 26 15               -0.001650086
 -10526132.144 9  -7901382.94546  23376351.853    23376353.8604   23376361.7004
      3827.833        2982.727
  -2109714.191 9  -1637686.10648  20784708.805    20784710.6344   20784716.9154
      -134.909        -105.124
   7172235.794 9   5588957.70447  21652775.327    21652777.0974   21652784.0474
     -2547.687       -1985.211
  -8010044.595 9  -6226266.74146  23273697.894    23273700.6674   23273707.9954
      4113.105        3205.017
  -9977085.279 9  -7754711.45148  19711590.735    19711592.7494   19711599.3404
       444.495         346.360
  -4957532.334 9  -3851104.59847  22337272.985    22337275.6134   22337282.8264
      -626.679        -488.321
  -1384258.103 8  -1068772.64145  23673067.945    23673068.5194   23673076.7774
     -1410.547       -1099.128
 97  5 14 16 57 29.9980000  0  7  9  2 27  4  7 26 15               -0.001661723
 -10640969.319 9  -7990866.38346  23354499.207    23354501.0944   23354508.9584
      3826.053        2981.340
  -2105661.992 9  -1634528.56248  20785479.926    20785481.7424   20785488.0184
      -137.460        -107.112
   7248767.593 9   5648592.82247  21667338.934    21667340.7034   21667347.5964
     -2556.526       -1992.098
  -8133482.204 9  -6322451.83346  23250208.429    23250211.2404   23250218.5894
      4114.061        3205.762
  -9990286.031 9  -7764997.75148  19709078.678    19709080.7304   19709087.3034
       433.515         337.804
  -4938572.870 9  -3836331.01647  22340880.992    22340883.5374   22340890.6894
      -639.165        -498.051
  -1341769.928 8  -1035665.00745  23681152.767    23681153.6054   23681161.9684
     -1424.021       -1109.627
 97  5 14 16 57 59.9980000  0  7  9  2 27  4  7 26 15               -0.001673345
 -10755663.167 9  -8080238.12746  23332673.366    23332675.5404   23332683.5044
      3820.451        2976.975
  -2101430.809 9  -1631231.54848  20786285.178    20786286.9404   20786293.2044
      -144.575        -112.656
   7325655.806 9   5708505.68547  21681970.412    21681972.1394   21681978.9774
     -2569.063       -2001.867
  -8256860.388 9  -6418590.64146  23226730.374    23226733.0984   23226740.4194
      4111.372        3203.666
 -10003072.008 9  -7774960.84348  19706645.678    19706647.6444   19706654.2034
       419.034         326.520
  -4919158.824 9  -3821203.21748  22344575.445    22344577.9394   22344585.1104
      -654.802        -510.235
  -1298786.156 9  -1002171.15045  23689332.057    23689333.1604   23689341.1474
     -1441.326       -1123.111
 97  5 14 16 58 29.9980000  0  7  9  2 27  4  7 26 15               -0.001684942
 -10870194.330 9  -8169483.11246  23310878.750    23310880.9604   23310888.9524
      3815.324        2972.980
  -2096975.292 9  -1627759.72548  20787133.093    20787134.8264   20787141.0974
      -152.287        -118.665
   7402914.799 9   5768707.46547  21696672.233    21696674.0894   21696680.9414
     -2581.349       -2011.441
  -8380157.866 9  -6514666.56846  23203267.460    23203270.3714   23203277.6784
      4108.620        3201.522
 -10015420.942 9  -7784583.38548  19704295.892    19704297.7424   19704304.2904
       404.372         315.095
  -4899283.537 9  -3805716.01347  22348357.621    22348360.0854   22348367.2964
      -670.012        -522.087
  -1255284.935 9   -968274.13346  23697610.090    23697611.2844   23697619.1344
     -1458.679       -1136.633
 97  5 14 16 58 59.9980000  0  7  9  2 27  4  7 26 15               -0.001696546
 -10984632.095 9  -8258655.31146  23289101.881    23289104.1674   23289112.1094
      3813.500        2971.558
  -2092333.451 9  -1624142.71748  20788016.418    20788018.1374   20788024.4164
      -157.666        -122.857
   7480496.390 9   5829160.61547  21711435.656    21711437.4144   21711444.2114
     -2591.129       -2019.062
  -8503412.588 9  -6610709.14446  23179812.966    23179815.7034   23179823.1364
      4108.000        3201.039
 -10027383.338 9  -7793904.73148  19702019.464    19702021.4264   19702027.9444
       392.674         305.980
  -4879000.873 9  -3789911.35748  22352217.304    22352219.7874   22352226.9734
      -682.564        -531.868
  -1211306.314 9   -934005.09246  23705978.656    23705980.2704   23705988.0224
     -1473.584       -1148.247
 97  5 14 16 59 29.9980000  0  7  9  2 27  4  7 26 15               -0.001708157
 -11098977.902 9  -8347755.87147  23267342.373    23267344.8344   23267352.8014
      3810.082        2968.895
  -2087489.816 9  -1620368.46548  20788938.130    20788939.8514   20788946.1504
      -164.655        -128.303
   7558405.290 9   5889868.80247  21726261.218    21726263.0084   21726269.8174
     -2602.154       -2027.652
  -8626617.710 9  -6706713.14146  23156367.852    23156370.5794   23156377.8854
      4106.228        3199.658
 -10038953.829 9  -7802920.69248  19699817.653    19699819.6484   19699826.1754
       379.058         295.370
  -4858316.193 9  -3773793.46148  22356153.473    22356155.9564   22356163.1464
      -695.899        -542.259
  -1166849.866 9   -899363.72746  23714438.642    23714440.1714   23714447.6644
     -1489.604       -1160.730
 97  5 14 16 59 59.9980000  0  7  9  2 27  4  7 26 15               -0.001719785
 -11213217.948 9  -8436773.99946  23245603.257    23245605.6204   23245613.5784
      3805.564        2965.375
  -2082445.522 9  -1616437.85348  20789898.031    20789899.7504   20789906.0624
      -171.934        -133.975
   7636625.917 9   5950819.89247  21741146.167    21741147.9934   21741154.7064
     -2612.826       -2035.968
  -8749770.528 9  -6802676.34446  23132932.577    23132935.3524   23132942.7384
      4103.676        3197.670
 -10050111.364 9  -7811614.86848  19697694.421    19697696.4384   19697702.9664
       364.390         283.940
  -4837228.337 9  -3757361.38447  22360166.458    22360168.8604   22360176.0704
      -710.342        -553.513
  -1121920.975 9   -864354.21746  23722988.384    23722990.0794   23722997.6524
     -1506.011       -1173.515
 97  5 14 17  0 29.9980000  0  7  9  2 27  4  7 26 15               -0.001731419
 -11327325.487 9  -8525688.87547  23223889.431    23223891.6234   23223899.5874
      3801.580        2962.270
  -2077181.898 9  -1612336.33248  20790899.613    20790901.4034   20790907.7154
      -178.833        -139.350
   7715162.355 9   6012017.07547  21756091.257    21756093.0344   21756099.7094
     -2622.965       -2043.869
  -8872844.077 9  -6898577.78646  23109512.502    23109515.2234   23109522.6304
      4101.350        3195.857
 -10060825.435 9  -7819963.49348  19695655.592    19695657.6104   19695664.1394
       349.997         272.725
  -4815699.105 9  -3740585.37848  22364263.295    22364265.7284   22364272.9574
      -725.026        -564.955
  -1076495.420 9   -828957.73546  23731632.299    23731634.3174   23731641.9214
     -1522.272       -1186.186
 97  5 14 17  0 59.9980000  0  7  9  2 27  4  7 26 15               -0.001743066
 -11441311.728 9  -8614509.24247  23202198.691    23202200.6774   23202208.7114
      3797.201        2958.858
  -2071727.576 9  -1608086.21248  20791937.519    20791939.3474   20791945.6334
      -184.824        -144.019
   7793988.333 9   6073439.87047  21771091.193    21771093.1204   21771099.8374
     -2632.096       -2050.984
  -8995859.266 9  -6994433.74046  23086103.544    23086106.1714   23086113.6194
      4099.624        3194.512
 -10071123.067 9  -7827987.61848  19693696.093    19693698.0154   19693704.5434
       336.444         262.164
  -4793730.649 9  -3723467.12147  22368443.780    22368446.2184   22368453.4244
      -739.394        -576.151
  -1030597.623 9   -793193.26546  23740366.558    23740368.4064   23740376.1034
     -1537.594       -1198.125
 97  5 14 17  1 29.9980000  0  7  9  2 27  4  7 26 15               -0.001754722
 -11555133.820 9  -8703201.70547  23180538.774    23180541.0324   23180548.9454
      3791.123        2954.122
  -2066077.746 9  -1603683.74648  20793012.752    20793014.4664   20793020.7304
      -191.709        -149.384
   7873098.422 9   6135084.04247  21786145.441    21786147.3104   21786154.0824
     -2641.881       -2058.609
  -9118807.900 9  -7090237.85346  23062707.272    23062709.8214   23062717.3324
      4096.951        3192.429
 -10080988.733 9  -7835675.14848  19691818.732    19691820.6594   19691827.1884
       321.360         250.410
  -4771326.042 9  -3706009.01247  22372707.271    22372709.7044   22372716.9214
      -754.096        -587.607
   -984224.368 9   -757058.26746  23749191.049    23749192.8714   23749200.5894
     -1553.898       -1210.830
 97  5 14 17  1 59.9980000  0  7  9  2 27  4  7 26 15               -0.001766387
 -11668786.903 9  -8791762.47847  23158911.058    23158913.5654   23158921.3724
      3786.748        2950.713
  -2060229.610 9  -1599126.75848  20794125.646    20794127.3654   20794133.6004
      -197.148        -153.622
   7952494.388 9   6196950.99447  21801254.028    21801255.8324   21801262.7064
     -2650.419       -2065.262
  -9241686.760 9  -7185987.57946  23039324.083    23039326.7884   23039334.3524
      4095.855        3191.575
 -10090416.710 9  -7843021.62248  19690024.727    19690026.5394   19690033.0834
       308.217         240.169
  -4748489.641 9  -3688214.45047  22377053.106    22377055.3534   22377062.5524
      -767.346        -597.932
   -937372.154 9   -720550.07446  23758106.626    23758108.5734   23758116.4774
     -1568.709       -1222.371
 97  5 14 17  2 29.9980000  0  7  9  2 27  4  7 26 15               -0.001778082
 -11782316.433 9  -8880226.95847  23137307.254    23137309.6254   23137317.2994
      3781.419        2946.560
  -2054226.533 9  -1594449.03548  20795267.986    20795269.7264   20795275.9524
      -203.410        -158.501
   8032148.560 9   6259019.13847  21816411.709    21816413.5724   21816420.4394
     -2660.432       -2073.064
  -9364531.387 9  -7281710.65146  23015947.635    23015950.2534   23015957.7544
      4093.321        3189.601
 -10099457.920 9  -7850066.71948  19688304.214    19688306.0464   19688312.5964
       294.179         229.230
  -4725271.302 9  -3670122.23847  22381471.373    22381473.6994   22381480.8574
      -780.841        -608.447
   -890079.860 9   -683699.02046  23767106.062    23767107.9754   23767116.0084
     -1584.433       -1234.623
 97  5 14 17  2 59.9980000  0  7  9  2 27  4  7 26 15               -0.001789771
 -11895662.553 9  -8968548.53247  23115738.231    23115740.5144   23115748.1684
      3774.469        2941.145
  -2048017.002 9  -1589610.44048  20796449.659    20796451.4004   20796457.6124
      -211.054        -164.458
   8112130.276 9   6321342.49347  21831631.498    21831633.6204   21831640.5404
     -2672.239       -2082.264
  -9487270.748 9  -7377351.68346  22992591.551    22992593.7524   22992601.2574
      4088.676        3185.981
 -10108055.853 9  -7856766.40548  19686668.158    19686669.9284   19686676.4814
       278.479         216.997
  -4701638.026 9  -3651706.72547  22385968.674    22385970.9914   22385978.0974
      -795.104        -619.562
   -842298.504 9   -646466.83046  23776198.827    23776200.5984   23776208.5604
     -1601.530       -1247.945
 97  5 14 17  3 29.9980000  0  7  9  2 27  4  7 26 15               -0.001801470
 -12008849.719 9  -9056746.24247  23094199.070    23094201.6254   23094209.3184
      3770.627        2938.151
  -2041614.493 9  -1584621.47548  20797668.214    20797669.8064   20797675.9734
      -216.568        -168.754
   8192433.661 9   6383916.51347  21846912.966    21846914.8934   21846921.8404
     -2682.177       -2090.008
  -9609905.512 9  -7472911.21846  22969254.626    22969257.0814   22969264.5624
      4086.159        3184.020
 -10116213.650 9  -7863123.12848  19685115.853    19685117.5404   19685124.0974
       264.727         206.281
  -4677617.156 9  -3632989.16047  22390539.780    22390541.9604   22390549.1104
      -807.331        -629.089
   -794043.441 9   -608865.46946  23785381.856    23785383.2284   23785391.2184
     -1616.282       -1259.441
 97  5 14 17  3 59.9980000  0  7  9  2 27  4  7 26 15               -0.001813170
 -12121888.590 9  -9144828.41847  23072688.835    23072691.0204   23072698.6554
      3765.008        2933.772
  -2035016.198 9  -1579479.95348  20798923.871    20798925.4464   20798931.6044
      -223.485        -174.144
   8273069.355 9   6446749.47447  21862257.679    21862259.3904   21862266.3584
     -2693.565       -2098.882
  -9732430.273 9  -7568385.04146  22945938.909    22945941.4814   22945948.8484
      4081.955        3180.744
 -10123941.571 9  -7869144.88848  19683645.097    19683646.9094   19683653.4994
       250.385         195.105
  -4653182.980 9  -3613949.57047  22395189.433    22395191.6544   22395198.8434
      -821.758        -640.331
   -745314.618 9   -570895.03446  23794654.607    23794656.0874   23794664.0424
     -1632.437       -1272.029
 97  5 14 17  4 29.9980000  0  7  9  2 27  4  7 26 15               -0.001824858
 -12234752.843 9  -9232774.50447  23051211.890    23051213.5744   23051221.1804
      3759.195        2929.243
  -2028219.343 9  -1574183.70148  20800217.251    20800218.8704   20800225.0254
      -229.878        -179.126
   8354032.543 9   6509837.62847  21877664.424    21877666.2064   21877673.1184
     -2704.106       -2107.095
  -9854831.637 9  -7663762.68846  22922646.789    22922649.2304   22922656.5754
      4077.953        3177.626
 -10131249.977 9  -7874839.74748  19682254.371    19682256.1894   19682262.7424
       236.634         184.390
  -4628323.963 9  -3594578.93847  22399920.025    22399922.2294   22399929.4204
      -835.792        -651.266
   -696109.424 9   -532553.40946  23804017.979    23804019.5814   23804027.5834
     -1648.024       -1284.175
 97  5 14 17  4 59.9980000  0  7  9  2 27  4  7 26 15               -0.001836535
 -12347444.524 9  -9320586.13847  23029767.295    23029769.0364   23029776.6494
      3753.737        2924.990
  -2021230.972 9  -1568738.22948  20801547.026    20801548.6884   20801554.8604
      -235.724        -183.681
   8435304.724 9   6573166.54847  21893130.103    21893131.8594   21893138.7924
     -2713.728       -2114.593
  -9977115.382 9  -7759048.69846  22899377.012    22899379.3354   22899386.7754
      4074.596        3175.010
 -10138151.620 9  -7880217.65448  19680941.007    19680942.8364   19680949.4284
       223.797         174.387
  -4603030.502 9  -3574869.77347  22404733.273    22404735.4474   22404742.6604
      -850.200        -662.494
   -646441.030 9   -493850.81046  23813469.448    23813471.2074   23813479.2164
     -1662.976       -1295.825
 97  5 14 17  5 29.9980000  0  7  9  2 27  4  7 26 15               -0.001848196
 -12459961.819 9  -9408261.88047  23008356.123    23008357.6844   23008365.2774
      3747.507        2920.135
  -2014054.136 9  -1563145.88548  20802912.680    20802914.3604   20802920.5924
      -242.612        -189.048
   8516870.927 9   6636724.57147  21908651.480    21908653.3894   21908660.3924
     -2723.825       -2122.461
 -10099293.371 9  -7854252.30746  22876127.242    22876129.6104   22876137.0404
      4070.861        3172.099
 -10144669.320 9  -7885296.37748  19679700.720    19679702.5044   19679709.1074
       210.924         164.356
  -4577286.604 9  -3554809.62947  22409632.111    22409634.3814   22409641.5724
      -865.863        -674.698
   -596315.377 8   -454791.88946  23823007.817    23823009.7544   23823017.9124
     -1678.612       -1308.009
 97  5 14 17  5 59.9980000  0  7  9  2 27  4  7 26 15               -0.001859894
 -12572284.421 9  -9495785.90747  22986982.019    22986983.3454   22986990.9164
      3740.791        2914.902
  -2006670.708 9  -1557392.57348  20804317.716    20804319.3774   20804325.6124
      -249.586        -194.483
   8598734.081 9   6700513.98947  21924229.522    21924231.4894   21924238.4604
     -2733.768       -2130.209
 -10221355.314 9  -7949365.47046  22852899.394    22852901.9464   22852909.3334
      4066.674        3168.837
 -10150805.106 9  -7890077.51348  19678533.103    19678534.9084   19678541.4704
       197.961         154.255
  -4551082.127 9  -3534390.58947  22414618.669    22414620.8964   22414628.1264
      -880.927        -686.437
   -545721.549 8   -415368.18646  23832635.526    23832637.3924   23832645.7074
     -1694.285       -1320.222
 97  5 14 17  6 29.9980000  0  7  9  2 27  4  7 26 15               -0.001871518
 -12684436.852 9  -9583177.32747  22965640.044    22965641.2964   22965648.9434
      3735.515        2910.791
  -1999099.300 9  -1551492.78248  20805758.520    20805760.1484   20805766.4154
      -255.766        -199.298
   8680883.206 9   6764526.21947  21939862.002    21939863.9614   21939870.9294
     -2743.655       -2137.913
 -10343313.012 9  -8044397.38446  22829691.381    22829694.0454   22829701.5664
      4063.093        3166.046
 -10156558.706 9  -7894560.83748  19677438.216    19677440.0194   19677446.5934
       184.895         144.074
  -4524447.421 9  -3513636.29147  22419686.957    22419689.3654   22419696.5814
      -895.297        -697.634
   -494678.363 8   -375594.29146  23842348.449    23842350.6744   23842359.0194
     -1709.210       -1331.852
 97  5 14 17  6 59.9980000  0  7  9  2 27  4  7 26 15               -0.001883145
 -12796437.232 9  -9670450.28147  22944326.454    22944328.2284   22944335.9194
      3731.071        2907.328
  -1991331.219 9  -1545439.73848  20807236.782    20807238.3974   20807244.6494
      -262.052        -204.196
   8763341.421 9   6828779.31547  21955553.268    21955555.2694   21955562.2364
     -2753.459       -2145.552
 -10465154.731 9  -8139338.93746  22806505.684    22806508.3124   22806515.8174
      4059.759        3163.448
 -10161913.389 9  -7898733.31348  19676419.272    19676421.0784   19676427.6644
       172.226         134.202
  -4497380.786 9  -3492545.42547  22424837.492    22424839.9554   22424847.2174
      -908.761        -708.125
   -443180.755 7   -335466.38645  23852147.763    23852150.2554   23852158.7284
     -1723.823       -1343.239
 97  5 14 17  7 29.9980000  0  7  9  2 27  4  7 26 15               -0.001894780
 -12908303.912 9  -9757619.06047  22923038.694    22923040.6634   22923048.3034
      3726.450        2903.727
  -1983364.334 9  -1539231.78948  20808752.863    20808754.4504   20808760.6974
      -269.277        -209.826
   8846098.594 9   6893265.36547  21971301.556    21971303.4804   21971310.4254
     -2763.899       -2153.688
 -10586896.799 9  -8234202.84946  22783338.978    22783341.5074   22783348.9604
      4056.068        3160.572
 -10166882.862 9  -7902605.62948  19675473.745    19675475.4804   19675482.0554
       158.760         123.709
  -4469927.354 9  -3471153.17247  22430061.792    22430064.2184   22430071.4894
      -921.693        -718.202
   -391243.231 8   -294995.73145  23862031.103    23862033.2924   23862041.9844
     -1738.843       -1354.943
 97  5 14 17  7 59.9980000  0  7  9  2 27  4  7 26 15               -0.001906426
 -13020019.398 9  -9844670.02147  22901780.192    22901781.8704   22901789.4704
      3721.702        2900.028
  -1975183.057 9  -1532856.77948  20810309.634    20810311.2764   20810317.5564
      -275.618        -214.767
   8929169.127 9   6957995.56547  21987109.279    21987111.3224   21987118.2254
     -2773.682       -2161.311
 -10708520.914 9  -8328974.85246  22760194.640    22760197.1654   22760204.5764
      4052.669        3157.924
 -10171434.987 9  -7906152.73648  19674607.564    19674609.2434   19674615.8374
       145.209         113.150
  -4442089.112 9  -3449461.07647  22435359.319    22435361.6764   22435368.9394
      -933.655        -727.523
   -338850.046 8   -254169.84646  23872001.020    23872003.5074   23872012.1824
     -1753.486       -1366.353
 97  5 14 17  8 29.9980000  0  7  9  2 27  4  7 26 15               -0.001918099
 -13131594.779 9  -9931611.81747  22880547.812    22880549.6984   22880557.3124
      3716.120        2895.678
  -1966809.790 9  -1526332.16348  20811902.902    20811904.6384   20811910.9104
      -282.881        -220.427
   9012526.311 9   7022949.12847  22002971.510    22002973.7184   22002980.6374
     -2783.599       -2169.038
 -10830050.827 9  -8423673.44646  22737068.019    22737070.6704   22737078.1584
      4049.024        3155.084
 -10175593.584 9  -7909393.19848  19673816.209    19673817.9004   19673824.5314
       132.006         102.862
  -4413901.775 9  -3427496.96547  22440723.208    22440725.5624   22440732.8184
      -945.561        -736.801
   -286026.291 8   -213008.55546  23882053.345    23882055.6324   23882064.3354
     -1768.343       -1377.930
 97  5 14 17  8 59.9980000  0  7  9  2 27  4  7 26 15               -0.001929751
 -13242983.885 9 -10018408.46647  22859351.076    22859353.0024   22859360.6164
      3709.331        2890.388
  -1958209.867 9  -1519630.93548  20813539.357    20813541.1514   20813547.4324
      -290.760        -226.566
   9096168.667 9   7088124.88247  22018887.985    22018890.3794   22018897.2974
     -2792.761       -2176.177
 -10951470.072 9  -8518285.81146  22713962.873    22713965.3324   22713972.8094
      4045.318        3152.196
 -10179366.666 9  -7912333.25848  19673098.206    19673099.9234   19673106.5594
       119.151          92.845
  -4385369.809 9  -3405264.30847  22446152.692    22446155.0954   22446162.3484
      -957.024        -745.733
   -232756.769 9   -171499.94846  23892190.825    23892192.5414   23892201.4094
     -1783.311       -1389.593
 97  5 14 17  9 29.9980000  0  7  9  2 27  4  7 26 15               -0.001941389
 -13354179.182 9 -10105054.08647  22838191.827    22838193.2134   22838200.8424
      3703.184        2885.598
  -1949398.309 9  -1512764.80148  20815216.159    20815217.9354   20815224.2314
      -297.025        -231.448
   9180064.796 9   7153498.40347  22034852.914    22034855.2464   22034862.2844
     -2800.850       -2182.481
 -11072800.045 9  -8612828.63846  22690874.427    22690877.0524   22690884.4314
      4042.681        3150.141
 -10182767.477 9  -7914983.23848  19672451.023    19672452.7404   19672459.3894
       106.989          83.368
  -4356505.304 9  -3382772.52147  22451645.445    22451647.8624   22451655.0544
      -968.075        -754.344
   -179058.062 9   -129656.85246  23902409.444    23902411.2144   23902419.9034
     -1797.197       -1400.413
 97  5 14 17  9 59.9980000  0  7  9  2 27  4  7 26 15               -0.001953007
 -13465145.153 9 -10191521.02147  22817075.437    22817077.0574   22817084.7274
      3694.809        2879.072
  -1940368.760 9  -1505728.80848  20816934.389    20816936.1964   20816942.5414
      -304.808        -237.513
   9264242.688 9   7219091.49447  22050871.539    22050873.8594   22050880.9154
     -2810.916       -2190.324
 -11194006.227 9  -8707274.97147  22667809.536    22667812.1994   22667819.6674
      4037.925        3146.435
 -10185761.056 9  -7917315.89148  19671881.340    19671883.0984   19671889.7484
        92.777          72.294
  -4327260.884 9  -3359984.69747  22457210.575    22457212.9744   22457220.1664
      -981.368        -764.702
   -124902.082 9    -87457.41146  23912714.423    23912716.7814   23912725.4644
     -1812.939       -1412.680
 97  5 14 17 10 29.9980000  0  7  9  2 27  4  7 26 15               -0.001964613
 -13575903.956 9 -10277826.53447  22795998.513    22796000.3054   22796007.9974
      3688.628        2874.256
  -1931136.136 9  -1498534.56948  20818691.251    20818693.1224   20818699.5044
      -311.044        -242.372
   9348692.486 9   7284896.47147  22066941.678    22066944.1594   22066951.1764
     -2819.647       -2197.128
 -11315108.314 9  -8801640.18047  22644764.449    22644767.1664   22644774.7994
      4034.830        3144.023
 -10188371.963 9  -7919350.36248  19671384.573    19671386.2734   19671392.8874
        80.558          62.772
  -4297650.298 9  -3336911.55447  22462845.295    22462847.6884   22462854.8944
      -993.281        -773.985
    -70312.226 8    -44919.89945  23923102.561    23923105.0244   23923113.6184
     -1826.939       -1423.589
 97  5 14 17 10 59.9980000  0  7  9  2 27  4  7 26 15               -0.001976219
 -13686458.460 9 -10363972.82147  22774960.738    22774962.4434   22774970.1624
      3682.033        2869.117
  -1921701.651 9  -1491183.03648  20820486.604    20820488.4364   20820494.8894
      -317.615        -247.492
   9433435.887 9   7350930.22847  22083067.952    22083070.2894   22083077.3854
     -2829.794       -2205.034
 -11436080.427 9  -8895904.13647  22621744.211    22621746.9074   22621754.6004
      4030.051        3140.299
 -10190569.925 9  -7921063.05648  19670966.252    19670967.9934   19670974.5614
        66.023          51.446
  -4267639.231 9  -3313526.35347  22468556.088    22468558.6104   22468565.8274
     -1007.417        -785.000
    -15281.221 8     -2038.71345  23933574.596    23933577.0544   23933585.5284
     -1841.752       -1435.131
 97  5 14 17 11 29.9980000  0  7  9  2 27  4  7 26 15               -0.001987854
 -13796824.109 9 -10449971.96947  22753958.521    22753960.4594   22753968.1644
      3675.991        2864.409
  -1912084.462 9  -1483689.13348  20822316.613    20822318.5044   20822325.0094
      -323.364        -251.972
   9518487.649 9   7417204.26647  22099253.177    22099255.2114   22099262.2784
     -2839.934       -2212.936
 -11556901.766 9  -8990050.59847  22598752.858    22598755.3244   22598763.0934
      4024.836        3136.236
 -10192332.769 9  -7922436.69648  19670630.714    19670632.5434   19670639.0934
        51.964          40.491
  -4237197.794 9  -3289805.77947  22474348.919    22474351.4644   22474358.6114
     -1021.547        -796.011
     40193.925 9     41188.58045  23944131.672    23944133.7794   23944142.2084
     -1856.303       -1446.470
 97  5 14 17 11 59.9980000  0  7  9  2 27  4  7 26 15               -0.001999520
 -13907016.462 9 -10535836.06947  22732989.503    22732991.4354   22732999.2424
      3670.925        2860.461
  -1902290.677 9  -1476057.62648  20824180.311    20824182.1984   20824188.7234
      -328.858        -256.253
   9603830.575 9   7483705.19747  22115493.196    22115495.5324   22115502.5954
     -2848.648       -2219.726
 -11677571.161 9  -9084078.66647  22575789.870    22575792.6394   22575800.4434
      4020.618        3132.949
 -10193685.437 9  -7923490.72048  19670373.331    19670375.1544   19670381.6494
        39.101          30.468
  -4206345.322 9  -3265764.91547  22480219.924    22480222.5084   22480229.5674
     -1034.344        -805.982
     96096.269 9     84748.80045  23954769.753    23954771.7524   23954779.9834
     -1869.657       -1456.876
 97  5 14 17 12 29.9980000  0  7  9  2 27  4  7 26 15               -0.002011213
 -14017041.372 9 -10621569.69447  22712052.501    22712054.3524   22712062.0914
      3665.051        2855.884
  -1892319.715 9  -1468288.05848  20826077.775    20826079.6084   20826086.1584
      -334.834        -260.910
   9689432.192 9   7550407.68547  22131782.493    22131785.0334   22131792.1114
     -2856.990       -2226.226
 -11798096.703 9  -9177994.63347  22552854.494    22552857.2854   22552865.1994
      4015.265        3128.778
 -10194649.456 9  -7924241.89548  19670189.855    19670191.7054   19670198.1624
        26.108          20.344
  -4175096.833 9  -3241415.47147  22486166.376    22486168.9044   22486175.9324
     -1047.748        -816.427
    152405.164 9    128626.17855  23965485.260    23965487.0964   23965494.4535
     -1883.392       -1467.578
 97  5 14 17 12 59.9970000  0  7  9  2 27  4  7 26 15               -0.002022933
 -14126884.649 9 -10707161.80547  22691149.906    22691151.8194   22691159.5034
      3657.974        2850.369
  -1882173.285 9  -1460381.75948  20828008.661    20828010.4224   20828016.9934
      -341.799        -266.337
   9775267.128 9   7617292.00347  22148116.850    22148118.9754   22148126.0794
     -2865.609       -2232.942
 -11918456.703 9  -9271781.60146  22529950.683    22529953.4904   22529961.4074
      4009.034        3123.923
 -10195229.315 9  -7924693.72548  19670079.551    19670081.3854   19670087.8064
        12.677           9.878
  -4143455.033 9  -3216759.54447  22492187.600    22492190.1224   22492197.0964
     -1061.631        -827.245
    209123.074 9    172821.77946  23976278.490    23976280.1904   23976288.1954
     -1898.100       -1479.039
 97  5 14 17 13 29.9970000  0  7  9  2 27  4  7 26 15               -0.002034644
 -14236519.290 9 -10792591.33347  22670287.234    22670288.9804   22670296.6204
      3650.740        2844.732
  -1871811.573 9  -1452307.70448  20829980.352    20829982.2264   20829988.8054
      -349.228        -272.126
   9861352.577 9   7684371.52047  22164498.727    22164500.6624   22164507.6524
     -2873.541       -2239.123
 -12038644.009 9  -9365434.02546  22507080.250    22507082.6264   22507090.4644
      4003.375        3119.513
 -10195422.010 9  -7924843.87748  19670042.942    19670044.7464   19670051.1694
         0.038           0.030
  -4111408.163 9  -3191788.00747  22498285.954    22498288.3844   22498295.6374
     -1074.792        -837.500
    266282.532 9    217361.56346  23987155.498    23987157.3054   23987165.3464
     -1912.655       -1490.380
 97  5 14 17 13 59.9970000  0  7  9  2 27  4  7 26 15               -0.002046350
 -14345938.907 9 -10877853.30647  22649464.980    22649467.0864   22649474.6494
      3643.361        2838.983
  -1861225.464 9  -1444058.79548  20831994.850    20831996.7164   20832003.3124
      -356.896        -278.101
   9947670.985 9   7751632.57247  22180924.362    22180926.5264   22180933.5954
     -2881.619       -2245.417
 -12158676.979 9  -9458966.17747  22484238.500    22484241.0074   22484248.9174
      3998.300        3115.558
 -10195232.316 9  -7924696.05648  19670079.072    19670080.8614   19670087.2984
       -13.198         -10.284
  -4078978.551 9  -3166518.22247  22504457.189    22504459.5504   22504466.9274
     -1087.725        -847.578
    323871.673 9    262236.16246  23998114.233    23998116.1774   23998124.3114
     -1927.124       -1501.655
 97  5 14 17 14 29.9970000  0  7  9  2 27  4  7 26 15               -0.002058060
 -14455149.480 9 -10962952.40147  22628683.013    22628684.8794   22628692.4254
      3637.578        2834.476
  -1850424.799 9  -1435642.69848  20834050.077    20834052.0264   20834058.6534
      -363.022        -282.874
  10034228.435 9   7819079.89547  22197395.559    22197397.8364   22197405.0304
     -2888.919       -2251.106
 -12278562.842 9  -9552383.71747  22461424.840    22461427.4704   22461435.2944
      3994.225        3112.383
 -10194655.882 9  -7924246.88748  19670188.718    19670190.5544   19670196.9954
       -25.122         -19.576
  -4046172.708 9  -3140955.26047  22510700.068    22510702.3194   22510709.7064
     -1099.076        -856.423
    381886.786 9    307442.69646  24009154.735    24009156.1154   24009164.4154
     -1940.396       -1511.997
 97  5 14 17 14 59.9970000  0  7  9  2 27  4  7 26 15               -0.002069792
 -14564184.495 9 -11047914.67647  22607934.352    22607936.2134   22607943.7554
      3631.488        2829.731
  -1839431.512 9  -1427076.51248  20836141.994    20836144.0034   20836150.6444
      -369.790        -288.148
  10121021.921 9   7886711.12847  22213912.465    22213914.1664   22213921.4494
     -2897.224       -2257.577
 -12398321.204 9  -9645701.90147  22438635.185    22438638.1944   22438646.0084
      3989.736        3108.885
 -10193712.989 9  -7923512.15648  19670368.186    19670369.9434   19670376.4134
       -37.599         -29.298
  -4013024.465 9  -3115125.49047  22517008.041    22517010.2634   22517017.7374
     -1110.636        -865.431
    440308.844 8    352966.30445  24020271.959    24020273.3324   24020281.9414
     -1954.151       -1522.715
 97  5 14 17 15 29.9970000  0  7  9  2 27  4  7 26 15               -0.002081538
 -14673027.312 9 -11132727.19147  22587222.091    22587224.0814   22587231.7064
      3624.548        2824.323
  -1828223.171 9  -1418342.75248  20838275.002    20838276.8964   20838283.5404
      -377.406        -294.083
  10208072.139 9   7954542.40547  22230477.595    22230479.2394   22230486.6734
     -2906.111       -2264.502
 -12517939.042 9  -9738910.58947  22415872.936    22415875.6894   22415883.3934
      3984.489        3104.797
 -10192386.981 9  -7922478.90248  19670620.485    19670622.2634   19670628.7444
       -50.881         -39.648
  -3979531.930 9  -3089027.45947  22523381.462    22523383.6704   22523391.2074
     -1122.167        -874.416
    499143.458 8    398811.37845  24031467.296    24031469.1074   24031477.7934
     -1968.203       -1533.665
 97  5 14 17 15 59.9970000  0  7  9  2 27  4  7 26 15               -0.002093287
 -14781657.988 9 -11217374.40747  22566550.378    22566552.3204   22566559.9824
      3617.060        2818.488
  -1816795.891 9  -1409438.38448  20840449.627    20840451.4384   20840458.1194
      -384.908        -299.928
  10295386.937 9   8022579.83647  22247092.640    22247094.6364   22247102.1464
     -2915.405       -2271.744
 -12637396.150 9  -9831994.03647  22393141.171    22393143.8134   22393151.4014
      3978.710        3100.294
 -10190670.596 9  -7921141.45648  19670947.008    19670948.8384   19670955.3144
       -63.964         -49.842
  -3945703.848 9  -3062667.95947  22529818.679    22529820.9204   22529828.5204
     -1133.729        -883.425
    558390.377 8    444977.72545  24042742.319    24042743.2954   24042752.2564
     -1982.031       -1544.440
 97  5 14 17 16 29.9970000  0  7  9  2 27  4  7 26 15               -0.002105029
 -14890068.162 9 -11301849.79647  22545920.673    22545922.5214   22545930.1224
      3610.185        2813.131
  -1805150.323 9  -1400363.92548  20842665.737    20842667.5264   20842674.2454
      -391.525        -305.084
  10382974.004 9   8090829.41447  22263760.001    22263761.9524   22263769.5284
     -2923.673       -2278.187
 -12756674.881 9  -9924938.48547  22370443.250    22370445.8724   22370453.2944
      3973.081        3095.907
 -10188572.534 9  -7919506.60448  19671346.241    19671348.0534   19671354.5024
       -75.922         -59.160
  -3911530.445 9  -3036039.38747  22536321.633    22536323.9634   22536331.5734
     -1144.525        -891.838
    618049.730 8    491465.43345  24054095.006    24054095.9684   24054105.0964
     -1995.177       -1554.683
 97  5 14 17 16 59.9970000  0  7  9  2 27  4  7 26 15               -0.002116752
 -14998252.002 9 -11386148.82547  22525333.886    22525335.7544   22525343.3424
      3602.580        2807.205
  -1793301.053 9  -1391130.73648  20844920.632    20844922.3834   20844929.0984
      -397.706        -309.901
  10470816.202 9   8159277.83147  22280476.274    22280477.8524   22280485.4574
     -2931.821       -2284.536
 -12875775.235 9 -10017743.92047  22347778.969    22347781.8334   22347789.2144
      3967.553        3091.600
 -10186113.175 9  -7917590.22348  19671814.334    19671816.0974   19671822.5104
       -87.407         -68.109
  -3877026.388 9  -3009153.15847  22542887.709    22542889.9704   22542897.5314
     -1155.228        -900.178
    678104.277 8    538261.12345  24065523.823    24065524.1894   24065533.0484
     -2007.901       -1564.598
 97  5 14 17 17 29.9970000  0  7  9  2 27  4  7 26 15               -0.002128453
 -15106190.083 9 -11470256.35047  22504793.508    22504795.7464   22504803.3264
      3593.619        2800.223
  -1781255.497 9  -1381744.59548  20847212.816    20847214.5984   20847221.3164
      -404.882        -315.492
  10558918.707 9   8227929.09047  22297241.472    22297243.2334   22297250.8474
     -2941.402       -2292.002
 -12994696.948 9 -10110410.17047  22325149.002    22325151.8154   22325159.2314
      3960.913        3086.426
 -10183293.669 9  -7915393.20948  19672350.914    19672352.6634   19672359.0624
      -100.215         -78.090
  -3842180.450 9  -2982000.53847  22549518.748    22549521.0184   22549528.5924
     -1167.688        -909.887
    738551.850 8    585363.13545  24077026.087    24077026.9704   24077035.7554
     -2021.732       -1575.376
 97  5 14 17 17 59.9970000  0  7  9  2 27  4  7 26 15               -0.002140127
 -15213873.893 9 -11554165.74347  22484301.747    22484304.0994   22484311.6804
      3585.609        2793.981
  -1769011.660 9  -1372203.94948  20849542.830    20849544.4954   20849551.2334
      -411.334        -320.520
  10647300.365 9   8296797.85947  22314059.852    22314061.7264   22314069.4274
     -2950.581       -2299.154
 -13113434.750 9 -10202933.10647  22302554.062    22302556.7364   22302564.1864
      3955.046        3081.854
 -10180102.570 9  -7912906.63948  19672958.201    19672959.9484   19672966.3284
      -112.411         -87.593
  -3806951.803 9  -2954549.66647  22556222.422    22556224.8254   22556232.3914
     -1180.706        -920.031
    799403.821 9    632780.32845  24088605.364    24088606.6984   24088615.4454
     -2034.995       -1585.710
 97  5 14 17 18 29.9970000  0  7  9  2 27  4  7 26 15               -0.002151790
 -15321319.109 9 -11637889.21947  22463855.554    22463857.9114   22463865.4824
      3577.527        2787.683
  -1756575.398 9  -1362513.36348  20851909.335    20851911.0574   20851917.7894
      -417.795        -325.555
  10735953.874 9   8365878.44147  22330930.154    22330931.9614   22330939.5314
     -2959.471       -2306.081
 -13231993.281 9 -10295316.38047  22279992.999    22279995.7954   22280003.2464
      3948.866        3077.038
 -10176543.772 9  -7910133.54848  19673635.433    19673637.1744   19673643.5544
      -124.780         -97.231
  -3771339.377 9  -2926799.77547  22562999.195    22563001.6254   22563009.2804
     -1193.285        -929.832
    860651.638 9    680505.92446  24100260.162    24100261.9294   24100270.7904
     -2048.227       -1596.021
 97  5 14 17 18 59.9970000  0  7  9  2 27  4  7 26 15               -0.002163444
 -15428529.248 9 -11721429.52347  22443454.370    22443456.4344   22443463.9974
      3570.086        2781.885
  -1743944.685 9  -1352671.26148  20854312.884    20854314.6284   20854321.3304
      -424.082        -330.454
  10824866.764 9   8435161.13946  22347850.206    22347851.6444   22347859.1144
     -2967.775       -2312.552
 -13350368.753 9 -10387556.99847  22257466.782    22257469.6384   22257477.1704
      3942.956        3072.433
 -10172619.943 9  -7907076.02648  19674382.069    19674383.8804   19674390.2304
      -136.619        -106.456
  -3735357.214 9  -2898761.75747  22569846.583    22569848.9094   22569856.4844
     -1205.375        -939.253
    922296.405 8    728540.76546  24111990.951    24111992.7574   24112001.5424
     -2061.208       -1606.136
 97  5 14 17 19 29.9970000  0  7  9  2 27  4  7 26 15               -0.002175107
 -15535526.629 9 -11804804.02747  22423093.340    22423095.4704   22423103.0224
      3562.896        2776.283
  -1731116.129 9  -1342674.99048  20856754.019    20856755.8234   20856762.5024
      -431.275        -336.058
  10914020.591 9   8504631.58746  22364815.505    22364817.1424   22364824.5844
     -2975.808       -2318.811
 -13468563.767 9 -10479656.99147  22234975.021    22234977.8924   22234985.4144
      3936.569        3067.456
 -10168338.059 9  -7903739.49548  19675196.912    19675198.6954   19675205.0484
      -148.928        -116.048
  -3699008.537 9  -2870438.13747  22576763.516    22576765.9424   22576773.4974
     -1217.846        -948.971
    984333.473 8    776881.29246  24123796.366    24123798.1184   24123806.9324
     -2074.637       -1616.600
 97  5 14 17 19 59.9970000  0  7  9  2 27  4  7 26 15               -0.002186773
 -15642299.088 9 -11888003.26947  22402775.159    22402777.3254   22402784.7864
      3555.683        2770.662
  -1718063.481 9  -1332504.10748  20859237.950    20859239.6474   20859246.3104
      -438.477        -341.670
  11003408.952 9   8574284.77046  22381825.060    22381827.2074   22381834.5934
     -2983.035       -2324.443
 -13586555.640 9 -10571598.70847  22212522.253    22212524.8044   22212532.2654
      3929.794        3062.177
 -10163682.404 9  -7900111.71348  19676082.808    19676084.6204   19676090.9504
      -160.947        -125.413
  -3662295.723 9  -2841830.78547  22583749.958    22583752.2324   22583759.7544
     -1228.920        -957.600
   1046775.467 7    825537.28745  24135678.365    24135680.2944   24135689.4834
     -2087.711       -1626.788
 97  5 14 17 20 29.9970000  0  8  9  2 27 24  4  7 26 15            -0.002198436
 -15748844.615 9 -11971025.67747  22382500.357    22382502.3654   22382509.7984
      3547.892        2764.591
  -1704792.875 9  -1322163.38148  20861763.338    20861764.9584   20861771.6524
      -445.735        -347.326
  11093013.212 9   8644106.19146  22398876.652    22398878.4444   22398885.7244
     -2990.016       -2329.883
  -1130085.69718   -850600.32355  24348577.939    24348583.4045   24348594.0045
      4205.311        3276.866
 -13704335.383 9 -10663375.12047  22190109.578    22190112.0014   22190119.5314
      3922.771        3056.705
 -10158668.278 9  -7896204.60348  19677036.929    19677038.7594   19677045.0824
      -172.882        -134.713
  -3625264.458 9  -2812975.30347  22590796.737    22590799.0184   22590806.6354
     -1239.475        -965.825
   1109612.11717    874500.69255  24147635.106    24147637.6545   24147647.1595
     -2100.859       -1637.033
 97  5 14 17 20 59.9970000  0  8  9  2 27 24  4  7 26 15            -0.002210122
 -15855181.166 9 -12053885.26247  22362265.280    22362267.1734   22362274.5694
      3540.362        2758.724
  -1691329.555 9  -1311672.49148  20864325.321    20864326.9684   20864333.6354
      -452.611        -352.684
  11182801.267 9   8714070.82946  22415962.692    22415964.5974   22415971.8754
     -2996.759       -2335.137
  -1256309.702 9   -948956.70145  24324558.857    24324563.9264   24324573.9934
      4208.862        3279.633
 -13821933.076 9 -10755009.67247  22167731.322    22167733.8764   22167741.4904
      3916.336        3051.690
 -10153315.829 9  -7892033.87248  19678055.466    19678057.3184   19678063.6044
      -184.851        -144.040
  -3587939.844 9  -2783891.22047  22597899.363    22597901.6694   22597909.2504
     -1249.696        -973.789
   1172817.973 8    923751.87746  24159663.831    24159665.1674   24159674.6214
     -2113.667       -1647.013
 97  5 14 17 21 29.9970000  0  8  9  2 27 24  4  7 26 15            -0.002221807
 -15961249.504 9 -12136535.84747  22342080.992    22342082.9274   22342090.3784
      3530.770        2751.249
  -1677624.888 9  -1300993.53548  20866933.145    20866934.9044   20866941.5414
      -461.075        -359.279
  11272826.596 9   8784220.39546  22433093.542    22433095.8454   22433103.1844
     -3005.088       -2341.627
  -1382615.559 9  -1047376.77546  24300524.613    24300528.7664   24300538.9774
      4211.371        3281.588
 -13939311.514 9 -10846473.38247  22145394.829    22145397.5104   22145405.0844
      3908.890        3045.888
 -10147561.874 9  -7887550.27248  19679150.464    19679152.2704   19679158.5154
      -198.840        -154.940
  -3550272.716 9  -2754540.25847  22605067.202    22605069.4854   22605077.1494
     -1261.346        -982.867
   1236429.645 8    973319.38746  24171768.499    24171770.1694   24171779.3474
     -2127.311       -1657.645
 97  5 14 17 21 59.9970000  0  8  9  2 27 24  4  7 26 15            -0.002233485
 -16067039.505 9 -12218969.55747  22321949.688    22321951.7124   22321959.1924
      3522.376        2744.709
  -1663677.819 9  -1290125.70148  20869587.209    20869588.9744   20869595.5664
      -468.245        -364.866
  11363096.672 9   8854560.66246  22450271.042    22450273.6744   22450281.0254
     -3012.467       -2347.377
  -1509009.435 8  -1145865.48646  24276472.580    24276476.7194   24276487.1144
      4215.228        3284.593
 -14056475.658 9 -10937770.12147  22123099.561    22123102.0114   22123109.4764
      3902.462        3040.879
 -10141402.546 9  -7882750.79748  19680322.527    19680324.3904   19680330.6344
      -211.291        -164.642
  -3512281.819 9  -2724936.97947  22612296.672    22612298.9474   22612306.5734
     -1270.957        -990.356
   1300441.548 8   1023198.73746  24183949.793    24183951.3684   24183960.4504
     -2139.704       -1667.302
 97  5 14 17 22 29.9970000  0  8  9  2 27 24  4  7 26 15            -0.002245178
 -16172586.502 9 -12301213.91447  22301864.744    22301866.7624   22301874.2164
      3514.134        2738.286
  -1649520.526 9  -1279094.05548  20872281.192    20872283.0374   20872289.5914
      -475.549        -370.558
  11453582.972 9   8925069.40546  22467490.450    22467492.6704   22467500.0104
     -3019.925       -2353.188
  -1635523.522 8  -1244447.64345  24252397.657    24252401.7664   24252412.1604
      4218.784        3287.364
 -14173457.888 9 -11028925.10247  22100838.521    22100841.0384   22100848.4624
      3896.484        3036.221
 -10134873.526 9  -7877663.25348  19681565.049    19681566.8494   19681573.0704
      -224.095        -174.619
  -3473999.750 9  -2695106.81947  22619581.561    22619583.7754   22619591.3984
     -1281.254        -998.380
   1364818.454 9   1073362.53746  24196200.787    24196201.8674   24196211.0624
     -2152.112       -1676.970
 97  5 14 17 22 59.9970000  0  8  9  2 27 24  4  7 26 15            -0.002256890
 -16277885.783 9 -12383265.23347  22281826.732    22281828.8844   22281836.3824
      3505.503        2731.561
  -1635140.274 9  -1267888.68348  20875017.736    20875019.5224   20875026.0364
      -483.457        -376.720
  11544298.548 9   8995756.78746  22484753.596    22484755.4074   22484762.7364
     -3028.089       -2359.550
  -1762135.460 9  -1343106.11945  24228304.751    24228308.4614   24228318.7524
      4221.356        3289.368
 -14290256.356 9 -11119936.88147  22078612.177    22078615.0524   22078622.4444
      3889.625        3030.877
 -10127956.003 9  -7872272.97848  19682881.443    19682883.2324   19682889.4644
      -237.266        -184.883
  -3435404.197 9  -2665032.39347  22626926.128    22626928.2744   22626935.9004
     -1292.108       -1006.837
   1429569.352 9   1123817.76946  24208522.425    24208523.5404   24208532.7894
     -2164.948       -1686.972
 97  5 14 17 23 29.9970000  0  8  9  2 27 24  4  7 26 15            -0.002268605
 -16382938.148 9 -12465124.15547  22261835.962    22261837.9844   22261845.5304
      3497.795        2725.555
  -1620533.097 9  -1256506.48548  20877797.455    20877799.1844   20877805.6704
      -490.595        -382.282
  11635248.438 9   9066626.75346  22502060.439    22502062.5864   22502069.9784
     -3035.443       -2365.280
  -1888822.400 8  -1441823.32945  24204197.046    24204200.5894   24204211.1654
      4223.948        3291.388
 -14406857.282 9 -11210794.73647  22056423.788    22056426.5824   22056433.9764
      3883.343        3025.982
 -10120668.225 9  -7866594.19648  19684268.191    19684270.0384   19684276.2884
      -248.722        -193.809
  -3396494.232 9  -2634713.00147  22634330.237    22634332.5424   22634340.2834
     -1302.147       -1014.660
   1494693.724 9   1174564.04045  24220915.177    24220916.2664   24220925.5044
     -2176.993       -1696.358
 97  5 14 17 23 59.9970000  0  7  9  2 27 24  4  7 26               -0.002280306
 -16487743.365 9 -12546790.49647  22241892.234    22241894.1474   22241901.6934
      3489.159        2718.825
  -1605692.901 9  -1244942.71948  20880621.395    20880623.2304   20880629.6684
      -498.506        -388.446
  11726436.659 9   9137682.42646  22519412.968    22519415.1994   22519422.6424
     -3043.441       -2371.512
  -2015556.327 8  -1540577.19545  24180080.096    24180083.7484   24180093.9694
      4224.998        3292.206
 -14523238.011 9 -11301480.99447  22034277.385    22034280.0084   22034287.4234
      3875.508        3019.876
 -10113027.742 9  -7860640.57848  19685722.231    19685723.9734   19685730.1904
      -260.484        -202.975
  -3357267.965 9  -2604147.11047  22641794.631    22641797.1044   22641804.8314
     -1312.981       -1023.102
 97  5 14 17 24 29.9970000  0  7  9  2 27 24  4  7 26               -0.002291994
 -16592299.168 9 -12628262.48747  22221995.858    22221997.8174   22222005.2934
      3480.839        2712.342
  -1590637.089 9  -1233210.93548  20883486.459    20883488.2614   20883494.7124
      -505.590        -393.966
  11817845.280 9   9208909.81146  22536807.871    22536809.7064   22536817.2284
     -3050.690       -2377.161
  -2142335.511 8  -1639365.92445  24155954.353    24155958.1664   24155968.4254
      4226.524        3293.395
 -14639402.468 9 -11391998.73747  22012171.998    22012174.6074   22012182.0234
      3868.380        3014.322
 -10105047.696 9  -7854422.36348  19687240.759    19687242.5104   19687248.7584
      -271.808        -211.798
  -3317716.485 9  -2573327.82347  22649321.164    22649323.5414   22649331.3094
     -1324.051       -1031.728
 97  5 14 17 24 59.9970000  0  7  9  2 27 24  4  7 26               -0.002303674
 -16696616.127 9 -12709548.37547  22202144.866    22202146.8984   22202154.3454
      3472.968        2706.209
  -1575376.368 9  -1221319.48948  20886390.443    20886392.2964   20886398.7464
      -512.348        -399.232
  11909453.560 9   9280292.80946  22554240.726    22554242.4294   22554249.7954
     -3057.153       -2382.197
  -2269181.433 8  -1738206.80845  24131816.161    24131819.8614   24131830.5204
      4229.152        3295.443
 -14755355.096 9 -11482351.40747  21990106.688    21990109.4944   21990116.8964
      3861.154        3008.691
 -10096751.010 9  -7847957.42348  19688819.506    19688821.3344   19688827.6064
      -281.927        -219.683
  -3277843.815 9  -2542258.25447  22656908.642    22656911.0974   22656918.7924
     -1334.666       -1039.999
 97  5 14 17 25 29.9970000  0  7  9  2 27 24  4  7 26               -0.002315332
 -16800670.361 9 -12790629.53447  22182343.895    22182345.9814   22182353.4544
      3463.645        2698.944
  -1559896.160 9  -1209257.01248  20889336.282    20889338.0854   20889344.5374
      -519.965        -405.168
  12001272.840 9   9351840.21546  22571713.507    22571715.1014   22571722.4264
     -3064.466       -2387.896
  -2396090.758 8  -1837097.05045  24107665.984    24107669.7014   24107680.3944
      4231.003        3296.885
 -14871069.090 9 -11572518.13047  21968087.270    21968089.8204   21968097.1744
      3852.842        3002.215
 -10088125.571 9  -7841236.30948  19690460.915    19690462.6804   19690468.9874
      -293.470        -228.678
  -3237634.287 9  -2510926.18347  22664560.340    22664562.7674   22664570.3834
     -1346.169       -1048.963
 97  5 14 17 25 59.9970000  0  7  9  2 27 24  4  7 26               -0.002326965
 -16904433.166 9 -12871483.61647  22162598.251    22162600.5504   22162607.9724
      3454.996        2692.205
  -1544180.689 9  -1197011.21148  20892326.914    20892328.6324   20892335.0594
      -526.434        -410.208
  12093316.474 9   9423562.44646  22589228.147    22589230.4224   22589237.8594
     -3070.413       -2392.530
  -2523047.322 8  -1936024.22545  24083507.446    24083510.7674   24083521.2394
      4233.889        3299.134
 -14986524.944 9 -11662483.70447  21946116.965    21946119.2854   21946126.6474
      3845.471        2996.471
 -10079142.084 9  -7834236.19648  19692170.400    19692172.1774   19692178.5024
      -304.243        -237.072
  -3197071.388 9  -2479318.77147  22672279.170    22672281.6174   22672289.2184
     -1356.805       -1057.251
 97  5 14 17 26 29.9970000  0  7  9  2 27 24  4  7 26               -0.002338610
 -17007947.448 9 -12952144.04947  22142900.278    22142902.4264   22142909.7934
      3446.068        2685.248
  -1528281.522 9  -1184622.27548  20895352.432    20895354.1954   20895360.5684
      -533.725        -415.890
  12185526.534 9   9495414.35446  22606775.010    22606777.3994   22606784.9664
     -3077.060       -2397.709
  -2650099.686 8  -2035026.06145  24059329.982    24059333.5074   24059343.5774
      4236.037        3300.808
 -15101766.769 9 -11752282.51447  21924186.743    21924189.4984   21924196.7864
      3837.123        2989.966
 -10069842.385 9  -7826989.68648  19693940.109    19693941.8214   19693948.1464
      -315.889        -246.147
  -3156193.064 9  -2447465.56247  22680058.132    22680060.6044   22680068.1704
     -1368.317       -1066.221
 97  5 14 17 26 59.9970000  0  7  9  2 27 24  4  7 26               -0.002350247
 -17111183.490 9 -13032587.67047  22123255.077    22123257.2294   22123264.5434
      3436.875        2678.084
  -1512141.984 9  -1172046.03548  20898423.720    20898425.4674   20898431.8084
      -541.424        -421.889
  12277952.148 9   9567434.20546  22624363.404    22624365.4474   22624373.1084
     -3084.086       -2403.184
  -2777199.664 8  -2134064.96845  24035143.989    24035147.1614   24035157.3804
      4237.712        3302.113
 -15216738.395 9 -11841870.75247  21902308.321    21902311.1754   21902318.3454
      3828.281        2983.076
 -10060177.742 9  -7819458.80748  19695779.215    19695780.9614   19695787.2734
      -327.874        -255.486
  -3114960.851 9  -2415336.62647  22687904.462    22687906.7754   22687914.4444
     -1379.652       -1075.053
 97  5 14 17 27 29.9970000  0  7  9  2 27 24  4  7 26               -0.002361903
 -17214159.392 9 -13112828.57947  22103659.232    22103661.5394   22103668.8064
      3428.029        2671.191
  -1495796.110 9  -1159309.01548  20901534.174    20901535.9854   20901542.3574
      -548.572        -427.459
  12370574.558 9   9639607.42846  22641989.321    22641990.9514   22641998.6264
     -3090.851       -2408.455
  -2904356.814 8  -2233148.26645  24010946.824    24010949.9764   24010960.0834
      4238.974        3303.097
 -15331467.983 9 -11931270.39747  21880476.285    21880478.7934   21880486.0084
      3820.207        2976.785
 -10050164.977 9  -7811656.65148  19697684.570    19697686.3214   19697692.6574
      -339.719        -264.716
  -3073420.863 9  -2382967.83247  22695809.314    22695811.6004   22695819.1384
     -1389.919       -1083.054
 97  5 14 17 27 59.9970000  0  7  9  2 27 24  4  7 26               -0.002373590
 -17316900.293 9 -13192886.37747  22084108.402    22084110.5494   22084117.7774
      3420.019        2664.950
  -1479260.145 9  -1146423.87248  20904680.867    20904682.6894   20904689.0884
      -555.217        -432.637
  12463366.907 9   9711913.07646  22659647.077    22659648.8884   22659656.7624
     -3096.626       -2412.955
  -3031569.238 8  -2332274.80045  23986739.166    23986742.1784   23986752.5234
      4240.476        3304.267
 -15445980.991 9 -12020501.26647  21858685.045    21858687.6444   21858694.8954
      3812.684        2970.923
 -10039829.503 9  -7803603.04648  19699651.248    19699653.0734   19699659.4254
      -350.647        -273.231
  -3031595.442 9  -2350376.63047  22703768.382    22703770.6784   22703778.1394
     -1399.634       -1090.624
 97  5 14 17 28 29.9970000  0  7  9  2 27 24  4  7 26               -0.002385289
 -17419379.897 9 -13272740.56847  22064607.264    22064609.3044   22064616.4634
      3411.633        2658.415
  -1462492.247 9  -1133358.00148  20907871.717    20907873.5094   20907879.9304
      -562.918        -438.637
  12556361.898 9   9784376.62646  22677343.111    22677345.1604   22677353.2344
     -3103.353       -2418.197
  -3158801.522 8  -2431416.71245  23962527.479    23962530.4754   23962540.7724
      4241.427        3305.008
 -15560243.827 9 -12109537.18247  21836941.221    21836944.1014   21836951.4334
      3804.660        2964.670
 -10029139.693 9  -7795273.33248  19701685.453    19701687.2934   19701693.6044
      -362.315        -282.323
  -2989461.985 9  -2317545.38547  22711786.288    22711788.4504   22711795.9244
     -1409.393       -1098.228
 97  5 14 17 28 59.9970000  0  7  9  2 27 24  4  7 26               -0.002397006
 -17521609.299 9 -13352399.78547  22045153.596    22045155.6644   22045162.7934
      3403.040        2651.719
  -1445503.312 9  -1120119.89248  20911104.652    20911106.4114   20911112.8374
      -569.953        -444.119
  12649546.009 9   9856987.53446  22695074.971    22695077.5694   22695085.6234
     -3109.376       -2422.890
  -3286081.624 8  -2530596.02245  23938306.916    23938309.8624   23938320.1454
      4243.523        3306.641
 -15674288.604 9 -12198403.19747  21815239.375    21815242.1074   21815249.4784
      3797.942        2959.435
 -10018112.000 9  -7786680.33148  19703784.016    19703785.8094   19703792.0864
      -373.229        -290.828
  -2947053.422 9  -2284499.77147  22719856.211    22719858.4924   22719866.1194
     -1418.164       -1105.063
 97  5 14 17 29 29.9970000  0  7  9  2 27 24  4  7 26               -0.002408705
 -17623545.558 9 -13431830.57447  22025755.881    22025757.7664   22025764.9174
      3392.975        2643.877
  -1428272.094 9  -1106692.98848  20914383.578    20914385.4034   20914391.8474
      -578.606        -450.862
  12742940.388 9   9929762.29046  22712847.633    22712849.9374   22712858.0444
     -3116.584       -2428.507
  -3413396.823 8  -2629802.54945  23914079.667    23914082.5984   23914092.6624
      4244.379        3307.308
 -15788107.208 9 -12287092.98247  21793580.438    21793583.1004   21793590.4994
      3790.027        2953.268
 -10006731.122 9  -7777812.11748  19705949.746    19705951.5404   19705957.7584
      -385.208        -300.162
  -2904353.405 9  -2251227.05347  22727981.878    22727984.1604   22727991.7024
     -1428.457       -1113.083
 97  5 14 17 29 59.9970000  0  7  9  2 27 24  4  7 26               -0.002420383
 -17725190.523 9 -13511034.39447  22006413.460    22006415.3174   22006422.4464
      3382.736        2635.898
  -1410795.621 9  -1093074.97848  20917709.308    20917711.0624   20917717.5094
      -587.087        -457.470
  12836535.286 9  10002693.32146  22730658.496    22730660.5524   22730668.5314
     -3123.712       -2434.061
  -3540759.410 9  -2729046.02746  23889843.867    23889846.2994   23889856.2984
      4245.763        3308.387
 -15901688.707 9 -12375598.00947  21771966.435    21771969.2514   21771976.5804
      3781.389        2946.537
  -9995006.972 9  -7768676.41948  19708180.764    19708182.5814   19708188.7704
      -397.023        -309.369
  -2861352.877 9  -2217720.22447  22736164.604    22736166.9194   22736174.5784
     -1438.666       -1121.038
 97  5 14 17 30 29.9970000  0  7  9  2 27 24  4  7 26               -0.002432046
 -17826537.626 9 -13590006.11047  21987127.673    21987129.5624   21987136.7234
      3373.126        2628.410
  -1393080.312 9  -1079270.86248  20921080.226    20921082.1564   20921088.6224
      -594.292        -463.085
  12930334.428 9  10075783.45746  22748507.735    22748510.0154   22748518.0324
     -3130.125       -2439.058
  -3668186.330 8  -2828339.66646  23865594.951    23865597.7334   23865607.9814
      4248.591        3310.590
 -16015020.072 9 -12463908.13647  21750400.170    21750403.0184   21750410.3304
      3773.478        2940.372
  -9982937.855 9  -7759271.91748  19710477.437    19710479.2324   19710485.4354
      -408.193        -318.072
  -2818058.914 9  -2183984.71847  22744403.285    22744405.5014   22744413.0964
     -1448.161       -1128.437
 97  5 14 17 30 59.9970000  0  7  9  2 27 24  4  7 26               -0.002443708
 -17927581.427 9 -13668741.49547  21967899.324    21967901.5134   21967908.6704
      3363.236        2620.703
  -1375152.049 9  -1065300.80548  20924491.766    20924493.8314   20924500.2774
      -600.804        -468.159
  13024331.318 9  10149027.70946  22766394.509    22766397.0384   22766405.2284
     -3136.273       -2443.849
  -3795683.747 8  -2927688.20645  23841332.600    23841335.5814   23841345.8754
      4251.014        3312.478
 -16128105.748 9 -12552026.80347  21728880.668    21728883.4654   21728890.8004
      3765.359        2934.046
  -9970521.242 9  -7749596.63848  19712840.241    19712842.0344   19712848.2674
      -419.481        -326.868
  -2774468.537 9  -2150018.22847  22752698.218    22752700.5014   22752708.1404
     -1457.681       -1135.855
 97  5 14 17 31 29.9970000  0  7  9  2 27 24  4  7 26               -0.002455385
 -18028326.794 9 -13747244.32247  21948727.986    21948730.2414   21948737.4814
      3353.415        2613.051
  -1357027.184 9  -1051177.54548  20927940.923    20927942.9164   20927949.3844
      -607.166        -473.116
  13118520.914 9  10222422.13146  22784317.986    22784320.7444   22784329.0374
     -3142.719       -2448.872
  -3923230.676 8  -3027075.41045  23817061.905    23817064.3684   23817074.4484
      4252.162        3313.373
 -16240913.332 9 -12639928.77147  21707414.040    21707416.8274   21707424.1694
      3755.348        2926.245
  -9957758.626 9  -7739651.74348  19715268.776    19715270.6844   19715276.9084
      -431.034        -335.871
  -2730587.417 9  -2115825.18247  22761048.479    22761050.8434   22761058.5024
     -1467.481       -1143.492
 97  5 14 17 31 59.9970000  0  7  9  2 27 24  4  7 26               -0.002467108
 -18128802.909 9 -13825537.35247  21929608.080    21929610.2244   21929617.5124
      3344.244        2605.904
  -1338743.254 9  -1036930.33748  20931420.425    20931422.2754   20931428.7244
      -612.697        -477.426
  13212878.768 8  10295947.67246  22802274.297    22802276.4974   22802284.7304
     -3148.510       -2453.384
  -4050830.523 9  -3126503.74546  23792780.262    23792782.6664   23792792.7934
      4253.592        3314.487
 -16353443.834 9 -12727614.83647  21686000.030    21686002.9424   21686010.2524
      3746.096        2919.036
  -9944674.014 9  -7729455.94548  19717758.733    19717760.5954   19717766.8274
      -441.934        -344.364
  -2686438.677 9  -2081423.59047  22769449.657    22769452.1274   22769459.7044
     -1476.263       -1150.335
 97  5 14 17 32 29.9970000  0  7  9  2 27 24  4  7 26               -0.002478878
 -18229012.857 9 -13903622.98247  21910538.719    21910540.8954   21910548.1604
      3335.235        2598.884
  -1320299.711 9  -1022558.75448  20934930.134    20934931.9824   20934938.4204
      -618.128        -481.658
  13307395.287 9  10369596.84846  22820260.362    22820262.4714   22820270.5004
     -3153.730       -2457.452
  -4178490.623 8  -3225979.18245  23768487.635    23768489.7694   23768499.8854
      4255.732        3316.155
 -16465722.020 9 -12815104.29647  21664634.320    21664637.1524   21664644.3774
      3737.915        2912.661
  -9931277.594 9  -7719017.17948  19720307.948    19720309.8484   19720316.1044
      -452.301        -352.442
  -2642045.644 9  -2046831.65047  22777897.301    22777899.8104   22777907.4684
     -1484.305       -1156.601
 97  5 14 17 32 59.9970000  0  7  9  2 27 24  4  7 26               -0.002490645
 -18328923.470 9 -13981475.35747  21891526.402    21891528.5044   21891535.7864
      3325.092        2590.981
  -1301653.602 9  -1008029.33148  20938478.518    20938480.2344   20938486.6814
      -625.516        -487.415
  13402096.343 9  10443389.81046  22838281.682    22838283.6424   22838291.6304
     -3160.051       -2462.377
  -4306181.673 8  -3325478.61245  23744189.606    23744190.8944   23744200.7404
      4256.363        3316.646
 -16577719.303 9 -12902374.87247  21643321.968    21643324.7994   21643331.9624
      3727.995        2904.931
  -9917550.934 9  -7708321.08648  19722920.150    19722921.9834   19722928.2284
      -463.136        -360.885
  -2597396.231 9  -2012039.94047  22786393.848    22786396.3564   22786404.0954
     -1492.693       -1163.137
 97  5 14 17 33 29.9970000  0  7  9  2 27 24  4  7 26               -0.002502418
 -18428534.367 9 -14059094.18847  21872571.105    21872573.1284   21872580.4194
      3315.335        2583.378
  -1282772.701 9   -993316.94748  20942071.488    20942073.1694   20942079.6164
      -633.529        -493.659
  13496986.223 9  10517329.91846  22856339.245    22856340.7284   22856348.6464
     -3166.167       -2467.143
  -4433889.193 8  -3424990.91245  23719886.857    23719888.8794   23719898.9964
      4257.058        3317.188
 -16689416.234 9 -12989411.39747  21622066.603    21622069.5344   21622076.7234
      3718.503        2897.535
  -9903505.182 9  -7697376.34848  19725593.041    19725594.8184   19725601.0684
      -473.495        -368.957
  -2552496.383 9  -1977053.07447  22794938.117    22794940.5974   22794948.1704
     -1500.983       -1169.597
 97  5 14 17 33 59.9970000  0  7  9  2 27 24  4  7 26               -0.002514162
 -18527841.760 9 -14136476.53047  21853673.646    21853675.5084   21853682.7774
      3304.763        2575.140
  -1263630.110 9   -978400.65048  20945714.118    20945715.9194   20945722.3634
      -643.183        -501.182
  13592062.466 8  10591415.21946  22874431.276    22874433.0994   22874441.1724
     -3172.622       -2472.173
  -4561619.189 9  -3524520.77145  23695581.050    23695582.8024   23695592.8354
      4257.763        3317.737
 -16800841.223 9 -13076236.02547  21600863.260    21600866.0344   21600873.2364
      3709.270        2890.340
  -9889137.831 9  -7686181.01548  19728327.070    19728328.8204   19728335.0984
      -484.767        -377.740
  -2507344.495 9  -1941869.85447  22803530.212    22803532.7074   22803540.2624
     -1509.549       -1176.272
 97  5 14 17 34 29.9970000  0  7  9  2 27 24  4  7 26               -0.002525872
 -18626835.095 9 -14213614.14947  21834835.855    21834837.6674   21834844.8784
      3294.878        2567.437
  -1244203.252 9   -963262.85048  20949411.005    20949412.7544   20949419.1674
      -651.704        -507.821
  13687319.452 9  10665641.37246  22892558.186    22892560.0554   22892568.2814
     -3177.899       -2476.285
  -4689371.635 8  -3624068.17845  23671270.755    23671272.5164   23671282.1384
      4258.778        3318.528
 -16911980.220 9 -13162837.80847  21579714.195    21579717.0154   21579724.1374
      3699.949        2883.077
  -9874435.544 9  -7674724.69548  19731124.830    19731126.5784   19731132.8874
      -495.384        -386.014
  -2461941.166 9  -1906490.67247  22812170.343    22812172.7044   22812180.2674
     -1517.455       -1182.432
 97  5 14 17 34 59.9970000  0  7  9  2 27 24  4  7 26               -0.002537581
 -18725542.038 9 -14290528.60247  21816052.285    21816054.3434   21816061.5424
      3285.484        2560.117
  -1224529.769 9   -947932.87248  20953154.815    20953156.5474   20953162.9224
      -659.863        -514.179
  13782730.867 9  10739987.87346  22910714.455    22910716.4784   22910724.5124
     -3182.878       -2480.165
  -4817139.738 8  -3723627.62145  23646956.908    23646959.0804   23646968.5344
      4258.897        3318.621
 -17022836.001 9 -13249218.91247  21558619.104    21558621.8694   21558628.8944
      3690.425        2875.656
  -9859419.559 9  -7663023.93848  19733982.235    19733984.0344   19733990.3804
      -505.870        -394.184
  -2416290.773 9  -1870918.95447  22820857.477    22820859.7924   22820867.2194
     -1526.061       -1189.138
 97  5 14 17 35 29.9970000  0  7  9  2 27 24  4  7 26               -0.002549291
 -18823947.340 9 -14367208.00848  21797326.470    21797328.4254   21797335.6364
      3273.720        2550.951
  -1204602.053 9   -932404.79448  20956946.989    20956948.6854   20956955.0494
      -669.666        -521.818
  13878294.580 9  10814452.99846  22928899.936    22928901.6964   22928909.8904
     -3189.254       -2485.133
  -4944892.624 9  -3823175.31446  23622646.112    23622648.5024   23622658.0934
      4256.884        3317.052
 -17133400.615 9 -13335373.12947  21537579.546    21537582.1184   21537589.1024
      3679.449        2867.103
  -9844068.593 9  -7651062.15648  19736903.583    19736905.2594   19736911.6354
      -518.658        -404.149
  -2370364.794 9  -1835132.55047  22829596.967    22829599.2374   22829606.7444
     -1536.784       -1197.494
 97  5 14 17 35 59.9970000  0  7  9  2 27 24  4  7 26               -0.002561000
 -18922020.587 9 -14443628.67948  21778663.891    21778665.6694   21778672.8814
      3264.419        2543.703
  -1184415.739 9   -916675.21548  20960788.380    20960790.0544   20960796.4224
      -676.147        -526.868
  13974024.971 8  10889048.03346  22947116.534    22947118.5914   22947126.7784
     -3192.973       -2488.031
  -5072622.814 8  -3922705.34745  23598340.440    23598342.3934   23598351.7544
      4258.215        3318.090
 -17243653.639 9 -13421284.54947  21516599.284    21516601.6214   21516608.5664
      3670.483        2860.117
  -9828360.627 9  -7638822.19848  19739892.705    19739894.3754   19739900.7234
      -528.451        -411.780
  -2324146.201 9  -1799118.14147  22838391.975    22838394.3234   22838401.8734
     -1544.570       -1203.561
 97  5 14 17 36 29.9970000  0  7  9  2 27 24  4  7 26               -0.002572735
 -19019809.743 9 -14519827.97948  21760055.123    21760056.9494   21760064.1724
      3254.315        2535.830
  -1164038.964 9   -900797.22848  20964665.953    20964667.6064   20964674.0124
      -682.719        -531.989
  14069872.758 9  10963734.49546  22965355.826    22965357.8534   22965366.0184
     -3197.442       -2491.513
  -5200380.986 9  -4022257.09845  23574028.383    23574030.5604   23574039.9024
      4258.432        3318.259
 -17353633.691 9 -13506983.25747  21495670.506    21495673.1094   21495680.0244
      3661.329        2852.984
  -9812369.362 9  -7626361.47948  19742935.685    19742937.4244   19742943.7374
      -538.045        -419.256
  -2277683.428 9  -1762913.41247  22847233.664    22847236.0284   22847243.3954
     -1553.317       -1210.377
 97  5 14 17 36 59.9970000  0  7  9  2 27 24  4  7 26               -0.002584463
 -19117279.432 9 -14595778.34448  21741507.070    21741509.0144   21741516.2504
      3243.343        2527.280
  -1143444.721 9   -884749.78248  20968584.892    20968586.5714   20968593.0114
      -690.462        -538.022
  14165875.958 9  11038542.09646  22983624.261    22983626.6544   22983634.9274
     -3203.049       -2495.882
  -5328137.805 9  -4121807.80546  23549717.035    23549719.3024   23549728.5984
      4258.400        3318.234
 -17463334.887 9 -13592464.66647  21474794.797    21474797.5874   21474804.5774
      3651.786        2845.548
  -9796073.227 9  -7613663.20448  19746036.773    19746038.4694   19746044.7574
      -548.653        -427.522
  -2230947.968 9  -1726496.26447  22856127.035    22856129.4614   22856137.0754
     -1562.417       -1217.468
 97  5 14 17 37 29.9970000  0  7  9  2 27 24  4  7 26               -0.002596192
 -19214437.229 9 -14671485.67248  21723018.434    21723020.4544   21723027.7344
      3233.638        2519.718
  -1122646.772 9   -868543.60348  20972542.650    20972544.3004   20972550.7784
      -696.376        -542.631
  14262025.361 9  11113463.61346  23001921.427    23001923.4324   23001931.6314
     -3207.284       -2499.182
  -5455927.385 8  -4221384.00046  23525399.537    23525401.6334   23525411.0374
      4260.506        3319.875
 -17572771.801 9 -13677740.14847  21453969.642    21453972.3664   21453979.3674
      3643.497        2839.089
  -9779480.334 9  -7600733.69048  19749194.235    19749195.9874   19749202.2604
      -557.778        -434.632
  -2183974.220 9  -1689893.40447  22865065.827    22865068.3404   22865075.9354
     -1569.468       -1222.962
 97  5 14 17 37 59.9970000  0  7  9  2 27 24  4  7 26               -0.002607936
 -19311292.511 9 -14746957.27948  21704587.446    21704589.5374   21704596.8114
      3223.330        2511.686
  -1101654.346 9   -852185.89048  20976537.280    20976539.0394   20976545.5144
      -703.216        -547.961
  14358329.247 9  11188505.52746  23020247.775    23020249.5624   23020257.7454
     -3212.867       -2503.533
  -5583758.228 8  -4320992.37945  23501073.870    23501076.1434   23501085.6874
      4261.273        3320.472
 -17681930.028 9 -13762798.47847  21433197.431    21433200.2084   21433207.1684
      3633.724        2831.473
  -9762596.103 9  -7587577.15948  19752407.172    19752408.9534   19752415.2024
      -567.792        -442.435
  -2136767.540 9  -1653109.00247  22874049.039    22874051.4554   22874058.9874
     -1577.584       -1229.286
 97  5 14 17 38 29.9970000  0  8  9  2 27 24  4  5  7 26            -0.002619689
 -19407836.159 9 -14822186.04948  21686215.999    21686217.9094   21686225.1574
      3213.074        2503.694
  -1080450.361 9   -835663.32648  20980572.389    20980574.0544   20980580.5144
      -709.974        -553.226
  14454795.706 8  11263674.07346  23038605.006    23038606.5374   23038614.9844
     -3217.731       -2507.323
  -5711598.631 9  -4420608.21346  23476746.149    23476748.7954   23476758.5314
      4261.651        3320.767
 -17790795.196 9 -13847628.42547  21412481.117    21412483.8354   21412490.7654
      3624.319        2824.145
  -1647163.82918  -1266292.89355  24412354.342    24412356.1275   24412367.0645
      3382.309        2635.565
  -9745402.034 9  -7574179.19248  19755679.076    19755680.8664   19755687.1004
      -578.311        -450.632
  -2089318.861 9  -1616136.07747  22883078.202    22883080.6564   22883088.2524
     -1585.105       -1235.147
 97  5 14 17 38 59.9970000  0  8  9  2 27 24  4  5  7 26            -0.002631479
 -19504056.571 9 -14897162.95148  21667905.816    21667907.7844   21667914.9774
      3202.270        2495.275
  -1059034.566 9   -818975.71648  20984647.724    20984649.3344   20984655.8274
      -717.159        -558.825
  14551414.782 8  11338961.60246  23056990.760    23056992.5754   23057001.1064
     -3222.926       -2511.371
  -5839443.110 8  -4520227.17846  23452418.325    23452420.7574   23452430.5994
      4261.625        3320.747
 -17899348.840 9 -13932215.64447  21391824.036    21391826.7184   21391833.6314
      3613.091        2815.396
  -1748659.887 8  -1345380.57545  24393040.089    24393041.8094   24393052.1464
      3384.618        2637.365
  -9727869.868 9  -7560517.77748  19759015.399    19759017.1414   19759023.3624
      -589.734        -459.533
  -2041633.630 9  -1578978.82147  22892152.459    22892154.9774   22892162.6004
     -1593.154       -1241.419
 97  5 14 17 39 29.9970000  0  8  9  2 27 24  4  5  7 26            -0.002643293
 -19599936.648 9 -14971874.66648  21649660.533    21649662.4054   21649669.5284
      3190.439        2486.056
  -1037391.065 9   -802110.67248  20988766.209    20988767.9374   20988774.4964
      -725.182        -565.077
  14648195.648 8  11414375.14546  23075407.300    23075409.3614   23075418.0624
     -3228.469       -2515.690
  -5967265.145 9  -4619828.60046  23428093.709    23428096.8784   23428106.8444
      4260.464        3319.842
 -18007551.459 9 -14016529.32947  21371233.595    21371236.4174   21371243.3104
      3601.136        2806.080
  -1850215.367 8  -1424514.64445  24373714.960    24373716.4994   24373727.6124
      3386.103        2638.522
  -9710001.442 9  -7546594.33648  19762415.581    19762417.4184   19762423.6454
      -600.791        -468.149
  -1993701.857 9  -1541629.45347  22901273.541    22901276.1454   22901283.7354
     -1601.594       -1247.995
 97  5 14 17 39 59.9970000  0  8  9  2 27 24  4  5  7 26            -0.002655112
 -19695479.492 9 -15046323.59848  21631479.201    21631481.1754   21631488.2464
      3179.038        2477.172
  -1015519.034 9   -785067.55248  20992928.390    20992930.0744   20992936.6014
      -732.834        -571.039
  14745122.108 9  11489902.17846  23093851.687    23093853.9484   23093862.5454
     -3233.062       -2519.269
  -6095064.737 9  -4719412.64046  23403774.168    23403777.4474   23403787.3014
      4259.474        3319.071
 -18115416.909 9 -14100580.28147  21350707.631    21350710.2874   21350717.1454
      3590.217        2797.572
  -1951816.433 8  -1503684.14746  24354380.632    24354382.3724   24354393.4604
      3387.118        2639.313
  -9691825.156 9  -7532431.00148  19765874.445    19765876.2234   19765882.4844
      -610.726        -475.890
  -1945538.262 9  -1504099.46147  22910438.768    22910441.3804   22910449.0444
     -1609.123       -1253.862
 97  5 14 17 40 29.9970000  0  8  9  2 27 24  4  5  7 26            -0.002666910
 -19790672.594 9 -15120500.00348  21613364.626    21613366.5054   21613373.5224
      3166.793        2467.631
   -993416.819 9   -767845.07348  20997134.226    20997135.9824   20997142.5464
      -740.911        -577.333
  14842184.228 9  11565534.91746  23112322.031    23112324.3714   23112332.7294
     -3238.066       -2523.168
  -6222835.046 9  -4818973.82146  23379459.972    23379463.5454   23379473.3734
      4258.186        3318.067
 -18222967.905 9 -14184386.20247  21330241.116    21330243.9484   21330250.7894
      3579.484        2789.208
  -2053435.083 8  -1582867.37345  24335043.134    24335045.0684   24335056.1754
      3386.924        2639.162
  -9673359.206 9  -7518041.95748  19769388.294    19769390.1864   19769396.4534
      -620.617        -483.598
  -1897151.836 9  -1466395.80947  22919646.467    22919649.0714   22919656.7474
     -1617.062       -1260.048
 97  5 14 17 40 59.9970000  0  8  9  2 27 24  4  5  7 26            -0.002678668
 -19885509.335 9 -15194398.72448  21595317.719    21595319.6474   21595326.6584
      3156.426        2459.553
   -971080.074 9   -750439.84148  21001384.712    21001386.5204   21001393.0794
      -747.728        -582.645
  14939395.012 9  11641283.50846  23130821.224    23130823.0804   23130831.4254
     -3242.071       -2526.289
  -6350572.258 9  -4918509.14046  23355152.175    23355155.8004   23355165.7514
      4258.035        3317.949
 -18330196.501 9 -14267940.90747  21309836.135    21309838.9614   21309845.7784
      3569.643        2781.540
  -2155048.552 8  -1662046.54546  24315706.862    24315708.5214   24315719.7944
      3387.831        2639.868
  -9654621.371 9  -7503441.05848  19772954.044    19772955.8914   19772962.1664
      -627.900        -489.273
  -1848529.116 9  -1428508.03347  22928899.138    22928901.7224   22928909.3044
     -1623.942       -1265.409
 97  5 14 17 41 29.9970000  0  8  9  2 27 24  4  5  7 26            -0.002690378
 -19980013.403 9 -15268038.22548  21577334.085    21577336.0744   21577343.1304
      3144.582        2450.324
   -948507.537 9   -732850.87848  21005680.161    21005681.9354   21005688.5064
      -756.444        -589.437
  15036750.014 9  11717144.43346  23149347.018    23149349.1404   23149357.5444
     -3247.468       -2530.495
  -6478284.993 9  -5018025.49746  23330849.605    23330852.9884   23330862.7114
      4256.838        3317.017
 -18437114.106 9 -14351253.27647  21289490.330    21289493.1464   21289499.9834
      3558.842        2773.124
  -2256660.798 9  -1741224.77346  24296370.442    24296372.3284   24296383.4774
      3386.961        2639.190
  -9635641.704 9  -7488651.71348  19776565.729    19776567.6184   19776573.8984
      -636.988        -496.354
  -1799671.427 9  -1390437.18447  22938196.566    22938199.0694   22938206.6564
     -1632.465       -1272.051
 97  5 14 17 41 59.9970000  0  8  9  2 27 24  4  5  7 26            -0.002702055
 -20074184.751 9 -15341418.45448  21559413.820    21559415.8204   21559422.8644
      3133.914        2442.011
   -925690.769 9   -715071.60348  21010022.012    21010023.8334   21010030.3974
      -764.078        -595.385
  15134244.817 9  11793114.34846  23167900.135    23167901.7924   23167910.1054
     -3251.623       -2533.732
  -6605976.918 8  -5117525.62346  23306551.324    23306554.0524   23306563.6764
      4256.445        3316.710
 -18543724.085 9 -14434325.93247  21269203.021    21269205.9134   21269212.7484
      3548.982        2765.441
  -2358262.245 9  -1820394.64046  24277036.387    24277038.1854   24277049.3464
      3387.158        2639.344
  -9616390.559 9  -7473650.82948  19780229.166    19780230.9684   19780237.2904
      -645.893        -503.293
  -1750574.083 9  -1352179.60547  22947539.561    22947542.0154   22947549.7194
     -1640.253       -1278.119
 97  5 14 17 42 29.9970000  0  8  9  2 27 24  4  5  7 26            -0.002713723
 -20168032.491 9 -15414546.52748  21541555.153    21541557.1434   21541564.1734
      3123.318        2433.754
   -902644.020 9   -697113.12048  21014407.673    21014409.4904   21014416.0864
      -771.593        -601.241
  15231867.509 8  11869183.88446  23186476.902    23186478.7964   23186487.2114
     -3255.777       -2536.969
  -6733661.614 8  -5217020.11146  23282254.208    23282256.4604   23282265.8134
      4256.500        3316.753
 -18650031.736 9 -14517163.02147  21248973.332    21248976.1824   21248983.0444
      3538.659        2757.397
  -2459881.308 9  -1899578.19146  24257698.776    24257700.5934   24257711.7514
      3388.296        2640.231
  -9596866.697 9  -7458437.43948  19783944.384    19783946.2724   19783952.6324
      -655.202        -510.547
  -1701241.646 9  -1313738.82747  22956927.390    22956929.7534   22956937.4684
     -1647.862       -1284.048
 97  5 14 17 42 59.9970000  0  8  9  2 27 24  4  5  7 26            -0.002725426
 -20261573.262 9 -15487435.40248  21523754.875    21523756.8834   21523763.9174
      3112.223        2425.109
   -879379.825 9   -678985.20648  21018834.731    21018836.5084   21018843.1544
      -779.943        -607.748
  15329603.542 8  11945341.70646  23205074.734    23205077.3774   23205086.2274
     -3260.400       -2540.571
  -6861357.788 9  -5316523.52946  23257954.748    23257956.5714   23257966.0174
      4255.760        3316.177
 -18756024.565 9 -14599754.79247  21228803.567    21228806.3894   21228813.2184
      3526.998        2748.310
  -2561549.466 9  -1978799.99446  24238352.014    24238353.7134   24238364.7534
      3389.150        2640.896
  -9577054.687 9  -7442999.52148  19787714.525    19787716.3624   19787722.7474
      -666.349        -519.233
  -1651699.399 9  -1275134.56647  22966354.950    22966357.3944   22966365.0574
     -1655.393       -1289.917
 97  5 14 17 43 29.9970000  0  8  9  2 27 24  4  5  7 26            -0.002737162
 -20354778.552 9 -15560062.86548  21506018.362    21506020.4654   21506027.5024
      3101.332        2416.622
   -855864.755 9   -660661.80448  21023309.390    21023311.2654   21023317.9444
      -787.646        -613.750
  15427470.888 8  12021601.90046  23223697.774    23223701.0004   23223709.7414
     -3264.061       -2543.424
  -6989027.140 8  -5416006.03146  23233660.025    23233661.6824   23233671.3364
      4255.394        3315.891
 -18861677.677 9 -14682081.84547  21208698.452    21208701.2354   21208708.1014
      3516.585        2740.196
  -2663251.175 9  -2058047.95846  24218998.384    24219000.3534   24219011.3624
      3391.024        2642.356
  -9556895.345 9  -7427290.95248  19791550.721    19791552.5734   19791558.9664
      -677.546        -527.958
  -1601947.448 9  -1236366.90847  22975822.237    22975824.8944   22975832.6474
     -1661.173       -1294.421
 97  5 14 17 43 59.9970000  0  8  9  2 27 24  4  5  7 26            -0.002748933
 -20447650.276 9 -15632430.41848  21488345.467    21488347.5584   21488354.5344
      3090.198        2407.946
   -832121.558 9   -642160.64048  21027827.671    21027829.4844   21027836.1254
      -795.079        -619.542
  15525449.005 8  12097948.39346  23242342.588    23242345.6844   23242354.3374
     -3267.633       -2546.207
  -7116674.554 8  -5515471.48546  23209369.652    23209371.0394   23209380.7744
      4254.381        3315.102
 -18967013.573 9 -14764161.71047  21188653.599    21188656.4404   21188663.3524
      3505.784        2731.780
  -2765012.922 9  -2137342.68946  24199633.673    24199635.5694   24199646.6934
      3393.219        2644.067
  -9536403.689 9  -7411323.44048  19795450.186    19795452.0224   19795458.4214
      -688.194        -536.255
  -1552028.556 9  -1197469.14747  22985321.695    22985324.2264   22985331.8874
     -1666.785       -1298.793
 97  5 14 17 44 29.9970000  0  8  9  2 27 24  4  5  7 26            -0.002760738
 -20540186.744 9 -15704536.72648  21470736.399    21470738.4184   21470745.3134
      3078.863        2399.114
   -808154.123 9   -623484.74848  21032388.652    21032390.3504   21032397.0234
      -802.847        -625.595
  15623526.412 8  12174372.26946  23261006.845    23261009.2834   23261017.8824
     -3270.956       -2548.797
  -7244297.056 9  -5614917.53846  23185083.294    23185085.2554   23185094.8354
      4253.471        3314.393
 -19072017.472 9 -14845982.88448  21168672.066    21168674.8444   21168681.7664
      3494.325        2722.851
  -2866843.154 9  -2216690.83346  24180255.749    24180257.9744   24180268.8444
      3395.255        2645.653
  -9515603.683 9  -7395115.65148  19799408.277    19799410.1044   19799416.5124
      -698.578        -544.346
  -1501941.695 9  -1158440.47447  22994853.178    22994855.5644   22994863.1444
     -1672.385       -1303.157
 97  5 14 17 44 59.9970000  0  8  9  2 27 24  4  5  7 26            -0.002772577
 -20632388.937 9 -15776382.57048  21453190.934    21453192.9054   21453199.7364
      3067.323        2390.122
   -783955.644 9   -604628.81648  21036993.424    21036995.1714   21037001.8454
      -811.067        -632.000
  15721696.499 8  12250868.35246  23279688.406    23279690.4684   23279699.0234
     -3274.355       -2551.445
  -7371890.972 8  -5714341.28946  23160802.324    23160804.8714   23160814.3044
      4252.036        3313.275
 -19176682.087 9 -14927539.67548  21148755.044    21148757.8084   21148764.7564
      3482.758        2713.837
  -2968736.832 9  -2296088.34545  24160865.822    24160868.0314   24160878.8514
      3396.993        2647.008
  -9494503.759 9  -7378674.16248  19803423.499    19803425.2984   19803431.7004
      -708.469        -552.054
  -1451687.474 9  -1119281.43547  23004416.116    23004418.6524   23004426.3264
     -1678.602       -1308.002
 97  5 14 17 45 29.9970000  0  8  9  2 27 24  4  5  7 26            -0.002784389
 -20724216.454 9 -15847936.45548  21435716.584    21435718.6824   21435725.4924
      3054.848        2380.401
   -759482.597 9   -585558.93948  21041650.426    21041652.2304   21041658.9284
      -819.845        -638.840
  15819990.620 8  12327461.03246  23298393.698    23298395.3154   23298404.0554
     -3278.167       -2554.416
  -7499414.166 9  -5813709.94346  23136535.020    23136537.9054   23136547.5364
      4250.140        3311.797
 -19280978.973 9 -15008809.93448  21128907.938    21128910.7414   21128917.7544
      3470.831        2704.544
  -3070657.079 9  -2375506.63545  24141471.203    24141473.0574   24141483.7624
      3398.138        2647.900
  -9473105.208 9  -7361999.97748  19807495.479    19807497.3304   19807503.7384
      -717.486        -559.080
  -1401211.027 9  -1079949.21147  23014021.589    23014024.0204   23014031.8054
     -1686.063       -1313.815
 97  5 14 17 45 59.9970000  0  8  9  2 27 24  4  5  7 26            -0.002796173
 -20815663.336 9 -15919193.75348  21418314.760    21418316.9194   21418323.6754
      3041.726        2370.176
   -734749.223 9   -566286.21348  21046357.032    21046358.8334   21046365.5454
      -829.088        -646.043
  15918397.690 8  12404141.74946  23317119.783    23317121.4894   23317130.2834
     -3282.275       -2557.617
  -7626893.165 9  -5913044.15146  23112276.584    23112279.4394   23112289.0844
      4248.282        3310.350
 -19384906.036 9 -15089792.02048  21109131.291    21109134.0184   21109141.0654
      3457.578        2694.217
  -3172605.186 8  -2454946.60145  24122070.769    24122072.9404   24122083.5744
      3398.349        2648.064
  -9451436.580 9  -7345115.34248  19811618.866    19811620.7204   19811627.1314
      -727.242        -566.682
  -1350488.912 9  -1040425.57947  23023673.599    23023676.1174   23023683.9854
     -1695.487       -1321.159
 97  5 14 17 46 29.9970000  0  8  9  2 27 24  4  5  7 26            -0.002807953
 -20906744.991 9 -15990166.45448  21400982.423    21400984.6364   21400991.3704
      3029.545        2360.684
   -709764.057 9   -546817.28448  21051111.536    21051113.3784   21051120.0574
      -837.424        -652.538
  16016916.342 8  12480909.43246  23335866.581    23335869.0584   23335877.8914
     -3286.554       -2560.951
  -7754341.366 9  -6012354.31946  23088023.776    23088026.8164   23088036.5534
      4247.127        3309.450
 -19488459.317 9 -15170482.85248  21089425.623    21089428.4754   21089435.4944
      3445.176        2684.553
  -3274582.384 9  -2534409.19145  24102665.364    24102667.2964   24102677.7354
      3399.397        2648.881
  -9429493.386 9  -7328016.76248  19815794.533    19815796.3824   19815802.7684
      -736.652        -574.014
  -1299511.235 9  -1000702.80147  23033374.580    23033376.9234   23033384.8584
     -1703.670       -1327.535
 97  5 14 17 46 59.9970000  0  8  9  2 27 24  4  5  7 26            -0.002819720
 -20997463.983 9 -16060856.56748  21383719.253    21383721.3774   21383728.0774
      3017.952        2351.651
   -684535.864 9   -527158.97848  21055912.377    21055914.1434   21055920.7914
      -844.897        -658.361
  16115565.466 8  12557778.78246  23354639.105    23354641.4724   23354650.4504
     -3290.572       -2564.082
  -7881743.245 9  -6111628.45346  23063780.243    23063783.0424   23063792.6944
      4245.745        3308.373
 -19591644.698 9 -15250887.01048  21069790.042    21069792.9194   21069799.9104
      3433.308        2675.305
  -3376597.978 8  -2613901.81145  24083252.403    24083254.4634   24083264.3994
      3401.128        2650.230
  -9407271.527 9  -7310701.03848  19820023.113    19820025.0474   19820031.4574
      -745.322        -580.770
  -1248291.367 9   -960791.25247  23043121.414    23043123.7964   23043131.7404
     -1711.280       -1333.465
 97  5 14 17 47 29.9970000  0  8  9  2 27 24  4  5  7 26            -0.002831492
 -21087827.029 9 -16131269.30948  21366523.840    21366525.8364   21366532.5184
      3006.442        2342.682
   -659081.073 9   -507324.10648  21060756.227    21060758.0674   21060764.7134
      -851.845        -663.775
  16214343.554 8  12634748.61146  23373435.723    23373438.4184   23373447.5844
     -3294.352       -2567.028
  -8009098.132 9  -6210865.99746  23039545.678    23039548.1154   23039557.6844
      4244.647        3307.517
 -19694465.912 9 -15331007.40448  21050223.840    21050226.6654   21050233.6254
      3421.644        2666.216
  -3478651.120 8  -2693423.66345  24063832.184    24063833.9204   24063843.7734
      3402.603        2651.379
  -9384773.881 9  -7293170.41848  19824304.293    19824306.2124   19824312.5934
      -754.455        -587.887
  -1196848.005 9   -920705.59647  23052911.166    23052913.2354   23052921.3204
     -1717.738       -1338.497
 97  5 14 17 47 59.9970000  0  8  9  2 27 24  4  5  7 26            -0.002843290
 -21177837.949 9 -16201407.67148  21349395.203    21349397.3504   21349403.9714
      2995.116        2333.857
   -633413.726 9   -487323.60548  21065640.577    21065642.4454   21065649.1174
      -858.542        -668.994
  16313239.639 8  12711810.39146  23392254.606    23392257.7454   23392266.9834
     -3297.905       -2569.796
  -8136410.491 9  -6310070.38446  23015319.424    23015321.3874   23015330.9694
      4243.194        3306.385
 -19796929.354 9 -15410849.01648  21030725.751    21030728.5054   21030735.4684
      3410.069        2657.197
  -3580741.468 8  -2772974.38045  24044404.591    24044406.7724   24044416.7314
      3404.158        2652.591
  -9361987.182 9  -7275414.55848  19828640.496    19828642.3824   19828648.7534
      -763.786        -595.158
  -1145217.417 9   -880474.03747  23062736.192    23062738.2034   23062746.2304
     -1723.302       -1342.833
 97  5 14 17 48 29.9970000  0  8  9  2 27 24  4  5  7 26            -0.002855095
 -21267491.371 9 -16271267.46348  21332334.692    21332336.8404   21332343.4594
      2982.092        2323.708
   -607526.260 9   -467151.57948  21070566.859    21070568.7024   21070575.3534
      -867.021        -675.601
  16412260.439 8  12788969.35446  23411098.271    23411100.8844   23411110.1344
     -3302.931       -2573.712
  -8263648.798 9  -6409217.12346  22991106.534    22991108.6404   22991118.1884
      4239.496        3303.503
 -19899031.775 9 -15490409.30648  21011296.253    21011299.0224   21011306.0004
      3397.146        2647.127
  -3682859.044 8  -2852546.33345  24024972.532    24024974.5644   24024984.2574
      3404.058        2652.513
  -9338917.725 9  -7257438.37048  19833030.519    19833032.3464   19833038.7214
      -773.628        -602.827
  -1093419.180 9   -840111.83347  23072593.023    23072595.1514   23072603.2254
     -1729.499       -1347.662
 97  5 14 17 48 59.9970000  0  8  9  2 27 24  4  5  7 26            -0.002866877
 -21356757.970 9 -16340825.83148  21315347.919    21315349.9644   21315356.6184
      2969.228        2313.684
   -581393.569 9   -446788.47648  21075539.746    21075541.5804   21075548.2404
      -874.865        -681.713
  16511402.033 8  12866222.42346  23429965.183    23429966.8934   23429976.3214
     -3306.062       -2576.152
  -8390788.184 9  -6508286.69046  22966912.699    22966914.7054   22966924.2214
      4236.805        3301.406
 -20000761.602 9 -15569679.27048  20991937.649    20991940.4434   20991947.4494
      3385.154        2637.782
  -3784975.763 9  -2932117.68645  24005539.978    24005542.1824   24005552.4234
      3403.901        2652.390
  -9315573.294 9  -7239247.91848  19837472.823    19837474.6424   19837481.0464
      -782.394        -609.658
  -1041447.012 9   -799614.12047  23082482.963    23082485.2594   23082493.3114
     -1734.989       -1351.939
 97  5 14 17 49 29.9970000  0  8  9  2 27 24  4  5  7 26            -0.002878638
 -21445626.705 9 -16410074.17548  21298436.672    21298438.7894   21298445.4154
      2954.790        2302.434
   -555013.171 9   -426232.34748  21080559.723    21080561.6424   21080568.2544
      -884.356        -689.109
  16610635.020 8  12943546.67146  23448848.755    23448850.3444   23448859.8494
     -3309.760       -2579.034
  -8517851.083 9  -6607296.69746  22942733.103    22942735.4184   22942744.8234
      4233.317        3298.689
 -20102132.173 9 -15648669.29948  20972647.612    20972650.2744   20972657.2494
      3372.297        2627.764
  -3887077.713 8  -3011677.55445  23986110.730    23986112.6464   23986122.8134
      3402.413        2651.231
  -9291958.999 9  -7220847.17948  19841966.492    19841968.3074   19841974.6974
      -792.475        -617.513
   -989307.708 9   -758986.19947  23092404.936    23092407.0924   23092415.0894
     -1741.607       -1357.096
 97  5 14 17 49 59.9970000  0  8  9  2 27 24  4  5  7 26            -0.002890357
 -21534074.170 9 -16478994.25948  21281605.711    21281607.7814   21281614.4084
      2941.535        2292.105
   -528362.855 9   -405465.90048  21085631.282    21085633.0864   21085639.6734
      -892.471        -695.432
  16709957.753 8  13020940.91846  23467749.167    23467750.9864   23467760.3374
     -3312.048       -2580.817
  -8644821.035 9  -6706234.17846  22918571.134    22918573.6984   22918583.3184
      4231.040        3296.914
 -20203129.825 9 -15727368.75648  20953428.471    20953431.0604   20953437.9744
      3360.534        2618.598
  -3989154.238 8  -3091217.53945  23966686.109    23966688.0794   23966698.3594
      3402.509        2651.306
  -9268065.320 9  -7202228.73948  19846513.345    19846515.1274   19846521.5314
      -800.547        -623.803
   -936975.318 9   -718207.78547  23102363.360    23102365.6394   23102373.6804
     -1747.522       -1361.705
 97  5 14 17 50 29.9970000  0  8  9  2 27 24  4  5  7 26            -0.002902036
 -21622104.638 9 -16547589.40148  21264854.130    21264856.1134   21264862.7784
      2927.214        2280.946
   -501444.655 9   -384490.70848  21090753.546    21090755.5014   21090762.0804
      -901.993        -702.852
  16809365.328 8  13098401.23946  23486666.081    23486667.7954   23486677.0524
     -3315.053       -2583.158
  -8771708.440 9  -6805107.40446  22894425.558    22894427.8664   22894437.3864
      4228.236        3294.729
 -20303747.223 9 -15805771.90048  20934281.521    20934284.2104   20934291.1164
      3347.442        2608.396
  -4091219.881 8  -3170748.98845  23947263.558    23947265.2974   23947275.7904
      3402.006        2650.914
  -9243911.104 9  -7183407.28148  19851109.715    19851111.5354   19851117.9614
      -809.699        -630.934
   -884442.086 9   -677272.96447  23112360.208    23112362.5104   23112370.7464
     -1754.549       -1367.181
 97  5 14 17 50 59.9970000  0  8  9  2 27 24  4  5  7 26            -0.002913700
 -21709725.888 9 -16615865.67448  21248180.344    21248182.3454   21248188.9514
      2913.240        2270.057
   -474273.892 9   -363318.71448  21095924.034    21095925.9544   21095932.5134
      -910.244        -709.281
  16908827.898 8  13175904.42445  23505592.825    23505594.8164   23505604.1464
     -3317.032       -2584.700
  -8898548.667 9  -6903943.83046  22870288.087    22870290.8374   22870300.5074
      4226.752        3293.573
 -20404002.793 9 -15883893.10548  20915203.531    20915206.2264   20915213.1094
      3335.140        2598.810
  -4193308.095 8  -3250298.11246  23927836.671    23927838.6334   23927849.1414
      3402.806        2651.537
  -9219499.284 9  -7164385.09648  19855755.156    19855756.9104   19855763.3494
      -818.763        -637.997
   -831730.894 9   -636199.39046  23122390.968    23122393.2154   23122401.3124
     -1760.481       -1371.803
 97  5 14 17 51 29.9970000  0  8  9  2 27 24  4  5  7 26            -0.002925347
 -21796915.352 9 -16683805.49548  21231588.731    21231590.7364   21231597.2814
      2898.819        2258.820
   -446838.433 9   -341940.46648  21101144.863    21101146.7674   21101153.3004
      -919.288        -716.328
  17008377.243 8  13253475.20845  23524537.020    23524538.5734   23524547.8044
     -3320.442       -2587.357
  -9025323.636 9  -7002729.41946  22846163.046    22846166.3014   22846176.0064
      4223.810        3291.281
 -20503861.332 9 -15961704.93648  20896201.058    20896203.7714   20896210.6384
      3321.298        2588.024
  -4295405.906 8  -3329854.73446  23908408.134    23908409.8494   23908420.4594
      3403.106        2651.771
  -9194799.161 9  -7145138.25848  19860455.374    19860457.1764   19860463.6504
      -828.583        -645.649
   -778827.417 9   -594975.91447  23132458.195    23132460.4444   23132468.5694
     -1767.052       -1376.924
 97  5 14 17 51 59.9970000  0  8  9  2 27 24  4  5  7 26            -0.002937004
 -21883694.343 9 -16751425.46548  21215074.952    21215077.2034   21215083.7504
      2887.067        2249.662
   -419163.563 9   -320375.66448  21106411.187    21106413.1534   21106419.6674
      -925.139        -720.888
  17108022.587 8  13331120.80346  23543498.726    23543500.4894   23543509.6864
     -3322.110       -2588.657
  -9152022.823 9  -7101455.99746  22822053.376    22822056.0634   22822065.6924
      4223.193        3290.800
 -20603316.153 9 -16039202.17948  20877275.387    20877278.1054   20877284.9854
      3309.495        2578.827
  -4397536.681 8  -3409437.05546  23888973.291    23888975.0004   23888985.6464
      3406.227        2654.203
  -9169824.683 9  -7125677.63748  19865207.754    19865209.6404   19865216.1374
      -835.862        -651.321
   -725753.675 9   -553619.87047  23142557.578    23142559.9504   23142568.4174
     -1770.444       -1379.567
 97  5 14 17 52 29.9970000  0  8  9  2 27 24  4  5  7 26            -0.002948571
 -21970092.198 9 -16818748.44848  21198633.953    21198636.2324   21198642.7464
      2873.968        2239.456
   -391279.841 9   -298648.12248  21111717.247    21111719.2964   21111725.8114
      -932.669        -726.755
  17207757.679 8  13408836.32245  23562477.581    23562479.5714   23562488.6724
     -3325.605       -2591.381
  -9278668.202 9  -7200140.55646  22797953.498    22797956.1864   22797965.9244
      4220.717        3288.870
 -20702382.729 9 -16116396.88948  20858423.618    20858426.3274   20858433.1994
      3296.127        2568.411
  -4499728.599 8  -3489066.99645  23869526.213    23869528.3054   23869539.0184
      3407.782        2655.415
  -9144589.651 9  -7106013.98448  19870009.859    19870011.6964   19870018.1964
      -845.426        -658.774
   -672555.019 9   -512166.41247  23152680.798    23152683.3334   23152691.8234
     -1774.845       -1382.996
 97  5 14 17 52 59.9970000  0  8  9  2 27 24  4  5  7 26            -0.002960310
 -22056113.692 9 -16885778.16348  21182264.667    21182266.8774   21182273.3634
      2860.421        2228.899
   -363184.222 9   -276755.45948  21117063.875    21117065.7724   21117072.2804
      -940.873        -733.148
  17307585.933 8  13486624.44045  23581474.272    23581476.2924   23581485.4404
     -3330.179       -2594.945
  -9405239.590 9  -7298767.56446  22773868.364    22773870.5604   22773880.0274
      4216.697        3285.738
 -20801056.848 9 -16193285.78548  20839646.302    20839649.2464   20839656.1004
      3281.563        2557.062
  -4601977.074 9  -3568741.03246  23850069.343    23850071.0984   23850081.6954
      3408.119        2655.677
  -9119072.094 9  -7086130.18348  19874865.629    19874867.4794   19874873.9534
      -856.192        -667.163
   -619232.608 9   -470616.54647  23162827.718    23162830.3724   23162838.8954
     -1780.556       -1387.446
 97  5 14 17 53 29.9970000  0  8  9  2 27 24  4  5  7 26            -0.002972121
 -22141770.467 9 -16952523.67948  21165964.784    21165966.9034   21165973.4204
      2849.031        2220.024
   -334862.212 9   -254686.38848  21122453.510    21122455.3134   21122461.8434
      -948.242        -738.890
  17407531.530 8  13564503.97245  23600493.452    23600495.4684   23600504.5664
     -3333.604       -2597.613
  -9531702.120 9  -7397309.67646  22749803.113    22749805.4224   22749814.8184
      4213.216        3283.025
 -20899322.127 9 -16269856.10748  20820947.094    20820949.9704   20820956.7694
      3268.643        2546.995
  -4704262.313 9  -3648443.63246  23830604.623    23830606.7284   23830617.4274
      3409.949        2657.103
  -9093255.497 9  -7066013.36648  19879778.394    19879780.2454   19879786.7074
      -865.772        -674.628
   -565765.902 9   -428954.30047  23173002.079    23173004.7634   23173013.3244
     -1784.915       -1390.843
 97  5 14 17 53 59.9970000  0  8  9  2 27 24  4  5  7 26            -0.002983956
 -22227054.870 9 -17018979.04048  21149735.833    21149737.8264   21149744.3634
      2837.027        2210.670
   -306288.020 9   -232420.81748  21127890.973    21127892.7954   21127899.3814
      -956.262        -745.139
  17507593.302 8  13642474.08145  23619534.640    23619536.8964   23619545.6724
     -3336.439       -2599.823
  -9658044.418 9  -7495758.14446  22725760.828    22725763.2424   22725772.6504
      4210.258        3280.721
 -20997184.455 9 -16346112.44348  20802324.537    20802327.3844   20802334.1254
      3256.100        2537.221
  -4806584.473 9  -3728175.05446  23811133.454    23811135.3464   23811145.9234
      3412.037        2658.730
  -9067130.950 9  -7045656.58848  19884749.773    19884751.6384   19884758.1164
      -875.257        -682.018
   -512139.866 9   -387167.80546  23183207.004    23183209.5624   23183217.8654
     -1789.657       -1394.538
 97  5 14 17 54 29.9970000  0  8  9  2 27 24  4  5  7 26            -0.002995789
 -22311978.147 9 -17085152.99548  21133575.417    21133577.4254   21133583.9794
      2824.869        2201.197
   -277466.180 9   -209962.26648  21133375.651    21133377.4334   21133384.0604
      -964.911        -751.879
  17607726.207 8  13720499.59645  23638589.575    23638591.7194   23638600.5674
     -3338.611       -2601.515
  -9784299.557 9  -7594138.67946  22701735.086    22701737.6284   22701746.9154
      4206.884        3278.091
 -21094673.438 9 -16422077.86448  20783773.074    20783775.8524   20783782.5714
      3243.557        2527.447
  -4908967.173 9  -3807953.65746  23791650.753    23791652.4604   23791663.1234
      3413.760        2660.073
  -9040725.046 9  -7025080.56648  19889774.661    19889776.5494   19889783.0354
      -884.605        -689.303
   -458357.687 9   -345259.69847  23193441.332    23193444.1014   23193452.4234
     -1795.470       -1399.068
 97  5 14 17 54 59.9970000  0  8  9  2 27 24  4  5  7 26            -0.003007532
 -22396522.635 9 -17151031.79348  21117487.090    21117489.1374   21117495.6854
      2811.746        2190.971
   -248368.280 9   -187288.60848  21138912.916    21138914.6124   21138921.2984
      -974.385        -759.261
  17707930.534 8  13798580.71945  23657657.986    23657659.9754   23657669.0814
     -3341.230       -2603.556
  -9910440.254 9  -7692430.08346  22677731.253    22677733.8334   22677742.9594
      4202.803        3274.911
 -21191776.891 9 -16497742.85648  20765294.889    20765297.6614   20765304.4284
      3230.415        2517.206
  -5011381.695 9  -3887757.05846  23772161.745    23772163.5954   23772174.1864
      3414.230        2660.439
  -9014043.160 9  -7004289.49448  19894852.082    19894853.9664   19894860.4694
      -893.579        -696.295
   -404383.854 9   -303202.29446  23203712.613    23203715.0154   23203723.3634
     -1802.296       -1404.386
 97  5 14 17 55 29.9960000  0  8  9  2 27 24  4  5  7 26            -0.003019258
 -22480672.171 9 -17216602.84148  21101473.906    21101475.9754   21101482.5304
      2798.084        2180.325
   -219004.114 9   -164407.47248  21144500.657    21144502.4484   21144509.1964
      -983.479        -766.347
  17808196.347 8  13876709.80545  23676737.951    23676740.0364   23676749.0084
     -3343.510       -2605.332
 -10036469.857 9  -7790634.90146  22653748.615    22653751.1474   22653760.2154
      4199.121        3272.042
 -21288495.273 9 -16573107.80948  20746889.982    20746892.7524   20746899.5244
      3217.281        2506.972
  -5113817.037 9  -3967576.71546  23752668.595    23752670.7214   23752681.1754
      3414.849        2660.921
  -8987115.596 9  -6983306.98148  19899976.307    19899978.1584   19899984.6644
      -901.771        -702.679
   -350229.162 9   -261003.92847  23214018.158    23214020.4624   23214028.7064
     -1808.343       -1409.098
 97  5 14 17 55 59.9960000  0  8  9  2 27 24  4  5  7 26            -0.003030946
 -22564398.254 9 -17281843.92748  21085541.486    21085543.4004   21085549.9524
      2783.501        2168.962
   -189365.677 9   -141312.61548  21150140.771    21150142.4594   21150149.2724
      -992.544        -773.411
  17908537.398 8  13954897.50945  23695832.341    23695834.4524   23695843.1144
     -3346.220       -2607.444
 -10162389.909 9  -7888754.34946  22629787.081    22629789.2634   22629798.2804
      4195.012        3268.841
 -21384799.056 9 -16648149.68148  20728564.062    20728566.7194   20728573.5364
      3202.645        2495.568
  -5216269.843 9  -4047409.96746  23733172.674    23733174.6394   23733184.9604
      3415.077        2661.099
  -8959944.907 9  -6962135.02248  19905146.710    19905148.5644   19905155.0964
      -909.902        -709.014
   -295884.883 9   -218657.80747  23224359.700    23224362.0644   23224370.1714
     -1814.587       -1413.964
 97  5 14 17 56 29.9960000  0  8  9  2 27 24  4  5  7 26            -0.003042627
 -22647723.823 9 -17346772.92648  21069684.995    21069687.0184   21069693.5894
      2771.248        2159.414
   -159487.068 9   -118030.61448  21155826.637    21155828.2094   21155835.0534
      -999.771        -779.042
  18008935.281 8  14033129.53246  23714937.007    23714939.5624   23714948.3244
     -3347.550       -2608.481
 -10288205.549 9  -7986792.43946  22605845.234    22605847.3914   22605856.3644
      4192.007        3266.499
 -21480680.350 9 -16722862.35448  20710318.401    20710321.0944   20710327.9544
      3189.052        2484.976
  -5318748.021 9  -4127262.99546  23713671.813    23713673.6164   23713683.8454
      3416.391        2662.123
  -8932560.486 9  -6940796.52148  19910357.787    19910359.6374   19910366.1774
      -916.100        -713.844
   -241392.098 9   -176195.98347  23234729.356    23234731.7324   23234739.9154
     -1818.393       -1416.930
 97  5 14 17 56 59.9960000  0  8  9  2 27 24  4  5  7 26            -0.003054322
 -22730668.966 9 -17411405.49248  21053901.178    21053903.0794   21053909.6774
      2758.024        2149.110
   -129387.341 9    -94576.31248  21161554.297    21161556.0354   21161562.9144
     -1007.089        -784.745
  18109383.358 8  14111400.56645  23734050.667    23734054.1594   23734063.1644
     -3349.325       -2609.864
 -10413929.973 9  -8084759.40746  22581920.615    22581922.7404   22581931.9254
      4189.164        3264.284
 -21576141.761 9 -16797247.84348  20692152.706    20692155.3854   20692162.2414
      3174.772        2473.848
  -5421262.134 9  -4207144.02946  23694163.832    23694165.8044   23694175.9134
      3417.744        2663.177
  -8904986.370 9  -6919310.20148  19915604.909    19915606.8104   19915613.3424
      -922.694        -718.982
   -186797.653 9   -133654.94347  23245118.218    23245120.7044   23245129.0014
     -1821.522       -1419.368
 97  5 14 17 57 29.9960000  0  8  9  2 27 24  4  5  7 26            -0.003066038
 -22813187.977 9 -17475706.01248  21038198.290    21038200.2144   21038206.8204
      2743.439        2137.745
    -99043.601 9    -70931.87848  21167328.399    21167330.2754   21167337.2644
     -1015.961        -791.658
  18209914.400 8  14189736.27445  23753181.344    23753184.6984   23753193.6574
     -3352.646       -2612.451
 -10539548.130 9  -8182643.60846  22558016.029    22558018.3454   22558027.5754
      4185.334        3261.299
 -21671147.778 9 -16871278.48348  20674073.728    20674076.3614   20674083.1584
      3159.013        2461.569
  -5523795.547 9  -4287040.10146  23674652.213    23674654.2884   23674664.1884
      3417.758        2663.188
  -8877175.266 9  -6897639.22248  19920897.136    19920899.0504   19920905.6224
      -931.402        -725.768
   -132086.402 9    -91022.91647  23255529.511    23255531.9344   23255540.3544
     -1826.046       -1422.893
 97  5 14 17 57 59.9960000  0  8  9  2 27 24  4  5  7 26            -0.003077759
 -22895279.508 9 -17539673.43248  21022576.773    21022578.6964   21022585.3194
      2728.740        2126.291
    -68434.842 9    -47080.92548  21173153.153    21173154.9634   21173161.9424
     -1025.203        -798.859
  18310530.472 8  14268138.32645  23772328.869    23772331.4704   23772340.0854
     -3355.538       -2614.705
 -10665061.725 9  -8280446.28046  22534131.120    22534133.7204   22534143.2304
      4181.613        3258.400
 -21765693.277 9 -16944950.28148  20656082.363    20656084.9694   20656091.6754
      3143.678        2449.619
  -5626331.525 9  -4366938.17046  23655140.301    23655142.2574   23655151.9614
      3417.285        2662.819
  -8849110.688 9  -6875770.73048  19926237.640    19926239.5834   19926246.1464
      -940.222        -732.641
    -77239.352 9    -48285.01446  23265966.560    23265969.0894   23265977.5234
     -1830.986       -1426.742
 97  5 14 17 58 29.9960000  0  8  9  2 27 24  4  5  7 26            -0.003089455
 -22976925.690 9 -17603293.82148  21007039.914    21007041.8764   21007048.5564
      2714.443        2115.150
    -37538.713 9    -23006.05248  21179032.449    21179034.3264   21179041.3194
     -1034.214        -805.881
  18411235.012 8  14346609.30045  23791492.338    23791494.8594   23791503.6284
     -3357.677       -2616.372
 -10790463.066 9  -8378161.63446  22510267.804    22510270.6104   22510279.8874
      4178.561        3256.022
 -21859784.264 9 -17018267.91548  20638177.448    20638180.0504   20638186.7244
      3129.379        2438.477
  -5728835.357 9  -4446811.16446  23635634.381    23635636.3164   23635646.1904
      3416.609        2662.293
  -8820771.058 9  -6853687.91048  19931630.575    19931632.4944   19931638.9924
      -948.910        -739.410
    -22236.518 9     -5425.73846  23276433.013    23276435.6504   23276444.1404
     -1835.757       -1430.460
 97  5 14 17 58 59.9960000  0  8  9  2 27 24  4  5  7 26            -0.003101141
 -23058138.670 9 -17666576.64848  20991585.647    20991587.5904   20991594.2794
      2699.683        2103.649
     -6387.452 9      1267.62348  21184960.403    21184962.2374   21184969.2754
     -1042.636        -812.444
  18511986.631 8  14425116.87845  23810664.765    23810667.1954   23810676.5644
     -3359.089       -2617.472
 -10915791.366 9  -8475819.94346  22486418.465    22486421.2564   22486430.6874
      4176.166        3254.155
 -21953468.352 9 -17091268.47648  20620349.967    20620352.5264   20620359.1804
      3116.074        2428.110
  -5831333.861 8  -4526680.02946  23616129.378    23616131.4334   23616141.2994
      3416.556        2662.251
  -8792175.238 9  -6831405.46448  19937072.235    19937074.1384   19937080.5774
      -957.723        -746.278
     32908.611 9     37544.41247  23286926.809    23286929.4284   23286938.0324
     -1840.711       -1434.320
 97  5 14 17 59 29.9960000  0  8  9  2 27 24  4  5  7 26            -0.003112823
 -23138936.565 9 -17729536.03148  20976210.380    20976212.2664   20976218.9984
      2686.431        2093.323
     24993.861 9     25720.56448  21190932.084    21190933.9534   21190940.9734
     -1049.943        -818.137
  18612760.591 8  14503641.92345  23829841.088    23829843.7004   23829853.3794
     -3359.541       -2617.824
 -11041050.813 9  -8573424.65546  22462582.823    22462585.2014   22462594.5214
      4173.757        3252.278
 -22046772.356 9 -17163972.86748  20602594.960    20602597.3484   20602604.0044
      3103.678        2418.450
  -5933840.694 9  -4606555.34946  23596622.760    23596624.8514   23596634.6724
      3416.822        2662.459
  -8763333.127 9  -6808931.10548  19942560.766    19942562.6634   19942569.0444
      -965.342        -752.215
     88192.520 9     80622.70846  23297447.077    23297449.6744   23297458.2844
     -1845.161       -1437.788
 97  5 14 17 59 59.9960000  0  8  9  2 27 24  4  5  7 26            -0.003124482
 -23219306.567 9 -17792161.99248  20960916.437    20960918.3984   20960925.1834
      2671.856        2081.966
     56620.785 9     50364.88748  21196950.446    21196952.3614   21196959.4334
     -1058.037        -824.444
  18713574.975 8  14582198.51045  23849026.453    23849028.3204   23849037.4704
     -3361.101       -2619.040
 -11166194.099 9  -8670938.80246  22438768.673    22438771.0934   22438780.4984
      4169.313        3248.815
 -22139676.207 9 -17236365.45148  20584915.787    20584918.3174   20584924.9854
      3090.160        2407.917
  -6036341.431 8  -4686425.96945  23577117.401    23577119.6034   23577129.3734
      3417.025        2662.617
  -8734246.168 9  -6786265.95148  19948095.919    19948097.7774   19948104.1214
      -973.497        -758.569
    143618.655 9    123811.83246  23307994.390    23307996.9964   23308005.6304
     -1849.378       -1441.074
 97  5 14 18  0 29.9960000  0  8  9  2 27 24  4  5  7 26            -0.003136136
 -23299236.434 9 -17854444.98748  20945706.370    20945708.2754   20945715.0594
      2657.136        2070.495
     88488.975 9     75197.20748  21203014.745    21203016.6464   21203023.7784
     -1066.116        -830.740
  18814445.177 8  14660798.51545  23868221.288    23868223.4124   23868232.7184
     -3363.399       -2620.830
 -11291187.483 9  -8768336.19346  22414983.260    22414985.6334   22414995.0324
      4163.742        3244.474
 -22232158.484 9 -17308429.54048  20567317.003    20567319.5234   20567326.1664
      3075.650        2396.610
  -6138849.976 9  -4766302.60746  23557610.617    23557612.7034   23557622.5074
      3417.302        2662.833
  -8704907.738 9  -6763404.85148  19953678.945    19953680.7004   19953686.9914
      -982.113        -765.283
    199169.723 9    167098.31546  23318565.528    23318568.0744   23318576.5664
     -1853.553       -1444.327
 97  5 14 18  0 59.9960000  0  8  9  2 27 24  4  5  7 26            -0.003147798
 -23378727.685 9 -17916386.20748  20930579.648    20930581.5674   20930588.3654
      2643.058        2059.526
    120587.439 9    100208.97248  21209122.887    21209124.8184   21209131.8994
     -1073.307        -836.343
  18915381.679 8  14739450.17345  23887429.577    23887431.2554   23887440.5664
     -3365.058       -2622.123
 -11416011.985 9  -8865601.96646  22391229.742    22391232.2414   22391241.5724
      4158.345        3240.269
 -22324213.986 9 -17380161.07948  20549799.255    20549801.9414   20549808.5924
      3061.850        2385.857
  -6241380.009 9  -4846196.03745  23538099.690    23538101.8844   23538111.5574
      3418.672        2663.900
  -8675320.138 9  -6740349.58848  19959309.172    19959311.0014   19959317.2844
      -989.609        -771.124
    254831.198 9    210470.82446  23329157.573    23329160.1354   23329168.6734
     -1856.480       -1446.608
 97  5 14 18  1 29.9960000  0  8  9  2 27 24  4  5  7 26            -0.003159484
 -23457810.825 9 -17978009.41548  20915530.534    20915532.5194   20915539.2954
      2628.223        2047.966
    152893.742 9    125382.68648  21215270.509    21215272.5254   21215279.6154
     -1081.461        -842.697
  19016357.541 8  14818132.62845  23906645.352    23906646.5094   23906655.4934
     -3367.445       -2623.983
 -11540678.583 9  -8962744.69346  22367506.343    22367509.0104   22367518.3704
      4151.983        3235.311
 -22415853.775 9 -17451568.68548  20532360.785    20532363.4524   20532370.1204
      3046.547        2373.933
  -6343959.803 9  -4926128.21346  23518579.231    23518581.4564   23518591.0804
      3419.214        2664.323
  -8645527.824 9  -6717134.81648  19964978.554    19964980.3094   19964986.6044
      -997.317        -777.130
    310567.782 9    253901.84246  23339764.038    23339766.4404   23339775.0874
     -1860.003       -1449.353
 97  5 14 18  1 59.9960000  0  8  9  2 27 24  4  5  7 26            -0.003171183
 -23536442.637 9 -18039280.93948  20900567.344    20900569.3234   20900576.0774
      2613.489        2036.485
    185445.233 9    150747.45248  21221464.709    21221466.8744   21221473.9344
     -1088.999        -848.571
  19117393.306 8  14896861.66545  23925871.983    23925873.1654   23925882.0774
     -3368.671       -2624.938
 -11665173.131 9  -9059753.34847  22343815.952    22343818.3964   22343827.7814
      4147.250        3231.623
 -22507034.478 9 -17522618.55848  20515009.516    20515012.3084   20515018.9894
      3031.641        2362.318
  -6446566.967 9  -5006081.75345  23499053.926    23499055.9914   23499065.5134
      3420.559        2665.371
  -8615507.837 9  -6693742.63448  19970691.153    19970692.9484   19970699.2604
     -1004.579        -782.789
    366400.002 9    297407.38347  23350388.598    23350391.0424   23350399.8434
     -1862.656       -1451.420
 97  5 14 18  2 29.9960000  0  8  9  2 27 24  4  5  7 26            -0.003182920
 -23614636.073 9 -18100210.87248  20885687.520    20885689.5584   20885696.3054
      2599.777        2025.800
    218216.696 9    176283.62848  21227701.089    21227703.0944   21227710.1664
     -1095.580        -853.699
  19218460.303 8  14975615.05945  23945104.343    23945105.5874   23945114.8634
     -3368.665       -2624.934
 -11789539.527 9  -9156662.17246  22320149.662    22320152.3114   22320161.5784
      4144.073        3229.148
 -22597766.993 9 -17593319.18948  20497743.705    20497746.5144   20497753.1884
      3017.601        2351.377
  -6549207.408 9  -5086061.20446  23479521.861    23479524.0134   23479533.3844
      3422.503        2666.885
  -8585266.425 9  -6670177.91248  19976445.923    19976447.6844   19976454.0084
     -1011.136        -787.898
    422321.035 9    340982.12646  23361029.968    23361032.5104   23361041.4734
     -1865.025       -1453.266
 97  5 14 18  2 59.9960000  0  8  9  2 27 24  4  5  7 26            -0.003194673
 -23692374.893 9 -18160786.55848  20870894.335    20870896.3404   20870903.0824
      2583.907        2013.434
    251235.664 9    202012.66348  21233984.502    21233986.4434   21233993.4874
     -1104.796        -860.880
  19319559.003 8  15054393.19045  23964342.988    23964344.1264   23964353.1194
     -3370.231       -2626.154
 -11913778.077 9  -9253471.34047  22296507.953    22296510.4344   22296519.6924
      4139.384        3225.494
 -22688043.183 9 -17663664.24948  20480564.713    20480567.5234   20480574.1744
      3001.672        2338.965
  -6651867.725 9  -5166056.14546  23459986.408    23459988.2374   23459997.7184
      3422.690        2667.031
  -8554794.287 9  -6646433.40148  19982244.576    19982246.3724   19982252.7054
     -1019.278        -794.243
    478348.466 9    384639.78546  23371691.854    23371694.2394   23371703.1574
     -1869.111       -1456.450
 97  5 14 18  3 29.9960000  0  8  9  2 27 24  4  5  7 26            -0.003206438
 -23769654.738 9 -18221004.60248  20856188.467    20856190.4604   20856197.1684
      2568.865        2001.713
    284528.132 9    227954.81848  21240320.035    21240321.8494   21240328.8244
     -1113.915        -867.986
  19420693.078 8  15133198.86345  23983588.499    23983589.4304   23983598.8644
     -3371.369       -2627.041
 -12037894.214 9  -9350185.11946  22272889.521    22272891.8604   22272901.1074
      4135.647        3222.582
 -22777845.101 9 -17733639.74948  20463475.951    20463478.7714   20463485.4024
      2985.923        2326.693
  -6754554.025 9  -5246071.32346  23440445.264    23440447.5544   23440457.1564
      3423.730        2667.841
  -8524081.718 9  -6622501.54848  19988089.050    19988090.8184   19988097.1634
     -1027.569        -800.703
    534486.625 9    428383.74146  23382374.733    23382377.1914   23382385.8564
     -1872.689       -1459.238
 97  5 14 18  3 59.9960000  0  8  9  2 27 24  4  5  7 26            -0.003218214
 -23846492.557 9 -18280878.21548  20841566.711    20841568.7184   20841575.3674
      2555.061        1990.957
    318090.657 9    254107.40848  21246706.952    21246708.6064   21246715.5054
     -1122.173        -874.421
  19521864.593 8  15212033.66945  24002839.561    24002841.7694   24002850.9514
     -3372.107       -2627.616
 -12161901.913 9  -9446814.44346  22249291.362    22249293.8964   22249302.9984
      4132.518        3220.144
 -22867179.251 9 -17803250.75648  20446476.257    20446479.0024   20446485.6604
      2971.004        2315.068
  -6857267.828 9  -5326107.88946  23420899.573    23420901.6804   23420911.3214
      3425.081        2668.894
  -8493115.144 9  -6598371.76748  19993981.783    19993983.5744   19993989.9594
     -1035.612        -806.970
    590728.743 9    472208.71347  23393077.520    23393079.9264   23393088.5464
     -1875.496       -1461.425
 97  5 14 18  4 29.9960000  0  7  9  2 24  4  5  7 26               -0.003230003
 -23922929.831 9 -18340439.70948  20827021.169    20827023.1994   20827029.7994
      2540.609        1979.695
    351901.109 9    280453.18848  21253140.965    21253142.5164   21253149.4444
     -1131.989        -882.069
 -12285804.113 9  -9543361.54046  22225713.532    22225716.1134   22225725.1254
      4127.365        3216.129
 -22956071.679 9 -17872517.56248  20429560.508    20429563.3124   20429569.9414
      2955.197        2302.751
  -6960028.228 9  -5406180.79146  23401345.020    23401346.8344   23401356.5394
      3425.585        2669.287
  -8461909.382 9  -6574055.60448  19999920.035    19999921.8344   19999928.2564
     -1044.679        -814.036
    647051.015 9    516096.10846  23403795.190    23403797.7084   23403806.4864
     -1879.282       -1464.376
 97  5 14 18  4 59.9960000  0  7  9  2 24  4  5  7 26               -0.003241769
 -23998936.497 9 -18399665.66648  20812557.392    20812559.5444   20812566.1384
      2525.926        1968.254
    386003.914 9    307026.77048  21259630.524    21259632.0274   21259638.9754
     -1141.965        -889.843
 -12409548.433 9  -9639785.61946  22202165.951    22202168.2884   22202177.2544
      4121.530        3211.582
 -23044499.332 9 -17941422.20948  20412733.282    20412736.0744   20412742.7074
      2939.294        2290.359
  -7062806.477 9  -5486267.55646  23381786.663    23381788.5954   23381798.4594
      3425.655        2669.341
  -8430443.138 9  -6549536.46848  20005907.928    20005909.6824   20005916.0994
     -1053.588        -820.978
    703473.825 9    560061.82446  23414532.078    23414534.5394   23414543.3464
     -1882.745       -1467.074
 97  5 14 18  5 29.9960000  0  7  9  2 24  4  5  7 26               -0.003253515
 -24074519.320 9 -18458561.35248  20798174.426    20798176.5834   20798183.1924
      2511.786        1957.236
    420382.223 9    333815.03648  21266172.330    21266174.0584   21266180.9654
     -1150.826        -896.748
 -12533128.773 9  -9736081.91847  22178649.460    22178651.6894   22178660.6974
      4115.897        3207.192
 -23132460.364 9 -18009963.26248  20395994.890    20395997.5944   20396004.2264
      2923.820        2278.301
  -7165593.629 9  -5566361.29346  23362226.770    23362228.7794   23362238.5934
      3425.703        2669.379
  -8398723.961 9  -6524820.24148  20011943.856    20011945.6594   20011952.0704
     -1061.820        -827.392
    759992.622 9    604102.38846  23425287.191    23425289.8074   23425298.5414
     -1886.254       -1469.808
 97  5 14 18  5 59.9960000  0  7  9  2 24  4  5  7 26               -0.003265251
 -24149689.828 9 -18517135.75348  20783869.829    20783872.0594   20783878.7074
      2498.250        1946.688
    454998.425 9    360788.66248  21272759.576    21272761.3594   21272768.2774
     -1158.099        -902.415
 -12656556.844 9  -9832259.58147  22155162.005    22155163.9964   22155172.9264
      4111.195        3203.529
 -23219984.242 9 -18078163.67148  20379339.606    20379342.3364   20379348.9094
      2909.859        2267.423
  -7268401.316 9  -5646471.06746  23342662.842    23342665.0244   23342674.6894
      3427.036        2670.418
  -8366800.351 9  -6499944.71348  20018018.744    20018020.5434   20018026.9654
     -1067.599        -831.895
    816592.248 9    648205.91946  23436057.843    23436060.3434   23436069.1304
     -1888.085       -1471.235
 97  5 14 18  6 29.9960000  0  7  9  2 24  4  5  7 26               -0.003276979
 -24224413.293 9 -18575361.81048  20769650.520    20769652.6844   20769659.3104
      2483.445        1935.152
    489864.140 9    387956.72248  21279394.236    21279396.1134   21279402.9904
     -1166.056        -908.615
 -12779817.875 9  -9928307.07347  22131705.887    22131708.1214   22131717.1584
      4106.346        3199.750
 -23307065.952 9 -18146019.53848  20362768.372    20362771.1704   20362777.7554
      2895.797        2256.465
  -7371231.058 9  -5726597.99346  23323095.072    23323097.1924   23323106.7824
      3428.322        2671.420
  -8334684.327 9  -6474919.25448  20024130.182    20024132.0144   20024138.4864
     -1073.179        -836.243
    873269.164 9    692369.68946  23446843.176    23446845.6614   23446854.5114
     -1890.244       -1472.917
 97  5 14 18  6 59.9960000  0  7  9  2 24  4  5  7 26               -0.003288691
 -24298676.639 9 -18633229.33548  20755518.802    20755520.8654   20755527.4874
      2467.721        1922.899
    524983.218 9    415322.19848  21286077.229    21286079.0724   21286085.9794
     -1174.878        -915.489
 -12902923.211 9 -10024233.24447  22108279.452    22108281.8674   22108290.9034
      4100.896        3195.503
 -23393713.727 9 -18213537.26948  20346279.822    20346282.5794   20346289.1394
      2880.895        2244.853
  -7474071.465 9  -5806733.28646  23303525.154    23303527.2404   23303536.6014
      3427.991        2671.162
  -8302393.309 9  -6449757.43448  20030275.006    20030276.8374   20030283.2834
     -1079.400        -841.091
    930021.873 9    736592.50846  23457642.870    23457645.3164   23457654.3324
     -1893.160       -1475.190
 97  5 14 18  7 29.9960000  0  7  9  2 24  4  5  7 26               -0.003300385
 -24372474.071 9 -18690733.81648  20741475.588    20741477.7124   20741484.3324
      2452.062        1910.698
    560355.490 9    442884.96348  21292808.361    21292810.2204   21292817.1004
     -1183.323        -922.070
 -13025877.263 9 -10120041.56947  22084881.885    22084884.5104   22084893.4604
      4095.955        3191.653
 -23479922.112 9 -18280712.62048  20329874.968    20329877.6064   20329884.1424
      2866.462        2233.607
  -7576913.396 9  -5886869.73746  23283954.993    23283956.9034   23283966.1694
      3428.162        2671.295
  -8269920.435 9  -6424453.91348  20036454.419    20036456.2094   20036462.6324
     -1085.504        -845.847
    986871.213 9    780890.63546  23468460.934    23468463.4914   23468472.4714
     -1896.704       -1477.951
 97  5 14 18  7 59.9960000  0  7  9  2 24  4  5  7 26               -0.003312060
 -24445808.394 9 -18747877.42748  20727520.608    20727522.6754   20727529.2904
      2436.313        1898.426
    595978.542 9    470643.15348  21299587.181    21299589.1044   21299596.0374
     -1192.156        -928.953
 -13148688.754 9 -10215738.76747  22061511.798    22061514.1814   22061523.2274
      4090.726        3187.579
 -23565709.058 9 -18347559.57348  20313550.153    20313552.8864   20313559.4294
      2851.984        2222.325
  -7679766.020 9  -5967014.49246  23264382.648    23264384.6254   23264394.0664
      3428.132        2671.272
  -8237265.723 9  -6399008.69248  20042668.455    20042670.2314   20042676.6124
     -1092.332        -851.168
   1043803.613 9    825253.51646  23479294.870    23479297.4244   23479306.3434
     -1899.206       -1479.901
 97  5 14 18  8 29.9960000  0  7  9  2 24  4  5  7 26               -0.003323701
 -24518652.058 9 -18804638.71648  20713658.898    20713660.9604   20713667.6094
      2419.688        1885.471
    631884.642 9    498621.89548  21306419.791    21306421.8034   21306428.8004
     -1201.916        -936.558
 -13271320.918 9 -10311296.25347  22038175.718    22038177.9624   22038187.0064
      4084.282        3182.557
 -23651035.343 9 -18414047.56848  20297313.228    20297315.8394   20297322.3724
      2835.984        2209.858
  -7782590.016 9  -6047137.02246  23244816.053    23244817.9064   23244827.2244
      3426.306        2669.849
  -8204370.921 9  -6373376.39448  20048928.095    20048929.9244   20048936.3034
     -1100.957        -857.889
   1100832.029 9    869691.21046  23490146.994    23490149.6134   23490158.3544
     -1903.120       -1482.951
 97  5 14 18  8 59.9960000  0  7  9  2 24  4  5  7 26               -0.003335323
 -24591040.799 9 -18861045.51648  20699883.769    20699885.8094   20699892.4824
      2406.022        1874.822
    668041.055 9    526795.69148  21313300.039    21313302.1444   21313309.2194
     -1208.653        -941.808
 -13393791.794 9 -10406728.06247  22014870.365    22014872.5684   22014881.5094
      4080.030        3179.244
 -23735910.041 9 -18480183.67748  20281162.031    20281164.6974   20281171.2674
      2821.988        2198.952
  -7885399.126 9  -6127247.94146  23225251.880    23225253.8824   23225263.1774
      3427.597        2670.855
  -8171251.950 9  -6347569.42148  20055230.407    20055232.2774   20055238.6644
     -1107.320        -862.847
   1157945.610 9    914195.24846  23501015.665    23501018.0054   23501026.8334
     -1904.618       -1484.118
 97  5 14 18  9 29.9960000  0  7  9  2 24  4  5  7 26               -0.003346951
 -24662973.802 9 -18917097.19348  20686195.316    20686197.4124   20686204.0884
      2389.809        1862.189
    704430.464 9    555151.03248  21320224.731    21320226.7994   21320233.9564
     -1217.146        -948.425
 -13516086.751 9 -10502022.79147  21991598.269    21991600.5234   21991609.4304
      4072.924        3173.707
 -23820313.277 9 -18545952.41148  20265100.599    20265103.2634   20265109.9014
      2805.052        2185.755
  -7988216.264 9  -6207365.08946  23205686.406    23205688.4254   23205697.6914
      3427.225        2670.565
  -8137897.594 9  -6321579.03148  20061577.575    20061579.3884   20061585.7684
     -1116.065        -869.661
   1215142.374 9    958764.05946  23511899.835    23511902.2644   23511911.3454
     -1908.109       -1486.838
 97  5 14 18  9 59.9960000  0  7  9  2 24  4  5  7 26               -0.003358592
 -24734430.367 9 -18972777.62448  20672597.580    20672599.6764   20672606.3444
      2374.329        1850.126
    741067.860 9    583699.61048  21327196.784    21327198.6834   21327205.9404
     -1224.985        -954.534
 -13638169.646 9 -10597152.30347  21968366.704    21968368.9514   21968377.6514
      4066.154        3168.432
 -23904204.104 9 -18611321.86848  20249136.630    20249139.3814   20249145.9854
      2787.949        2172.428
  -8091035.139 9  -6287483.58746  23186120.611    23186122.5994   23186131.8624
      3427.802        2671.015
  -8104288.452 9  -6295390.10848  20067973.178    20067975.0034   20067981.3444
     -1124.045        -875.879
   1272422.046 9   1003397.50847  23522799.863    23522802.2794   23522811.4814
     -1910.205       -1488.471
 97  5 14 18 10 29.9960000  0  7  9  2 24  4  5  7 26               -0.003370278
 -24805456.453 9 -19028122.61548  20659081.743    20659083.8434   20659090.5284
      2359.761        1838.775
    777910.291 9    612407.95048  21334207.753    21334209.5604   21334216.9324
     -1232.270        -960.210
 -13760074.578 9 -10692143.10347  21945169.167    21945171.1934   21945179.9324
      4059.822        3163.498
 -23987604.005 9 -18676308.79048  20233266.226    20233268.9074   20233275.5584
      2771.065        2159.271
  -8193900.509 9  -6367638.31446  23166545.951    23166547.8954   23166557.0684
      3428.983        2671.935
  -8070477.595 9  -6269043.99948  20074407.175    20074409.0204   20074415.3604
     -1130.826        -881.163
   1329748.347 9   1048067.36546  23533708.917    23533711.2984   23533720.3054
     -1912.555       -1490.303
 97  5 14 18 10 59.9960000  0  7  9  2 24  4  5  7 26               -0.003381988
 -24876023.890 9 -19083110.22548  20645653.238    20645655.3174   20645661.9524
      2345.626        1827.761
    814996.809 9    641306.48848  21341264.885    21341266.9034   21341274.3234
     -1239.201        -965.611
 -13881766.793 9 -10786968.18447  21922011.968    21922013.9424   21922022.5774
      4053.890        3158.875
 -24070472.110 9 -18740881.33048  20217497.041    20217499.6524   20217506.2894
      2754.557        2146.408
  -8296787.071 9  -6447809.59246  23146967.148    23146969.1744   23146978.2584
      3431.061        2673.554
  -8036442.958 9  -6242523.52548  20080883.829    20080885.5914   20080891.9064
     -1137.209        -886.137
   1387159.418 9   1092803.19446  23544634.031    23544636.3574   23544645.2414
     -1913.612       -1491.126
 97  5 14 18 11 29.9960000  0  7  9  2 24  4  5  7 26               -0.003393739
 -24946158.911 9 -19137760.87448  20632306.936    20632309.0724   20632315.6854
      2329.887        1815.496
    852302.213 9    670375.59648  21348363.970    21348365.9414   21348373.4034
     -1248.074        -972.525
 -14003276.908 9 -10881651.35447  21898888.996    21898891.3144   21898899.8744
      4046.595        3153.191
 -24152847.127 9 -18805069.63548  20201821.660    20201824.1734   20201830.8454
      2737.037        2132.756
  -8399731.282 9  -6528025.73646  23127377.345    23127379.5144   23127388.5404
      3431.565        2673.947
  -8002217.062 9  -6215854.01048  20087396.790    20087398.5644   20087404.9134
     -1144.656        -891.940
   1444595.218 9   1137558.31446  23555563.570    23555566.0054   23555574.9054
     -1915.524       -1492.616
 97  5 14 18 11 59.9960000  0  7  9  2 24  4  5  7 26               -0.003405507
 -25015854.459 9 -19192069.08748  20619044.341    20619046.4634   20619053.0704
      2316.027        1804.696
    889853.835 9    699636.56048  21355509.932    21355511.8384   21355519.3214
     -1255.632        -978.415
 -14124606.355 9 -10976193.74047  21875800.635    21875803.0244   21875811.6334
      4041.566        3149.272
 -24234730.434 9 -18868874.80148  20186239.602    20186242.2964   20186248.9724
      2721.541        2120.681
  -8502710.302 9  -6608269.01746  23107780.935    23107783.1014   23107792.0984
      3433.235        2675.248
  -7967800.796 9  -6189036.16348  20093945.913    20093947.7574   20093954.1034
     -1149.974        -896.084
   1502051.294 9   1182329.16646  23566497.067    23566499.5604   23566508.6444
     -1915.244       -1492.398
 97  5 14 18 12 29.9960000  0  7  9  2 24  4  5  7 26               -0.003417280
 -25085105.451 9 -19246030.88948  20605866.265    20605868.4034   20605875.0194
      2300.644        1792.710
    927657.856 9    729094.19448  21362703.751    21362705.7484   21362713.1914
     -1264.533        -985.350
 -14245762.397 9 -11070601.00547  21852745.348    21852747.8044   21852756.3694
      4035.502        3144.547
 -24316129.176 9 -18932302.37848  20170749.975    20170752.5714   20170759.2784
      2705.089        2107.861
  -8605707.299 9  -6688526.29246  23088181.141    23088183.4434   23088192.3614
      3433.309        2675.306
  -7933203.594 9  -6162077.32348  20100529.571    20100531.4064   20100537.7634
     -1156.419        -901.106
   1559524.945 9   1227113.85647  23577434.215    23577436.6134   23577445.4864
     -1916.097       -1493.062
 97  5 14 18 12 59.9960000  0  7  9  2 24  4  5  7 26               -0.003429067
 -25153893.365 9 -19299631.85648  20592776.339    20592778.5104   20592785.1034
      2284.960        1780.488
    965711.969 9    758746.70348  21369945.203    21369947.2404   21369954.7214
     -1272.566        -991.610
 -14366755.280 9 -11164881.15247  21829721.429    21829723.6004   21829732.0554
      4030.259        3140.462
 -24397051.942 9 -18995359.06748  20155350.809    20155353.4814   20155360.1764
      2689.599        2095.791
  -8708722.823 9  -6768797.99546  23068577.672    23068580.0114   23068589.0494
      3434.224        2676.019
  -7898427.362 9  -6134978.98148  20107147.286    20107149.1044   20107155.4504
     -1162.150        -905.571
   1617000.167 9   1271899.65646  23588371.471    23588373.8984   23588382.7104
     -1915.759       -1492.799
 97  5 14 18 13 29.9960000  0  7  9  2 24  4  5  7 26               -0.003440863
 -25222195.938 9 -19352854.63048  20579778.759    20579780.9034   20579787.5744
      2267.848        1767.154
   1004021.135 9    788597.96548  21377235.315    21377237.2634   21377244.7314
     -1282.045        -998.996
 -14487582.905 9 -11259032.51147  21806728.553    21806730.8734   21806739.3744
      4023.794        3135.424
 -24477502.899 9 -19058048.10648  20140041.548    20140044.1514   20140050.8434
      2672.937        2082.808
  -8811753.902 9  -6849081.84346  23048971.631    23048973.8604   23048982.7044
      3433.645        2675.568
  -7863480.560 9  -6107747.73048  20113797.516    20113799.2604   20113805.6224
     -1168.397        -910.439
   1674489.898 9   1316696.72946  23599310.931    23599313.6724   23599322.5584
     -1917.725       -1494.331
 97  5 14 18 13 59.9960000  0  7  9  2 24  4  5  7 26               -0.003452648
 -25289978.962 9 -19405672.56748  20566880.189    20566882.2504   20566888.9184
      2251.069        1754.080
   1042606.417 9    818664.36747  21384577.880    21384579.7834   21384587.3064
     -1290.105       -1005.277
 -14608210.659 9 -11353028.11247  21783773.812    21783776.1024   21783784.7064
      4017.976        3130.890
 -24557447.413 9 -19120342.52048  20124828.572    20124831.2074   20124837.8554
      2656.801        2070.235
  -8914760.623 9  -6929346.71446  23029370.095    23029372.1524   23029381.0044
      3433.512        2675.464
  -7828348.615 9  -6080372.20848  20120482.874    20120484.6694   20120491.0684
     -1173.675        -914.552
   1732041.131 9   1361541.84546  23610262.764    23610265.2524   23610274.1564
     -1918.894       -1495.242
 97  5 14 18 14 29.9960000  0  7  9  2 24  4  5  7 26               -0.003464444
 -25357255.944 9 -19458096.18248  20554077.802    20554079.8814   20554086.5744
      2233.765        1740.596
   1081434.086 9    848919.65647  21391966.683    21391968.5004   21391975.9054
     -1298.807       -1012.057
 -14728659.649 9 -11446884.43847  21760852.941    21760855.4234   21760863.9894
      4011.510        3125.852
 -24636911.532 9 -19182262.58948  20109707.158    20109709.6754   20109716.3104
      2640.408        2057.461
  -9017764.379 9  -7009609.28046  23009769.041    23009771.1344   23009779.9374
      3432.992        2675.059
  -7793056.293 9  -6052871.71448  20127198.802    20127200.5734   20127206.9984
     -1179.659        -919.215
   1789631.502 9   1406417.32246  23621221.825    23621224.4324   23621233.3884
     -1920.720       -1496.665
 97  5 14 18 14 59.9960000  0  7  9  2 24  4  5  7 26               -0.003476235
 -25424013.044 9 -19510114.70048  20541374.284    20541376.4194   20541383.0904
      2216.635        1727.248
   1120523.314 9    879378.75047  21399405.129    21399406.9334   21399414.3734
     -1307.476       -1018.812
 -14848910.818 9 -11540586.59047  21737970.007    21737972.3604   21737980.9654
      4004.736        3120.573
 -24715878.196 9 -19243795.03848  20094680.168    20094682.8114   20094689.4464
      2623.734        2044.468
  -9120751.582 9  -7089858.96146  22990171.205    22990173.2264   22990181.9204
      3432.396        2674.594
  -7757575.344 9  -6025224.23548  20133950.560    20133952.3524   20133958.8234
     -1186.186        -924.301
   1847279.602 9   1451337.91046  23632192.137    23632194.4644   23632203.3714
     -1922.806       -1498.290
 97  5 14 18 15 29.9960000  0  7  9  2 24  4  5  7 26               -0.003488015
 -25490280.464 9 -19561751.64648  20528764.032    20528766.1504   20528772.7844
      2201.677        1715.592
   1159864.886 9    910034.48347  21406891.665    21406893.4294   21406900.7414
     -1314.797       -1024.517
 -14968966.912 9 -11634136.75847  21715124.206    21715126.4254   21715135.0534
      3999.182        3116.246
 -24794355.806 9 -19304946.40548  20079746.513    20079749.0134   20079755.6214
      2608.399        2032.519
  -9223718.462 9  -7170092.79846  22970577.005    22970579.0874   22970587.7704
      3432.611        2674.762
  -7721901.967 9  -5997426.81648  20140739.058    20140740.8084   20140747.2614
     -1191.675        -928.578
   1904973.904 9   1496294.39046  23643170.728    23643173.3004   23643182.4904
     -1922.942       -1498.396
 97  5 14 18 15 59.9960000  0  7  9  2 24  4  5  7 26               -0.003499795
 -25556074.120 9 -19613019.42548  20516243.923    20516246.0394   20516252.6744
      2185.473        1702.966
   1199446.219 9    940877.03747  21414423.768    21414425.5364   21414432.7744
     -1323.221       -1031.081
 -15088829.057 9 -11727535.79747  21692315.243    21692317.4224   21692325.9634
      3992.425        3110.981
 -24872343.343 9 -19365715.89848  20064905.866    20064908.4904   20064915.0554
      2591.599        2019.428
  -9326673.366 9  -7250317.29546  22950985.313    22950987.3424   22950996.0594
      3432.085        2674.352
  -7686027.979 9  -5969473.07348  20147565.585    20147567.3984   20147573.8994
     -1199.025        -934.305
   1962688.370 9   1541266.64046  23654153.311    23654156.0024   23654165.1534
     -1923.783       -1499.052
 97  5 14 18 16 29.9960000  0  7  9  2 24  4  5  7 26               -0.003511581
 -25621413.953 9 -19663933.57148  20503810.089    20503812.2934   20503818.9004
      2169.376        1690.423
   1239264.244 9    971904.02947  21422000.923    21422002.7174   21422009.9454
     -1332.448       -1038.271
 -15208509.264 9 -11820793.04247  21669540.577    21669542.9904   21669551.4824
      3984.860        3105.086
 -24949852.719 9 -19426112.79748  20050156.292    20050158.9444   20050165.5234
      2574.433        2006.052
  -9429650.277 9  -7330558.96046  22931389.374    22931391.4694   22931400.1144
      3431.835        2674.157
  -7649959.560 9  -5941367.82748  20154429.145    20154430.9564   20154437.5014
     -1206.631        -940.232
   2020403.215 9   1586239.19046  23665136.169    23665138.8044   23665147.9834
     -1924.931       -1499.946
 97  5 14 18 16 59.9960000  0  7  9  2 24  4  5  7 26               -0.003523357
 -25686281.398 9 -19714479.62848  20491466.250    20491468.4084   20491474.9674
      2154.012        1678.451
   1279344.984 9   1003135.72847  21429628.219    21429629.8474   21429637.0964
     -1340.530       -1044.569
 -15327962.252 9 -11913873.23947  21646809.355    21646811.7664   21646820.2404
      3977.667        3099.481
 -25026851.889 9 -19486112.13348  20035503.680    20035506.4344   20035513.0784
      2557.950        1993.208
  -9532629.908 9  -7410802.73246  22911792.989    22911795.0414   22911803.7384
      3432.603        2674.756
  -7613674.230 9  -5913093.56048  20161333.978    20161335.8124   20161342.3914
     -1213.256        -945.394
   2078138.816 9   1631227.87346  23676123.378    23676125.6684   23676134.7784
     -1925.028       -1500.022
 97  5 14 18 17 29.9960000  0  7  9  2 24  4  5  7 26               -0.003535125
 -25750658.322 9 -19764643.46248  20479215.675    20479217.8804   20479224.4124
      2136.970        1665.171
   1319694.599 9   1034576.93847  21437306.544    21437308.1484   21437315.3804
     -1350.131       -1052.050
 -15447171.809 9 -12006763.73747  21624124.620    21624126.8704   21624135.3934
      3968.784        3092.559
 -25103337.797 9 -19545711.53248  20020949.009    20020951.6304   20020958.2444
      2540.363        1979.504
  -9635614.950 9  -7491050.73646  22892195.705    22892197.5864   22892206.3654
      3432.588        2674.744
  -7577182.957 9  -5884658.82048  20168278.076    20168279.9024   20168286.4814
     -1220.005        -950.653
   2135897.873 9   1676234.89346  23687114.599    23687117.0404   23687126.1394
     -1926.369       -1501.067
 97  5 14 18 17 59.9960000  0  7  9  2 24  4  5  7 26               -0.003546882
 -25814525.019 9 -19814409.71448  20467062.394    20467064.4784   20467070.9994
      2120.028        1651.970
   1360331.201 9   1066241.77347  21445039.290    21445041.0274   21445048.3084
     -1359.850       -1059.623
 -15566118.054 9 -12099449.08147  21601489.721    21601492.0744   21601500.6264
      3960.108        3085.798
 -25179302.907 9 -19604905.11448  20006493.214    20006495.9474   20006502.5564
      2523.110        1966.060
  -9738617.454 9  -7571312.34946  22872594.993    22872596.8984   22872605.5244
      3433.136        2675.171
  -7540505.887 9  -5856079.30648  20175257.480    20175259.3514   20175265.9604
     -1226.057        -955.369
   2193693.443 9   1721270.21446  23698112.794    23698115.1804   23698124.5944
     -1927.495       -1501.944
 97  5 14 18 18 29.9960000  0  7  9  2 24  4  5  7 26               -0.003558611
 -25877882.351 9 -19863779.06348  20455005.923    20455008.0184   20455014.5164
      2104.021        1639.497
   1401267.773 9   1098140.35347  21452829.127    21452831.0424   21452838.3314
     -1368.737       -1066.548
 -15684793.273 9 -12191923.21347  21578906.337    21578908.8554   21578917.4354
      3951.850        3079.364
 -25254743.782 9 -19663690.20148  19992137.423    19992140.0254   19992146.6674
      2506.563        1953.166
  -9841611.398 9  -7651567.30446  22852995.916    22852997.7004   22853006.3274
      3433.326        2675.319
  -7503643.183 9  -5827355.14348  20182272.329    20182274.1234   20182280.7704
     -1231.291        -959.447
   2251526.624 9   1766334.96046  23709118.087    23709120.5244   23709129.9014
     -1927.650       -1502.065
 97  5 14 18 18 59.9960000  0  7  9  2 24  4  5  7 26               -0.003570321
 -25940742.064 9 -19912760.65548  20443044.208    20443046.2214   20443052.7064
      2086.956        1626.199
   1442478.294 9   1130252.39347  21460671.455    21460673.1944   21460680.4784
     -1378.169       -1073.898
 -15803216.521 9 -12284201.02447  21556371.301    21556373.6304   21556382.2234
      3943.454        3072.821
 -25329672.451 9 -19722076.16848  19977878.935    19977881.5964   19977888.2374
      2489.028        1939.502
  -9944594.034 9  -7731813.40546  22833398.859    22833400.6524   22833409.3714
      3432.555        2674.718
  -7466601.514 9  -5798491.53048  20189321.146    20189322.9184   20189329.5894
     -1237.651        -964.403
   2309381.266 9   1811416.33946  23720127.664    23720129.9794   23720139.4984
     -1929.016       -1503.129
 97  5 14 18 19 29.9960000  0  7  9  2 24  4  5  7 26               -0.003582003
 -26003087.584 9 -19961341.57948  20431180.197    20431182.2634   20431188.7434
      2069.450        1612.558
   1483974.444 9   1162587.01247  21468568.147    21468569.7694   21468576.9904
     -1388.085       -1081.625
 -15921385.411 9 -12376280.63747  21533884.608    21533886.8314   21533895.3564
      3934.525        3065.864
 -25404067.266 9 -19780046.13948  19963722.114    19963724.7394   19963731.3884
      2470.550        1925.104
 -10047544.525 9  -7812034.47146  22813808.001    22813809.7494   22813818.5484
      3430.884        2673.416
  -7429368.956 9  -5769479.16648  20196406.219    20196408.0424   20196414.7004
     -1244.570        -969.795
   2367289.146 9   1856539.34646  23731147.005    23731149.5824   23731159.1144
     -1931.415       -1504.999
 97  5 14 18 19 59.9960000  0  7  9  2 24  4  5  7 26               -0.003593680
 -26064942.795 9 -20009540.44048  20419409.477    20419411.6074   20419418.1404
      2053.967        1600.494
   1525718.418 9   1195114.74247  21476511.679    21476513.4084   21476520.6114
     -1394.948       -1086.972
 -16039327.933 9 -12468183.85247  21511440.793    21511443.1074   21511451.6004
      3928.047        3060.816
 -25477938.582 9 -19837608.19248  19949664.809    19949667.5034   19949674.1694
      2453.824        1912.071
 -10150476.997 9  -7892241.50146  22794220.406    22794222.2784   22794231.1074
      3430.934        2673.455
  -7391951.536 9  -5740322.75548  20203526.521    20203528.3234   20203534.9874
     -1250.284        -974.247
   2425226.133 8   1901684.91746  23742172.239    23742174.5904   23742184.0994
     -1931.292       -1504.903
